[[{"header":{"parameterUnit":"m.s-1","parameterCategory":1,"la1":30.6,"la2":28.766,"lo1":-90.7593,"lo2":-88.6598,"dy":0.0162,"dx":0.0183,"nx":116,"ny":114,"refTime":"2023-07-30T12:00:00:Z","depth":0,"parameterNumber":2,"parameterNumberName":"U-component_of_WINDS"},"data":[0.0,0.0,0.0,0.0,0.0,0.0,0.0,0.0,0.0,0.0,0.0,0.0,0.0,0.0,0.0,0.0,0.0,0.0,0.0,0.0,0.0,0.0,0.0,0.0,0.0,0.0,0.0,0.0,0.0,0.0,0.0,0.0,0.0,0.0,0.0,0.0,0.0,0.0,0.0,0.0,0.0,0.0,0.0,0.0,0.0,0.0,0.0,0.0,0.0,0.0,0.0,0.0,0.0,0.0,0.0,0.0,0.0,0.0,0.0,0.0,0.0,0.0,0.0,0.0,0.0,0.0,0.0,0.0,0.0,0.0,0.0,0.0,0.0,0.0,0.0,0.0,0.0,0.0,0.0,0.0,0.0,0.0,0.0,0.0,0.0,0.0,0.0,0.0,0.0,0.0,0.0,0.0,0.0,0.0,0.0,0.0,0.0,0.0,0.0,0.0,0.0,0.0,0.0,0.0,0.0,0.0,0.0,0.0,0.0,0.0,0.0,0.0,0.0,0.0,0.0,0.0,0.0,0.0,0.0,0.0,0.0,0.0,0.0,0.0,0.0,0.0,0.0,0.0,0.0,0.0,0.0,0.0,0.0,0.0,0.0,0.0,0.0,0.0,0.0,0.0,0.0,0.0,0.0,0.0,0.0,0.0,0.0,0.0,0.0,0.0,0.0,0.0,0.0,0.0,0.0,0.0,0.0,0.0,0.0,0.0,0.0,0.0,0.0,0.0,0.0,0.0,0.0,0.0,0.0,0.0,0.0,0.0,0.0,0.0,0.0,0.0,0.0,0.0,0.0,0.0,0.0,0.0,0.0,0.0,0.0,0.0,0.0,0.0,0.0,0.0,0.0,0.0,0.0,0.0,0.0,0.0,0.0,0.0,0.0,0.0,0.0,0.0,0.0,0.0,0.0,0.0,0.0,0.0,0.0,0.0,0.0,0.0,0.0,0.0,0.0,0.0,0.0,0.0,0.0,0.0,0.0,0.0,0.0,0.0,0.0,0.0,0.0,0.0,0.0,0.0,0.0,0.0,0.0,0.0,0.0,0.0,0.0,0.0,0.0,0.0,0.0,0.0,0.0,0.0,0.0,0.0,0.0,0.0,0.0,0.0,0.0,0.0,0.0,0.0,0.0,0.0,0.0,0.0,0.0,0.0,0.0,0.0,0.0,0.0,0.0,0.0,0.0,0.0,0.0,0.0,0.0,0.0,0.0,0.0,0.0,0.0,0.0,0.0,0.0,0.0,0.0,0.0,0.0,0.0,0.0,0.0,0.0,0.0,0.0,0.0,0.0,0.0,0.0,0.0,0.0,0.0,0.0,0.0,0.0,0.0,0.0,0.0,0.0,0.0,0.0,0.0,0.0,0.0,0.0,0.0,0.0,0.0,0.0,0.0,0.0,0.0,0.0,0.0,0.0,0.0,0.0,0.0,0.0,0.0,0.0,0.0,0.0,0.0,0.0,0.0,0.0,0.0,0.0,0.0,0.0,0.0,0.0,0.0,0.0,0.0,0.0,0.0,0.0,0.0,0.0,0.0,0.0,0.0,0.0,0.0,0.0,0.0,0.0,0.0,0.0,0.0,0.0,0.0,0.0,0.0,0.0,0.0,0.0,0.0,0.0,0.0,0.0,0.0,0.0,0.0,0.0,0.0,0.0,0.0,0.0,0.0,0.0,0.0,0.0,0.0,0.0,0.0,0.0,0.0,0.0,0.0,0.0,0.0,0.0,0.0,0.0,0.0,0.0,0.0,0.0,0.0,0.0,0.0,0.0,0.0,0.0,0.0,0.0,0.0,0.0,0.0,0.0,0.0,0.0,0.0,0.0,0.0,0.0,0.0,0.0,0.0,0.0,0.0,0.0,0.0,0.0,0.0,0.0,0.0,0.0,0.0,0.0,0.0,0.0,0.0,0.0,0.0,0.0,0.0,0.0,0.0,0.0,0.0,0.0,0.0,0.0,0.0,0.0,0.0,0.0,0.0,0.0,0.0,0.0,0.0,0.0,0.0,0.0,0.0,0.0,0.0,0.0,0.0,0.0,0.0,0.0,0.0,0.0,0.0,0.0,0.0,0.0,0.0,0.0,0.0,0.0,0.0,0.0,0.0,0.0,0.0,0.0,0.0,0.0,0.0,0.0,0.0,0.0,0.0,0.0,0.0,0.0,0.0,0.0,0.0,0.0,0.0,0.0,0.0,0.0,0.0,0.0,0.0,0.0,0.0,0.0,0.0,0.0,0.0,0.0,0.0,0.0,0.0,0.0,0.0,0.0,0.0,0.0,0.0,0.0,0.0,0.0,0.0,0.0,0.0,0.0,0.0,0.0,0.0,0.0,0.0,0.0,0.0,0.0,0.0,0.0,0.0,0.0,0.0,0.0,0.0,0.0,0.0,0.0,0.0,0.0,0.0,0.0,0.0,0.0,0.0,0.0,0.0,0.0,0.0,0.0,0.0,0.0,0.0,0.0,0.0,0.0,0.0,0.0,0.0,0.0,0.0,0.0,0.0,0.0,0.0,0.0,0.0,0.0,0.0,0.0,0.0,0.0,0.0,0.0,0.0,0.0,0.0,0.0,0.0,0.0,0.0,0.0,0.0,0.0,0.0,0.0,0.0,0.0,0.0,0.0,0.0,0.0,0.0,0.0,0.0,0.0,0.0,0.0,0.0,0.0,0.0,0.0,0.0,0.0,0.0,0.0,0.0,0.0,0.0,0.0,0.0,0.0,0.0,0.0,0.0,0.0,0.0,0.0,0.0,0.0,0.0,0.0,0.0,0.0,0.0,0.0,0.0,0.0,0.0,0.0,0.0,0.0,0.0,0.0,0.0,0.0,0.0,0.0,0.0,0.0,0.0,0.0,0.0,0.0,0.0,0.0,0.0,0.0,0.0,0.0,0.0,0.0,0.0,0.0,0.0,0.0,0.0,0.0,0.0,0.0,0.0,0.0,0.0,0.0,0.0,0.0,0.0,0.0,0.0,0.0,0.0,0.0,0.0,0.0,0.0,0.0,0.0,0.0,0.0,0.0,0.0,0.0,0.0,0.0,0.0,0.0,0.0,0.0,0.0,0.0,0.0,0.0,0.0,0.0,0.0,0.0,0.0,0.0,0.0,0.0,0.0,0.0,0.0,0.0,0.0,0.0,0.0,0.0,0.0,0.0,0.0,0.0,0.0,0.0,0.0,0.0,0.0,0.0,0.0,0.0,0.0,0.0,0.0,0.0,0.0,0.0,0.0,0.0,0.0,0.0,0.0,0.0,0.0,0.0,0.0,0.0,0.0,0.0,0.0,0.0,0.0,0.0,0.0,0.0,0.0,0.0,0.0,0.0,0.0,0.0,0.0,0.0,0.0,0.0,0.0,0.0,0.0,0.0,0.0,0.0,0.0,0.0,0.0,0.0,0.0,0.0,0.0,0.0,0.0,0.0,0.0,0.0,0.0,0.0,0.0,0.0,0.0,0.0,0.0,0.0,0.0,0.0,0.0,0.0,0.0,0.0,0.0,0.0,0.0,0.0,0.0,0.0,0.0,0.0,0.0,0.0,0.0,0.0,0.0,0.0,0.0,0.0,0.0,0.0,0.0,0.0,0.0,0.0,0.0,0.0,0.0,0.0,0.0,0.0,0.0,0.0,0.0,0.0,0.0,0.0,0.0,0.0,0.0,0.0,0.0,0.0,0.0,0.0,0.0,0.0,0.0,0.0,0.0,0.0,0.0,0.0,0.0,0.0,0.0,0.0,0.0,0.0,0.0,0.0,0.0,0.0,0.0,0.0,0.0,0.0,0.0,0.0,0.0,0.0,0.0,0.0,0.0,0.0,0.0,0.0,0.0,0.0,0.0,0.0,0.0,0.0,0.0,0.0,0.0,0.0,0.0,0.0,0.0,0.0,0.0,0.0,0.0,0.0,0.0,0.0,0.0,0.0,0.0,0.0,0.0,0.0,0.0,0.0,0.0,0.0,0.0,0.0,0.0,0.0,0.0,0.0,0.0,0.0,0.0,0.0,0.0,0.0,0.0,0.0,0.0,0.0,0.0,0.0,0.0,0.0,0.0,0.0,0.0,0.0,0.0,0.0,0.0,0.0,0.0,0.0,0.0,0.0,0.0,0.0,0.0,0.0,0.0,0.0,0.0,0.0,0.0,0.0,0.0,0.0,0.0,0.0,0.0,0.0,0.0,0.0,0.0,0.0,0.0,0.0,0.0,0.0,0.0,0.0,0.0,0.0,0.0,0.0,0.0,0.0,0.0,0.0,0.0,0.0,0.0,0.0,0.0,0.0,0.0,0.0,0.0,0.0,0.0,0.0,0.0,0.0,0.0,0.0,0.0,0.0,0.0,0.0,0.0,0.0,0.0,0.0,0.0,0.0,0.0,0.0,0.0,0.0,0.0,0.0,0.0,0.0,0.0,0.0,0.0,0.0,0.0,0.0,0.0,0.0,0.0,0.0,0.0,0.0,0.0,0.0,0.0,0.0,0.0,0.0,0.0,0.0,0.0,0.0,0.0,0.0,0.0,0.0,0.0,0.0,0.0,0.0,0.0,0.0,0.0,0.0,0.0,0.0,0.0,0.0,0.0,0.0,0.0,0.0,0.0,0.0,0.0,0.0,0.0,0.0,0.0,0.0,0.0,0.0,0.0,0.0,0.0,0.0,0.0,0.0,0.0,0.0,0.0,0.0,0.0,0.0,0.0,0.0,0.0,0.0,0.0,0.0,0.0,0.0,0.0,0.0,0.0,0.0,0.0,0.0,0.0,0.0,0.0,0.0,0.0,0.0,0.0,0.0,0.0,0.0,0.0,0.0,0.0,0.0,0.0,0.0,0.0,0.0,0.0,0.0,0.0,0.0,0.0,0.0,0.0,0.0,0.0,0.0,0.0,0.0,0.0,0.0,0.0,0.0,0.0,0.0,0.0,0.0,0.0,0.0,0.0,0.0,0.0,0.0,0.0,0.0,0.0,0.0,0.0,0.0,0.0,0.0,0.0,0.0,0.0,0.0,0.0,0.0,0.0,0.0,0.0,0.0,0.0,0.0,0.0,0.0,0.0,0.0,0.0,0.0,0.0,0.0,0.0,0.0,0.0,0.0,0.0,0.0,0.0,0.0,0.0,0.0,0.0,0.0,0.0,0.0,0.0,0.0,0.0,0.0,0.0,0.0,0.0,0.0,0.0,0.0,0.0,0.0,0.0,0.0,0.0,0.0,0.0,0.0,0.0,0.0,0.0,0.0,0.0,0.0,0.0,0.0,0.0,0.0,0.0,0.0,0.0,0.0,0.0,0.0,0.0,0.0,0.0,0.0,0.0,0.0,0.0,0.0,0.0,0.0,0.0,0.0,0.0,0.0,0.0,0.0,0.0,0.0,0.0,0.0,0.0,0.0,0.0,0.0,0.0,0.0,0.0,0.0,0.0,0.0,0.0,0.0,0.0,0.0,0.0,0.0,0.0,0.0,0.0,0.0,0.0,0.0,0.0,0.0,0.0,0.0,0.0,0.0,0.0,0.0,0.0,0.0,0.0,0.0,0.0,0.0,0.0,0.0,0.0,0.0,0.0,0.0,0.0,0.0,0.0,0.0,0.0,0.0,0.0,0.0,0.0,0.0,0.0,0.0,0.0,0.0,0.0,0.0,0.0,0.0,0.0,0.0,0.0,0.0,0.0,0.0,0.0,0.0,0.0,0.0,0.0,0.0,0.0,0.0,0.0,0.0,0.0,0.0,0.0,0.0,0.0,0.0,0.0,0.0,0.0,0.0,0.0,0.0,0.0,0.0,0.0,0.0,0.0,0.0,0.0,0.0,0.0,0.0,0.0,0.0,0.0,0.0,0.0,0.0,0.0,0.0,0.0,0.0,0.0,0.0,0.0,0.0,0.0,0.0,0.0,0.0,0.0,0.0,0.0,0.0,0.0,0.0,0.0,0.0,0.0,0.0,0.0,0.0,0.0,0.0,0.0,0.0,0.0,0.0,0.0,0.0,0.0,0.0,0.0,0.0,0.0,0.0,0.0,0.0,0.0,0.0,0.0,0.0,0.0,0.0,0.0,0.0,0.0,0.0,0.0,0.0,0.0,0.0,0.0,0.0,0.0,0.0,0.0,0.0,0.0,0.0,0.0,0.0,0.0,0.0,0.0,-1.2305,-1.0285,0.0,0.0,0.0,0.0,0.0,0.0,0.0,0.0,0.0,0.0,0.0,0.0,0.0,0.0,0.0,0.0,0.0,0.0,0.0,0.0,0.0,0.0,0.0,0.0,0.0,0.0,0.0,0.0,0.0,0.0,0.0,0.0,0.0,0.0,0.0,0.0,0.0,0.0,0.0,0.0,0.0,0.0,0.0,0.0,0.0,0.0,0.0,0.0,0.0,0.0,0.0,0.0,0.0,0.0,0.0,0.0,0.0,0.0,0.0,0.0,0.0,0.0,0.0,0.0,0.0,0.0,0.0,0.0,0.0,0.0,0.0,0.0,0.0,0.0,0.0,0.0,0.0,0.0,0.0,0.0,0.0,0.0,0.0,0.0,0.0,0.0,0.0,0.0,0.0,0.0,0.0,0.0,0.0,0.0,0.0,0.0,0.0,0.0,0.0,0.0,0.0,0.0,0.0,0.0,0.0,0.0,0.0,0.0,0.0,0.0,0.0,0.0,0.0,0.0,-1.6607,-1.5334,0.0,0.0,0.0,0.0,0.0,0.0,0.0,0.0,0.0,0.0,0.0,0.0,0.0,0.0,0.0,0.0,0.0,0.0,0.0,0.0,0.0,0.0,0.0,0.0,0.0,0.0,0.0,0.0,0.0,0.0,0.0,0.0,0.0,0.0,0.0,0.0,0.0,0.0,0.0,0.0,0.0,0.0,0.0,0.0,0.0,0.0,0.0,0.0,0.0,0.0,0.0,0.0,0.0,0.0,0.0,0.0,0.0,0.0,0.0,0.0,0.0,0.0,0.0,0.0,0.0,0.0,0.0,0.0,0.0,0.0,0.0,0.0,0.0,0.0,0.0,0.0,0.0,0.0,0.0,0.0,0.0,0.0,0.0,0.0,0.0,0.0,0.0,0.0,0.0,0.0,0.0,0.0,0.0,0.0,0.0,0.0,0.0,0.0,0.0,0.0,0.0,0.0,0.0,0.0,0.0,0.0,0.0,0.0,-1.6078,-1.6796,-1.7079,-1.8974,-1.9254,-1.832,-1.8627,-1.8389,-1.7597,-1.5517,0.0,0.0,0.0,0.0,0.0,0.0,0.0,0.0,0.0,0.0,0.0,0.0,0.0,0.0,0.0,0.0,0.0,0.0,0.0,0.0,0.0,0.0,0.0,0.0,0.0,0.0,0.0,0.0,0.0,0.0,0.0,0.0,0.0,0.0,0.0,0.0,0.0,0.0,-1.2335,-1.4485,-1.486,-1.349,-0.7018,0.0,0.0,0.0,0.0,0.0,0.0,0.0,0.0,0.0,0.0,0.0,0.0,0.0,0.0,0.0,0.0,0.0,0.0,0.0,0.0,0.0,0.0,0.0,0.0,0.0,0.0,0.0,0.0,0.0,0.0,0.0,0.0,0.0,0.0,0.0,0.0,0.0,0.0,0.0,0.0,0.0,0.0,0.0,1.4302,1.284,0.0,0.0,0.0,0.0,0.0,0.0,0.0,0.0,0.0,0.0,0.0,0.0,0.0,-0.9855,-1.1775,-1.2758,-1.3822,-1.5078,-1.7242,-1.8312,-1.8417,-2.0182,-2.0727,-2.022,-1.9865,0.0,-1.827,-1.6618,0.0,0.0,0.0,0.0,0.0,0.0,0.0,0.0,0.0,0.0,0.0,0.0,0.0,0.0,0.0,0.0,0.0,0.0,0.0,0.0,0.0,0.0,0.0,0.0,0.0,0.0,0.0,0.0,0.0,0.0,0.0,0.0,0.0,0.0,0.0,0.0,-0.8602,-1.4049,-1.7478,-1.8239,-1.8682,-1.8643,-1.4506,-1.1518,-0.9227,-0.5783,0.0,0.0,0.0,0.0,0.0,0.0,0.0,0.0,0.0,0.0,0.0,0.0,0.0,0.0,0.0,0.0,0.0,0.0,0.0,0.0,0.0,0.0,0.0,0.0,0.0,0.0,0.0,0.0,0.0,0.0,0.0,0.0,0.0,0.0,0.0,0.0,0.0,0.0,0.0,1.6542,1.4321,1.1591,0.8343,0.6388,0.0,0.0,0.0,0.0,0.0,0.0,0.0,0.0,0.0,-1.078,-1.0548,-1.1272,-1.3284,-1.4098,-1.5508,-1.7496,-1.8472,-1.8994,-1.908,-2.0599,-2.0664,-1.9495,-1.9829,-1.9489,-1.8462,-1.6812,-1.5955,-1.5413,0.0,0.0,0.0,0.0,-1.3288,-1.3933,0.0,0.0,0.0,0.0,0.0,0.0,0.0,0.0,0.0,0.0,0.0,0.0,0.0,0.0,0.0,1.4394,0.0,0.0,0.0,0.0,0.0,0.0,0.0,0.0,0.0,0.0,0.0,0.0,-1.322,-1.7293,-2.0309,-2.0301,-2.0295,-2.0268,-1.9072,-1.6948,-1.4042,-1.0441,-0.7807,0.0,0.0,0.0,0.0,0.0,0.0,0.0,0.0,0.0,0.0,0.0,0.0,0.0,0.0,0.0,0.0,0.0,0.0,0.0,0.0,0.0,0.0,0.0,0.0,0.0,0.0,0.0,0.0,0.0,0.0,0.0,0.0,0.0,0.0,0.0,0.0,0.0,0.0,1.4855,1.2536,0.839,0.5148,0.3119,0.0,0.0,0.0,0.0,0.0,0.0,-0.5754,-0.698,-0.8656,-1.0989,-1.135,-1.2477,-1.4355,-1.4919,-1.648,-1.8977,-1.8977,-1.8977,-1.8998,-1.9885,-1.9486,-1.8107,-1.8735,-1.8516,-1.7628,-1.6642,-1.6251,-1.6022,-1.3926,-1.3226,-1.3598,-1.4178,-1.462,-1.511,0.0,0.0,0.0,0.0,0.0,0.0,0.0,0.0,0.0,0.0,0.0,0.0,0.0,0.0,1.3558,1.4239,1.0197,0.7974,0.0,0.0,0.0,0.0,0.0,0.0,0.0,0.0,0.0,-0.8649,-1.603,-1.9662,-1.9792,-2.1023,-2.0675,-1.8981,-1.909,-1.8473,-1.7042,-1.3584,-1.1775,-1.0893,0.0,0.0,0.0,0.0,0.0,0.0,0.0,0.0,0.0,0.0,0.0,0.0,0.0,0.0,0.0,0.0,0.0,0.0,0.0,0.0,0.0,0.0,0.0,0.0,0.0,0.0,0.0,0.0,0.0,0.0,0.0,0.0,0.0,0.0,0.0,0.0,0.0,0.0,0.0,0.2389,0.0774,0.0,0.0,0.0,0.0,-0.2257,-0.3677,-0.6319,-1.0547,-1.0111,-1.0139,-1.0975,-1.1543,-1.281,-1.4653,-1.5043,-1.6158,-1.8076,-1.8076,-1.8076,-1.8018,-1.7577,-1.7177,-1.6691,-1.6194,-1.5791,-1.5401,-1.6271,-1.66,-1.6392,-1.4403,-1.426,-1.4972,-1.4068,-1.4355,-1.535,0.0,0.0,0.0,0.0,0.0,0.0,0.0,0.0,0.0,0.0,0.0,0.0,0.0,1.322,1.0975,0.9056,0.5889,0.4282,0.5035,0.0,0.0,0.0,0.0,0.0,0.0,0.0,-0.5179,-1.1599,-1.626,-1.8319,-1.7894,-1.8524,-1.8402,-1.7641,-1.7005,-1.6626,-1.6426,-1.4547,-1.2742,-1.0929,-0.822,-0.6074,0.0,0.0,0.0,0.0,0.0,0.0,0.0,0.0,0.0,0.0,0.0,0.0,0.0,0.0,0.0,0.0,0.0,0.0,0.0,0.0,0.0,0.0,0.0,0.0,0.0,0.0,0.0,0.0,0.0,0.0,0.0,0.0,0.0,0.0,0.0,0.0,0.0,0.1418,-0.1519,0.0,-0.5616,-0.5867,-0.6177,-0.6921,-0.8118,-0.9281,-1.0423,-1.0517,-1.0894,-1.1543,-1.1757,-1.2586,-1.4057,-1.4181,-1.4879,-1.6228,-1.6228,-1.6228,-1.6158,-1.6016,-1.5857,-1.5658,-1.5509,-1.535,-1.5163,-1.4879,-1.5084,-1.5579,-1.4235,-1.3882,-1.4194,-1.4197,-1.421,-1.4585,0.0,0.0,0.0,0.0,0.0,0.0,0.0,0.0,0.0,0.0,0.0,1.6277,1.4921,1.2726,0.9385,0.4546,0.2481,0.1805,0.2722,0.0,0.0,0.0,0.0,0.0,0.0,-0.129,-0.5882,-1.2706,-1.5416,-1.6555,-1.6178,-1.6239,-1.6148,-1.5886,-1.5124,-1.4672,-1.4513,-1.3685,-1.2661,-1.1434,-0.9518,-0.7892,-0.6425,0.0,0.0,0.0,0.0,0.0,0.0,0.0,0.0,0.0,0.0,0.0,0.0,0.0,0.0,0.0,0.0,0.0,0.0,0.0,0.0,0.0,0.0,0.0,0.0,0.0,0.0,0.0,0.0,0.0,0.0,0.0,0.0,0.0,0.0,0.1551,0.0492,-0.1815,-0.4357,-0.632,-0.7351,-0.7882,-0.8471,-0.9114,-1.0104,-1.0678,-1.051,-1.0996,-1.1329,-1.1423,-1.181,-1.2506,-1.3416,-1.3633,-1.4171,-1.5234,-1.5234,-1.5234,-1.5163,-1.4879,-1.4665,-1.4665,-1.3996,-1.37,-1.3628,-1.2618,-1.2618,-1.3186,-1.3222,-1.3237,-1.3266,-1.3548,-1.3564,-1.3587,0.0,0.0,0.0,0.0,0.0,0.0,0.0,0.0,0.0,0.0,1.6573,1.5269,1.3747,1.258,0.8921,0.1478,0.0356,0.0683,0.22,0.2513,0.0,0.0,0.0,0.0,0.0052,-0.2975,-0.6784,-1.1603,-1.3611,-1.4606,-1.4571,-1.4473,-1.4165,-1.3695,-1.3608,-1.2873,-1.1732,-1.1235,-1.171,-1.2497,-0.9678,-0.8584,-0.8377,0.0,0.0,0.0,0.0,0.0,0.0,0.0,0.0,0.0,0.0,0.0,0.0,0.0,0.0,0.0,0.0,0.0,0.0,0.0,0.0,0.0,0.0,0.0,0.0,0.0,0.0,0.0,0.0,0.0,0.0,0.0,0.0,0.0,-0.3783,-0.6072,-0.8057,-0.7722,-0.7887,-0.7575,-0.6535,-0.6726,-0.7422,-0.8739,-0.9447,-1.029,-1.1286,-1.1613,-1.1374,-1.0615,-1.1677,-1.2421,-1.2863,-1.3416,-1.4148,-1.5059,-1.5076,-1.5005,-1.4996,-1.4004,-1.3585,-1.3433,-1.1575,-1.076,-1.0685,-0.9723,-0.9276,-0.9502,-1.1471,-1.2218,-1.2211,-1.2224,-1.2305,-1.2445,0.0,0.0,0.0,0.0,0.0,0.0,0.0,0.0,0.0,0.0,1.7417,1.6316,1.5029,1.2046,0.8543,0.4607,0.2205,0.1836,0.3955,0.0,0.0,0.0,0.0,0.0,0.0054,-0.499,-0.8182,-0.9541,-1.1536,-1.2299,-1.1886,-1.2255,-1.2333,-1.2095,-1.1056,-1.0528,-1.0451,-0.9557,-0.9423,-0.9695,-0.8465,-0.8081,-0.8034,0.0,0.0,0.0,0.0,0.0,0.0,0.0,0.0,0.0,0.0,0.0,0.0,0.0,0.0,0.0,0.0,0.0,0.0,0.0,0.0,0.0,0.0,0.0,0.0,0.0,0.0,0.0,0.0,0.0,0.0,0.0,-1.2192,-1.6115,-1.434,-1.4163,-1.3672,-1.2297,-1.0678,-0.9109,-0.7673,-0.727,-0.777,-0.9586,-0.916,-0.9275,-1.0372,-0.9603,-0.9443,-1.0227,-1.0331,-1.0987,-1.2158,-1.2324,-1.207,-1.1497,-1.1834,-1.1547,-1.0773,-1.0495,-1.0356,-1.0344,-0.9658,-0.9367,-0.9296,-0.9016,-0.8944,-0.9052,-0.9835,-1.009,-1.0098,-1.0947,-1.1694,-1.2418,0.0,0.0,0.0,0.0,0.0,0.0,0.0,0.0,0.0,0.0,1.7609,1.6931,1.5556,1.3285,1.0487,0.7048,0.5616,0.5245,0.61,0.0,0.0,0.0,0.0,0.4389,-0.038,-0.5346,-0.8143,-0.8678,-1.046,-1.114,-1.0813,-1.057,-1.0517,-1.0534,-0.9131,-0.8914,-0.9444,-0.8424,-0.8107,-0.8279,-0.7505,-0.7529,-0.7878,-0.6939,-0.6614,-0.6671,-0.6922,-0.7033,-0.6961,-0.6934,0.0,0.0,0.0,0.0,0.0,0.0,0.0,0.0,0.0,0.0,0.0,0.0,0.0,0.0,0.0,0.0,0.0,0.0,0.0,0.0,0.0,0.0,0.0,0.0,-1.4808,-1.8202,-1.843,-1.8329,-1.7501,-1.5598,-1.3008,-1.0609,-0.8692,-0.7959,-0.7947,-0.8758,-0.8502,-0.8623,-0.9377,-0.8642,-0.8487,-0.9308,-0.9349,-0.9742,-1.0532,-1.0603,-1.0243,-0.9539,-0.9818,-0.9645,-0.9103,-0.9103,-0.9103,-0.9098,-0.8529,-0.8203,-0.8122,-0.7703,-0.7562,-0.7655,0.0,0.0,0.0,0.0,-1.0385,-1.1052,0.0,0.0,0.0,0.0,0.0,0.0,0.0,0.0,0.0,0.0,0.0,1.7182,1.5699,1.5375,1.3541,0.9253,0.9632,0.9641,0.0,0.0,0.0,0.695,0.6707,0.4229,-0.0874,-0.4527,-0.7004,-0.8357,-0.9666,-1.0348,-1.0297,-0.9044,-0.8693,-0.9131,-0.7795,-0.7731,-0.8506,-0.7351,-0.7089,-0.7305,-0.6311,-0.6692,-0.774,-0.6812,-0.66,-0.6756,-0.6922,-0.6993,-0.7027,-0.7149,0.0,0.0,0.0,0.0,0.0,0.0,0.0,0.0,0.0,0.0,0.0,0.0,0.0,0.0,0.0,0.0,0.0,0.0,0.0,0.0,0.0,0.0,0.0,0.0,-1.5853,-1.6581,-1.8158,-1.9469,-1.9485,-1.7368,-1.458,-1.1875,-0.9301,-0.8448,-0.7798,-0.715,-0.7604,-0.8,-0.8223,-0.813,0.0,0.0,0.0,-0.8553,-0.8589,-0.8718,-0.8703,-0.8543,-0.8589,-0.8654,-0.8704,-0.8679,-0.8679,-0.8699,-0.7711,-0.7161,-0.7008,-0.61,-0.5752,-0.5965,-0.7733,-0.8524,-0.8609,-0.8589,-0.8811,-0.9103,0.0,0.0,0.0,0.0,0.0,0.0,0.0,0.0,0.0,1.6779,1.7257,1.7161,1.6303,1.552,1.4346,1.2567,1.1711,1.1342,0.0,0.0,1.0572,0.8371,0.7219,0.4467,-0.011,-0.3309,-0.5307,-0.6126,-0.6993,-0.7427,-0.7427,-0.7111,-0.729,-0.7764,-0.6822,-0.6806,-0.7264,-0.4669,-0.3681,-0.3708,-0.3513,-0.4668,-0.6599,-0.6647,-0.6793,-0.7049,-0.7039,-0.7292,-0.7581,-0.7506,-0.7492,-0.7448,-0.7326,-0.6996,0.0,0.0,0.0,0.0,0.0,0.0,0.0,0.0,0.0,0.0,0.0,0.0,0.0,0.0,0.0,0.0,0.0,0.0,0.0,-1.3142,-1.5209,-1.6968,-1.76,-1.8309,-1.7861,-1.553,-1.4057,-1.1954,-0.8533,-0.747,-0.7038,-0.7069,-0.6348,-0.6332,-0.7278,-0.6479,-0.6404,-0.7282,-0.7158,-0.7502,-0.8419,-0.8487,-0.7991,-0.7092,-0.7411,0.0,-0.641,-0.6354,-0.6365,-0.6399,-0.6004,-0.5809,-0.578,-0.5578,-0.5447,-0.5525,-0.6058,-0.681,-0.7544,-0.7462,-0.8122,-0.9103,0.0,0.0,0.0,0.0,0.0,0.0,0.0,0.0,0.0,0.0,1.6946,1.7163,1.7114,1.6293,1.5525,1.4953,1.4394,0.0,0.0,1.3207,1.1771,0.8779,0.7089,0.4497,0.0829,-0.1932,-0.3874,-0.4992,-0.61,-0.6598,-0.6598,-0.6623,-0.6764,-0.6937,-0.5019,-0.3895,-0.3279,-0.1778,-0.0641,-0.0,-0.1951,-0.3503,-0.4725,-0.4854,-0.5063,-0.5323,-0.5302,-0.6267,-0.7446,-0.7692,-0.7839,-0.774,-0.7733,-0.7543,-0.7105,0.0,0.0,0.0,0.0,0.0,0.0,0.0,0.0,0.0,0.0,0.0,0.0,0.0,0.0,-1.1882,-1.289,0.0,-1.3872,-1.4001,-1.5255,-1.637,-1.6821,-1.6784,-1.6412,-1.5435,-1.3746,-1.165,-0.8843,-0.7518,-0.6668,-0.6285,-0.5827,-0.5342,-0.4904,-0.5205,-0.5652,-0.6211,-0.6116,-0.6376,-0.7104,-0.6937,-0.6643,-0.6032,-0.6267,-0.6117,-0.5567,-0.564,-0.572,-0.5779,-0.5628,-0.5518,-0.5379,-0.5379,-0.5379,-0.5386,-0.5464,-0.5866,-0.6317,-0.6304,-0.6765,-0.7428,0.0,0.0,0.0,0.0,0.0,0.0,0.0,0.0,0.0,0.0,1.6952,1.7466,1.7971,1.7396,1.6936,0.0,0.0,0.0,0.0,1.4675,1.2955,0.9517,0.7136,0.4667,0.2096,-0.0275,-0.2265,-0.3941,-0.5046,-0.5677,-0.572,-0.5405,-0.5239,-0.5104,-0.2729,-0.0713,0.0968,0.1335,0.2402,0.3499,0.0382,-0.1258,-0.1796,-0.1791,-0.2256,-0.2867,-0.2924,-0.3803,-0.5198,-0.6072,-0.6452,-0.6491,-0.6407,-0.6481,-0.5989,-0.3839,-0.3007,0.0,0.0,0.0,0.0,0.0,0.0,0.0,0.0,-0.7132,-1.013,-1.3978,-1.4371,-1.3965,-1.3918,-1.4343,-1.4657,-1.4469,-1.4599,-1.4893,-1.5233,-1.4751,-1.4477,-1.4836,-1.314,-1.1189,-0.9221,-0.7797,-0.6503,-0.5452,-0.5525,-0.4774,-0.2815,-0.3777,-0.4509,-0.4867,-0.4904,-0.4971,-0.5224,-0.4971,-0.4846,-0.4846,-0.4846,-0.4851,-0.4908,-0.5095,-0.524,-0.5265,-0.5237,-0.5089,-0.4846,-0.4846,-0.4846,-0.4846,-0.4846,-0.4855,-0.4925,-0.5243,-0.5535,-0.5694,0.0,0.0,0.0,0.0,0.0,0.0,0.0,0.0,0.0,0.0,0.0,0.0,0.0,0.0,0.0,0.0,0.0,0.0,1.6909,1.5362,1.3696,1.212,0.8112,0.5278,0.4019,0.209,0.0111,-0.1831,-0.1995,-0.2312,-0.2677,-0.1159,-0.0414,-0.0368,0.0065,0.1195,0.2907,0.4818,0.5891,0.6281,0.5848,0.4498,0.2837,0.2836,0.1527,-0.0436,-0.0444,0.0814,0.2121,0.0094,-0.086,-0.1068,-0.0891,-0.0897,-0.0795,-0.0487,-0.0,0.0282,-0.0184,-0.2702,-0.5536,-0.6959,-0.6857,-0.7186,0.0,-1.1316,-1.2692,-1.5249,-1.5543,-1.5097,-1.4148,-1.3024,-1.1974,-1.1433,-1.1626,-1.186,-1.1964,-1.1636,-1.1309,-1.0935,-1.1361,-1.084,-0.8663,-0.7664,-0.6593,-0.5512,-0.5398,-0.4648,-0.2817,-0.1371,-0.1307,-0.2963,-0.3019,-0.3019,-0.3029,-0.3019,-0.3013,-0.3013,-0.3013,-0.2991,-0.2999,-0.3063,-0.3207,-0.3418,-0.3129,-0.3023,-0.3013,-0.3013,-0.3013,-0.3013,-0.3013,-0.2991,-0.3186,-0.4818,-0.543,-0.5501,0.0,0.0,0.0,0.0,0.0,0.0,0.0,0.0,0.0,0.0,0.0,0.0,0.0,0.0,0.0,0.0,0.0,0.0,1.8973,1.7633,1.597,1.4049,1.1244,0.8307,0.5278,0.3911,0.2859,0.1989,0.1109,0.0679,0.0643,0.1549,0.2533,0.357,0.3576,0.4714,0.6473,0.6489,0.695,0.7652,0.7015,0.6266,0.5659,0.5601,0.4993,0.3957,0.2561,0.3436,0.0,0.0,0.5842,0.4624,0.4622,0.4432,0.4181,0.439,0.446,0.4236,0.2892,0.0093,-0.2405,-0.2519,-0.5073,-0.7786,-0.8854,-1.0766,-1.2638,-1.3799,-1.3932,-1.3938,-1.4129,-1.2667,-1.1133,-1.0206,-1.0379,-1.0696,-1.0696,-1.037,-1.0202,-1.0418,-1.0035,-0.917,-0.7929,-0.6855,-0.6026,-0.5467,-0.5393,-0.4164,-0.128,-0.0414,-0.0346,-0.1076,-0.1141,-0.1141,-0.1141,-0.1141,-0.1141,-0.1142,-0.1161,-0.1099,-0.1162,-0.1099,-0.1167,-0.1298,-0.1148,-0.1141,-0.1141,-0.1141,-0.1141,-0.1211,-0.2259,-0.2682,-0.2804,-0.3574,-0.3795,-0.3866,0.0,0.0,0.0,0.0,0.0,0.0,0.0,0.0,0.0,0.0,0.0,0.0,0.0,0.0,0.0,0.0,0.0,0.0,0.0,1.9614,1.8231,1.6402,1.4502,1.1807,0.8194,0.6819,0.5721,0.4877,0.3889,0.3675,0.427,0.4648,0.5588,0.6963,0.6838,0.766,0.8975,0.8,0.8159,0.8967,0.8242,0.8041,0.8337,0.8273,0.8186,0.7985,0.6198,0.6195,0.0,0.0,1.0285,0.8627,0.8604,0.8291,0.7973,0.8287,0.7949,0.717,0.5493,0.2719,0.0376,0.0571,-0.3153,-0.6982,-0.7439,-0.9325,-1.1273,-1.1999,-1.2047,-1.2178,-1.3025,-1.1543,-0.9917,-0.9167,-0.9192,-0.9342,-0.9228,-0.8959,-0.8903,-0.9442,-0.75,-0.5861,-0.5295,-0.5504,-0.5168,-0.4007,-0.3013,-0.1493,0.0607,0.0759,0.0762,0.074,0.074,0.074,0.074,0.0271,-0.0,-0.0,-0.0,-0.0,-0.0,-0.0,-0.0,0.0067,0.1078,0.1482,0.1482,0.0942,0.0811,0.075,-0.0556,-0.1113,-0.117,-0.1095,-0.146,-0.1922,0.0,0.0,0.0,0.0,0.0,0.0,0.0,0.0,0.0,0.0,0.0,0.0,0.0,0.0,0.0,0.0,0.0,0.0,0.0,2.0624,1.9997,1.9677,1.7357,1.5361,1.3795,1.1451,0.8784,0.5864,0.6173,0.7011,0.8221,0.8896,0.9415,0.985,0.9538,0.9422,0.9544,0.9915,1.0352,1.0752,1.0666,1.0936,1.1319,1.11,1.0934,1.0934,1.0563,0.0,0.0,0.0,1.0952,1.0284,1.0212,1.012,1.0111,1.012,0.9524,0.867,0.7728,0.4849,0.1659,0.0386,-0.2074,-0.4804,-0.7387,-0.8065,-0.8637,-1.0312,-1.0347,-1.019,-1.0632,-0.9108,-0.789,-0.8051,-0.758,-0.7095,-0.6881,-0.6833,-0.6771,-0.6796,-0.307,-0.0325,0.0083,-0.3226,-0.3928,-0.042,0.3083,0.4351,0.2686,0.2612,0.2618,0.2613,0.2611,0.2611,0.2611,0.0894,-0.0,-0.0,-0.0,-0.0,-0.0,-0.0,-0.0,0.0202,0.3708,0.5209,0.5068,0.3355,0.279,0.2999,0.2931,0.2764,0.2534,0.2825,0.1617,-0.0068,0.0,0.0,0.0,0.0,0.0,0.0,0.0,0.0,0.0,0.0,0.0,0.0,0.0,0.0,0.0,0.0,0.0,0.0,0.0,2.1917,2.1498,2.1143,1.9578,1.8051,1.6619,1.4492,1.2663,1.1151,1.009,0.9957,1.0744,1.0544,1.0914,1.1657,1.17,1.2029,1.2594,1.1952,1.2003,1.2316,1.1589,1.1925,1.2779,1.2293,1.2751,1.3504,0.0,0.0,0.0,1.3231,1.331,1.2949,1.324,1.268,1.1709,1.1189,1.0914,1.0554,0.9986,0.7841,0.5435,0.394,0.1082,-0.1602,-0.2498,-0.4098,-0.6006,-0.8435,-0.8784,-0.8752,-0.8879,-0.5389,-0.2076,-0.0548,-0.2248,-0.3798,-0.3859,-0.4143,-0.3845,-0.265,-0.1101,0.102,0.4032,0.0631,-0.0764,0.1881,0.4126,0.5131,0.4505,0.4461,0.4497,0.4509,0.4506,0.4546,0.4771,0.4183,0.3244,0.2077,0.1847,0.1761,0.1815,0.1766,0.1897,0.2136,0.3179,0.4398,0.5617,0.4787,0.4631,0.4896,0.5117,0.5144,0.5047,0.4907,0.4616,0.3996,0.0,0.0,0.0,0.0,0.0,0.0,0.0,0.0,0.0,0.0,0.0,0.0,0.0,0.0,0.0,0.0,0.0,2.2292,0.0,0.0,2.2726,2.2424,2.1586,2.0632,1.9628,1.7949,1.6559,1.5612,1.4561,1.4086,1.4105,1.38,1.414,1.5072,1.5041,1.5602,1.6516,1.5868,1.5595,1.5613,1.5191,1.513,1.5203,1.5433,1.586,0.0,0.0,0.0,0.0,1.5111,1.4866,1.4675,1.4985,1.4381,1.3468,1.3122,1.2818,1.2412,1.1944,1.0709,0.9005,0.678,0.4409,0.2532,0.1582,-0.0198,-0.2185,-0.3806,-0.47,-0.5179,-0.5197,-0.239,0.1031,0.419,0.2572,0.0613,-0.0335,-0.0658,-0.0411,0.0918,0.1785,0.3509,0.6338,0.4072,0.2843,0.4017,0.5155,0.5635,0.556,0.5494,0.5493,0.5467,0.5413,0.5528,0.5752,0.5759,0.5287,0.4208,0.3919,0.3813,0.381,0.3779,0.3908,0.4041,0.3966,0.4652,0.5827,0.5623,0.5657,0.584,0.612,0.6182,0.6085,0.5992,0.6051,0.6009,0.0,0.0,0.0,0.0,0.0,0.0,0.0,0.0,0.0,0.0,0.0,0.0,0.0,0.0,0.0,0.0,0.0,0.0,0.0,0.0,0.0,2.3494,2.333,2.307,2.2802,2.1682,2.0445,1.9148,1.9454,1.9168,1.8389,1.8555,1.9104,1.9895,1.9424,1.981,2.0903,2.1161,2.0883,2.0329,2.1269,2.0338,1.865,2.0202,0.0,0.0,0.0,0.0,2.0031,1.6936,1.5846,1.5805,1.5543,1.5417,1.5468,1.5738,1.5118,1.4131,1.3493,1.313,1.2024,0.869,0.7706,0.6971,0.4739,0.3409,0.2735,0.2883,0.1567,0.0386,0.0289,0.0483,0.2078,0.6265,0.6659,0.5762,0.3667,0.3301,0.343,0.3822,0.5513,0.6685,0.7011,0.6878,0.6536,0.6036,0.6203,0.6146,0.584,0.5677,0.5589,0.5589,0.545,0.5447,0.5599,0.57,0.5936,0.631,0.5927,0.5842,0.5832,0.5768,0.5781,0.5788,0.5906,0.5978,0.5988,0.5885,0.5806,0.5827,0.5973,0.5939,0.585,0.6149,0.6169,0.6047,0.0,0.0,0.0,0.0,0.0,0.0,0.0,0.0,0.0,0.0,0.0,0.0,0.0,0.0,0.0,0.0,0.0,0.0,0.0,0.0,0.0,0.0,0.0,0.0,0.0,0.0,0.0,0.0,0.0,2.2365,2.2392,2.2068,2.2342,2.3131,2.2555,2.2555,2.3055,2.3178,2.2722,2.2133,0.0,2.2652,2.205,0.0,0.0,0.0,0.0,0.0,2.2006,2.0456,1.9743,1.931,1.8524,1.799,1.7623,1.6928,1.6001,1.5075,1.4114,1.2955,1.1767,1.0932,0.9024,0.7299,0.6816,0.6672,0.6457,0.6099,0.7211,0.8147,0.7908,0.8759,0.9831,1.0789,0.9504,0.8086,0.7145,0.6109,0.5857,0.6935,0.6792,0.6585,0.6654,0.6783,0.6776,0.6549,0.6369,0.623,0.6149,0.5793,0.5589,0.5589,0.5552,0.5599,0.5745,0.5979,0.6153,0.6044,0.5969,0.5909,0.5798,0.5833,0.5878,0.5979,0.5857,0.6009,0.6208,0.5898,0.5867,0.5976,0.6013,0.6006,0.5996,0.619,0.6237,0.6203,0.0,0.0,0.0,0.0,0.0,0.0,0.0,0.0,0.0,0.0,0.0,0.0,0.0,0.0,0.0,0.0,0.0,0.0,0.0,0.0,0.0,0.0,0.0,0.0,0.0,0.0,0.0,0.0,0.0,0.0,0.0,2.493,2.5251,2.5932,2.5547,2.5608,2.5895,2.6013,0.0,0.0,0.0,0.0,0.0,0.0,0.0,0.0,0.0,2.4852,2.4893,2.3442,2.2129,2.0988,2.0493,1.9823,1.8933,1.7715,1.6681,1.56,1.4501,1.3192,1.2024,1.1537,0.9829,0.8295,0.8019,0.8094,0.8092,0.7876,0.9354,1.072,1.0379,1.1263,1.186,1.1288,1.0439,0.9688,0.9114,0.8239,0.789,0.8278,0.7672,0.7089,0.6658,0.679,0.6895,0.6807,0.6647,0.6495,0.6363,0.6057,0.5854,0.5786,0.5718,0.593,0.6437,0.6331,0.6634,0.7352,0.699,0.6974,0.7314,0.6881,0.6712,0.6798,0.6261,0.64,0.693,0.6738,0.6966,0.736,0.7439,0.7422,0.7372,0.7563,0.7629,0.7557,0.0,0.0,0.0,0.0,0.0,0.0,0.0,0.0,0.0,0.0,0.0,0.0,0.0,0.0,0.0,0.0,0.0,0.0,0.0,0.0,0.0,0.0,0.0,0.0,0.0,0.0,0.0,0.0,0.0,0.0,0.0,0.0,0.0,0.0,0.0,0.0,0.0,0.0,0.0,0.0,0.0,0.0,0.0,0.0,0.0,0.0,2.7064,2.756,2.7802,2.6251,2.4198,2.2258,2.186,2.1069,1.9912,1.8489,1.7119,1.587,1.4735,1.3644,1.2451,1.1437,1.0317,0.9354,0.8883,0.8594,0.85,0.8755,0.9756,1.0499,1.0408,1.1126,1.1505,1.077,1.1183,1.1361,1.0767,1.0324,0.9761,0.8896,0.8302,0.7725,0.7012,0.6905,0.6915,0.6953,0.6956,0.6824,0.6519,0.6349,0.6266,0.6183,0.619,0.6694,0.757,0.7021,0.7551,0.9155,0.8378,0.8466,0.9296,0.8389,0.8012,0.7936,0.7099,0.7173,0.8012,0.8012,0.8416,0.9129,0.9285,0.9234,0.9134,0.9215,0.9296,0.9145,0.0,0.0,0.0,0.0,0.0,0.0,0.0,0.0,0.0,0.0,0.0,0.0,0.0,0.0,0.0,0.0,0.0,0.0,0.0,0.0,0.0,0.0,0.0,0.0,0.0,2.6543,2.6959,2.7031,2.7571,0.0,0.0,0.0,0.0,0.0,0.0,0.0,0.0,0.0,0.0,0.0,0.0,0.0,0.0,0.0,0.0,0.0,2.8625,2.8716,2.8899,2.9604,2.849,2.6445,2.3579,2.2237,2.1384,1.9394,1.743,1.5692,1.495,1.3568,1.2304,1.2149,1.0867,0.9782,1.0237,0.9497,0.8713,0.9094,1.0418,1.1617,1.2148,1.3166,1.4328,1.5617,1.5644,1.5285,1.476,1.3669,1.238,1.0891,0.9173,0.8125,0.7988,0.7217,0.6841,0.7085,0.7102,0.6973,0.6675,0.6407,0.6565,0.7208,0.8047,0.87,0.8951,0.8803,0.8978,0.9241,0.9125,0.915,0.9296,0.9145,0.9069,0.8993,0.8846,0.8841,0.9069,0.9069,0.909,0.9129,0.9285,0.9234,0.9134,0.9215,0.9296,0.9301,0.0,0.0,0.0,0.0,0.0,0.0,0.0,0.0,0.0,0.0,1.8401,0.0,0.0,0.0,0.0,0.0,0.0,0.0,0.0,0.0,0.0,0.0,0.0,0.0,0.0,2.603,2.6422,2.6319,0.0,2.7296,2.7451,2.7764,2.7931,2.7964,2.845,2.8589,0.0,0.0,0.0,0.0,3.0988,3.0597,0.0,0.0,0.0,0.0,0.0,2.9317,2.9769,3.0155,3.0021,2.9213,2.6457,2.4797,2.3312,2.0397,1.8797,1.7647,1.6076,1.4509,1.345,1.3539,1.2054,1.0515,1.073,1.0417,0.9938,0.9921,1.1117,1.2459,1.307,1.3849,1.4857,1.6313,1.6928,1.7019,1.648,1.6291,1.5381,1.3235,1.2234,1.1138,0.9815,0.9538,0.902,0.8041,0.7967,0.765,0.6831,0.7009,0.7297,0.7651,0.8687,0.9484,1.004,0.9593,0.9825,1.0875,1.0346,1.0346,1.0875,1.0346,1.0115,1.004,0.9518,0.9593,1.0115,1.0115,1.0347,1.0771,1.0828,1.0799,1.0771,1.0828,1.0875,1.0801,0.0,0.0,0.0,0.0,0.0,0.0,0.0,1.9244,1.8622,1.793,1.7451,1.7786,1.9376,1.9546,0.0,0.0,0.0,0.0,0.0,0.0,0.0,0.0,0.0,0.0,0.0,0.0,0.0,2.5567,2.6318,0.0,0.0,0.0,0.0,0.0,2.8383,2.8399,2.7874,2.876,0.0,0.0,0.0,3.0085,0.0,0.0,0.0,0.0,0.0,2.9636,3.0319,3.0202,3.0621,3.0877,2.9121,2.75,2.5552,2.1987,2.0714,2.0029,1.7943,1.6129,1.4849,1.4804,1.3246,1.1558,1.1172,1.1194,1.1183,1.1033,1.2044,1.3241,1.4145,1.4487,1.5062,1.6395,1.7442,1.7971,1.7884,1.86,1.8276,1.5907,1.5559,1.4565,1.2209,1.203,1.1321,0.9569,0.9271,0.8578,0.7222,0.791,0.8351,0.8466,0.9442,1.0346,1.1087,1.0346,1.0755,1.2398,1.1496,1.1571,1.2392,1.1496,1.1087,1.1087,1.0271,1.0421,1.1087,1.1087,1.162,1.2305,1.2305,1.2305,1.2305,1.2305,1.2305,1.2144,0.0,0.0,0.0,0.0,0.0,0.0,0.0,1.9244,1.8507,1.7424,1.722,1.7515,1.828,1.8773,0.0,0.0,0.0,0.0,0.0,0.0,0.0,0.0,0.0,0.0,0.0,0.0,0.0,2.6147,2.6516,0.0,0.0,0.0,0.0,0.0,0.0,2.7892,2.784,2.8668,0.0,0.0,0.0,0.0,0.0,0.0,0.0,0.0,0.0,2.9937,3.0582,3.1065,3.1297,3.1189,3.0285,2.9526,2.833,2.5087,2.3128,2.1734,2.0711,1.8343,1.5959,1.5011,1.4022,1.3094,1.2329,1.18,1.178,1.2806,1.3329,1.4201,1.6009,1.5698,1.5936,1.8031,1.8442,1.8914,2.0085,2.1035,2.0863,1.8999,1.7979,1.6784,1.5023,1.3131,1.1958,1.1849,1.0721,0.9466,0.8119,0.8871,0.9741,1.0496,1.1471,1.2077,1.215,1.2077,1.2282,1.2775,1.235,1.237,1.2775,1.235,1.215,1.215,1.2077,1.2077,1.215,1.215,1.2224,1.2305,1.2305,1.2305,1.2305,1.2305,1.2305,1.2265,0.0,0.0,0.0,0.0,0.0,0.0,0.0,1.9244,1.8507,1.7342,1.6944,1.684,1.7088,1.7958,0.0,0.0,0.0,0.0,0.0,0.0,0.0,0.0,0.0,0.0,0.0,0.0,2.3823,2.4835,2.5627,0.0,0.0,0.0,0.0,0.0,0.0,2.6535,2.6311,2.7049,0.0,0.0,0.0,0.0,0.0,0.0,0.0,0.0,0.0,0.0,2.999,3.0634,3.0838,3.0728,3.0432,3.0654,3.0454,2.7262,2.5485,2.4425,2.3965,2.1497,1.8917,1.8312,1.6065,1.411,1.4326,1.3621,1.3061,1.3995,1.4425,1.4947,1.5969,1.5689,1.5734,1.7071,1.8563,1.9812,2.0775,2.2682,2.3699,2.282,2.2262,2.1267,1.9507,1.7952,1.5958,1.3188,1.1997,1.1039,1.0207,1.029,1.0286,0.99,1.1471,1.2385,1.2565,1.2565,1.2701,1.2822,1.2625,1.2538,1.2478,1.2358,1.2305,1.2305,1.2305,1.2305,1.2305,1.2305,1.2412,1.2552,1.2371,1.2412,1.2545,1.2365,1.2191,1.2024,0.0,0.0,0.0,0.0,0.0,0.0,1.9844,1.9449,1.8684,1.7572,1.7057,1.6786,1.6645,1.7714,1.9166,2.1055,0.0,0.0,0.0,0.0,0.0,0.0,0.0,0.0,0.0,0.0,2.3061,2.3979,2.5146,2.5984,0.0,0.0,2.6505,2.6191,0.0,0.0,0.0,0.0,0.0,0.0,0.0,0.0,0.0,0.0,0.0,0.0,0.0,0.0,0.0,0.0,0.0,3.0414,3.039,3.1001,3.1236,2.8883,2.7867,2.7364,2.6741,2.4622,2.2435,2.1429,1.8648,1.6207,1.6323,1.5186,1.4308,1.5101,1.547,1.5748,1.6254,1.5992,1.5817,0.0,1.8093,1.9923,2.1192,2.373,2.5544,2.5716,2.5763,2.5192,2.3446,2.185,1.9297,1.5193,1.3824,1.2836,1.2037,1.1629,1.113,1.05,1.1721,1.2579,1.2879,1.2705,1.2705,1.2879,1.2775,1.2695,1.2871,1.2774,1.2879,1.3164,1.3164,1.3018,1.2732,1.2732,1.2722,1.2592,1.2385,1.2432,1.2592,1.2378,1.2118,1.1857,0.0,0.0,0.0,0.0,0.0,0.0,0.0,1.9904,1.9214,1.8113,1.7885,1.7639,1.7257,1.828,1.9258,1.998,0.0,0.0,0.0,0.0,0.0,0.0,0.0,0.0,0.0,0.0,2.2948,2.4106,2.5383,2.5997,2.6013,2.647,2.6691,2.6657,0.0,0.0,0.0,0.0,0.0,0.0,0.0,0.0,0.0,0.0,0.0,0.0,0.0,0.0,0.0,0.0,0.0,0.0,0.0,3.0326,3.0256,2.9956,3.0241,3.0321,2.8705,2.7617,2.6342,2.3807,2.1734,1.9858,1.81,1.6272,1.5305,1.6349,1.6558,1.6734,1.7319,1.7021,1.6526,1.5966,1.7125,1.8932,2.1542,2.4038,2.6034,2.7223,2.7893,2.7689,2.6168,2.378,2.1102,1.8352,1.6461,1.4808,1.3165,1.2599,1.2579,1.3101,1.2899,1.2893,1.32,1.2605,1.2612,1.32,1.2599,1.2973,1.4149,1.3821,1.4243,1.5163,1.5163,1.4593,1.3673,1.3673,1.3171,1.2305,1.2305,1.2305,1.2305,1.2305,1.2118,1.183,0.0,0.0,0.0,0.0,0.0,0.0,0.0,2.0434,2.02,1.9214,1.906,1.9003,1.8905,1.897,1.9278,1.9932,0.0,0.0,0.0,0.0,0.0,0.0,0.0,0.0,0.0,0.0,0.0,2.2948,2.3719,2.4324,2.4774,2.4903,2.5497,2.639,2.5751,2.5532,0.0,0.0,0.0,0.0,0.0,0.0,2.7894,0.0,0.0,0.0,0.0,0.0,0.0,0.0,0.0,0.0,0.0,0.0,0.0,2.9206,2.9706,3.0188,3.019,2.9026,2.7426,2.5816,2.3642,2.1655,2.0986,1.9038,1.7599,1.8322,1.7959,1.7437,1.7006,1.6826,1.644,1.5613,1.6874,1.8942,2.1687,2.4636,2.7317,2.9456,2.9512,2.8469,2.596,2.5026,2.3329,2.0286,1.9183,1.7794,1.5831,1.4509,1.3361,1.2227,1.2394,1.2692,1.3206,1.2806,1.2705,1.2893,1.2913,1.3279,1.3829,1.3955,1.446,1.5147,1.4829,1.43,1.3658,1.3364,1.3034,1.2585,1.2378,1.2425,1.2579,1.2378,1.1991,1.155,0.0,0.0,0.0,0.0,0.0,0.0,0.0,2.0943,2.091,1.9974,2.0165,2.0277,2.0015,1.9935,1.9929,1.9966,0.0,0.0,0.0,0.0,0.0,0.0,0.0,0.0,0.0,0.0,2.1888,2.2508,2.2829,2.3079,2.3252,2.3242,2.3916,2.5179,2.4768,2.4795,0.0,0.0,0.0,0.0,0.0,0.0,2.6819,0.0,0.0,0.0,0.0,0.0,0.0,0.0,0.0,0.0,0.0,0.0,0.0,0.0,2.919,2.9852,3.0386,3.0176,2.9478,2.8002,2.5737,2.377,2.3314,2.0889,1.8923,1.9427,1.9019,1.8428,1.776,1.7521,1.7115,1.6159,1.7032,1.8712,2.1329,2.4526,2.7754,3.0997,3.0875,2.9631,2.7525,2.6616,2.5215,2.2935,2.1229,1.9758,1.8409,1.6194,1.4651,1.386,1.3285,1.3223,1.3731,1.3679,1.3597,1.3348,1.3355,1.3483,1.3753,1.4321,1.4872,1.5497,1.5547,1.5163,0.0,1.409,1.387,1.3644,1.2903,1.2826,1.307,1.252,1.1931,1.1423,0.0,0.0,0.0,0.0,0.0,0.0,0.0,0.0,0.0,0.0,2.1023,2.1295,2.0609,2.1072,2.105,0.0,0.0,0.0,0.0,0.0,0.0,0.0,0.0,0.0,0.0,2.1749,2.1994,2.2649,2.251,2.2174,2.1564,2.1452,2.2102,2.3359,2.3436,2.3842,0.0,0.0,0.0,0.0,0.0,0.0,0.0,0.0,0.0,0.0,0.0,0.0,0.0,0.0,0.0,0.0,0.0,0.0,0.0,0.0,0.0,0.0,0.0,3.0891,3.1855,2.9964,2.7859,2.6023,2.5064,2.2105,0.0,2.0001,1.9943,1.9677,1.9287,1.8982,1.8459,1.7586,1.7491,1.8389,2.0884,2.4082,2.7673,3.1799,3.1785,3.1084,3.0072,2.8349,2.6872,2.598,2.2828,2.0936,2.0913,1.7708,1.6351,1.7478,1.556,1.4569,1.4687,1.5,1.4905,1.4276,1.399,1.384,1.3954,1.4911,1.5557,1.6075,1.7044,1.6892,1.6039,1.5519,1.5338,1.5122,1.3761,1.3484,1.3673,1.2806,1.2138,1.156,0.0,0.0,0.0,0.0,0.0,0.0,0.0,0.0,0.0,0.0,0.0,2.1133,2.1121,2.128,0.0,0.0,0.0,0.0,0.0,0.0,0.0,0.0,0.0,0.0,0.0,2.2315,2.1769,2.1934,2.1395,2.0881,2.0313,1.9824,2.0819,2.2918,2.2376,0.0,0.0,0.0,0.0,0.0,0.0,0.0,0.0,0.0,0.0,0.0,2.3956,2.3183,0.0,0.0,0.0,0.0,0.0,0.0,0.0,0.0,2.6691,2.7083,2.8023,0.0,3.0422,2.9491,2.8632,2.7567,0.0,2.4152,2.2644,2.1738,2.1039,2.0568,2.0673,2.0167,1.9828,2.0053,1.91,1.9415,2.25,2.6916,3.0028,3.0685,3.163,3.131,2.8958,2.8334,2.7767,2.7078,2.4648,2.3232,2.3306,2.0182,1.8807,1.9541,1.8546,1.7134,1.5378,1.5242,1.5133,1.4936,1.5122,1.5435,1.5895,1.6403,1.6899,1.7484,1.7453,1.7377,1.735,1.6239,1.5877,1.6044,1.5047,1.4735,1.4807,1.4593,1.4079,1.3361,0.0,0.0,0.0,0.0,0.0,0.0,0.0,0.0,0.0,0.0,0.0,0.0,0.0,0.0,0.0,0.0,0.0,0.0,0.0,0.0,0.0,0.0,0.0,0.0,0.0,2.2616,2.2099,2.1979,2.1188,2.045,1.9742,1.8425,1.8954,2.0999,2.1464,0.0,0.0,0.0,0.0,0.0,2.6902,0.0,0.0,0.0,0.0,0.0,2.2194,2.1336,0.0,1.9499,1.9628,2.0175,0.0,0.0,0.0,0.0,2.4796,2.5628,2.7007,2.8754,3.003,2.9501,2.8912,2.8147,2.6932,2.5323,2.3831,2.2915,2.2514,2.2197,2.193,2.1831,2.1769,2.1525,2.03,2.0392,2.3232,2.6854,2.9524,3.0261,3.0965,3.0792,2.9297,2.8567,2.8084,2.7745,2.5528,2.4514,2.5096,2.1964,2.0593,2.1531,2.0445,1.9023,1.7274,1.7501,1.7455,1.7027,1.7172,1.7172,1.7123,1.7306,1.748,1.7627,1.7891,1.8031,1.8162,1.7654,1.7575,1.7639,1.651,1.6025,1.5773,1.5113,1.456,1.3999,0.0,0.0,0.0,0.0,0.0,0.0,0.0,0.0,0.0,0.0,0.0,0.0,0.0,0.0,0.0,0.0,0.0,0.0,0.0,0.0,0.0,0.0,0.0,0.0,2.2802,2.2686,2.2495,2.2161,2.1416,2.0543,1.957,1.7545,1.7298,1.8617,2.0395,0.0,0.0,0.0,2.585,2.6576,2.7294,0.0,0.0,0.0,0.0,0.0,0.0,0.0,0.0,1.769,1.799,1.8864,1.894,0.0,0.0,0.0,0.0,0.0,2.6068,2.808,2.9722,2.9554,2.8938,2.8219,2.7657,2.5975,2.442,2.3884,2.4036,2.4075,2.3455,2.3657,2.3632,2.267,2.1463,2.1388,2.3629,2.5689,2.7685,2.9549,2.9821,2.9799,2.9656,2.86,2.7941,2.7977,2.5884,2.5078,2.6132,2.3334,2.2158,2.3191,2.1882,2.0715,1.9803,2.0342,2.0224,1.9424,1.9424,1.9,1.8155,1.8225,1.7999,1.7585,1.8359,1.8733,1.8765,1.9004,1.9193,1.9123,1.7825,1.7035,1.6497,1.5326,1.4689,1.434,0.0,0.0,0.0,0.0,0.0,0.0,0.0,0.0,0.0,0.0,0.0,0.0,0.0,0.0,0.0,0.0,0.0,0.0,0.0,0.0,0.0,0.0,0.0,2.2282,2.3249,2.2686,2.2055,2.1456,2.1706,2.1073,1.957,1.8232,1.7499,1.7423,1.8778,2.1086,2.3969,2.4581,2.5521,2.6624,2.7174,0.0,0.0,0.0,0.0,0.0,0.0,0.0,0.0,1.7768,1.7501,1.7747,1.8271,0.0,0.0,0.0,0.0,0.0,2.466,2.6445,2.7943,2.8858,2.8907,2.8446,2.7404,2.6639,2.5922,2.5096,2.4997,2.5369,2.6388,2.5318,2.4378,2.4824,2.3071,2.2339,2.4343,2.5504,2.6312,2.6846,2.8002,2.8429,2.764,2.7387,2.7322,2.7412,2.5983,2.5259,2.5706,2.4609,2.4058,2.4164,2.3861,2.3314,2.2531,2.1215,2.0515,2.0375,2.0375,2.03,2.016,2.0171,1.9749,1.8975,1.9128,1.934,1.9478,1.8572,1.8583,1.905,1.8203,1.7358,1.6696,1.6919,1.6462,1.5657,0.0,0.0,0.0,0.0,0.0,0.0,0.0,0.0,0.0,0.0,0.0,0.0,0.0,0.0,0.0,0.0,0.0,0.0,0.0,0.0,0.0,0.0,2.2415,2.2361,2.3016,2.2337,2.1879,2.1689,2.1654,2.1189,2.0333,1.8547,1.7322,1.6654,1.7972,1.9825,2.2165,2.3747,2.4884,2.5663,0.0,0.0,0.0,0.0,0.0,0.0,0.0,0.0,0.0,0.0,1.7091,1.7351,1.7351,0.0,0.0,0.0,0.0,0.0,2.307,2.4576,2.6015,2.783,2.8443,2.8481,2.811,2.7461,2.6721,2.6042,2.5966,2.6147,2.6663,2.6277,2.5606,2.4822,2.3147,2.2102,2.2249,2.2868,2.365,2.4644,2.5995,2.6652,2.6178,2.6119,2.5848,2.5131,2.456,2.4443,2.4933,2.4347,2.3957,2.3975,2.3821,2.3262,2.2246,2.174,2.1641,2.1928,2.1641,2.1653,2.1928,2.1491,2.1112,2.0655,2.0204,1.9929,1.9789,1.9212,1.8838,1.8445,1.8154,1.7446,1.6728,1.6689,1.626,1.5653,0.0,0.0,0.0,0.0,0.0,0.0,0.0,0.0,0.0,0.0,0.0,0.0,0.0,0.0,0.0,0.0,0.0,0.0,0.0,0.0,2.3218,2.2847,2.2555,2.2394,2.2375,2.1919,2.1755,2.189,2.1641,2.1304,2.0781,1.8685,1.7289,1.6612,1.7441,1.8936,2.083,2.2644,2.3798,2.4602,0.0,0.0,0.0,0.0,0.0,0.0,0.0,0.0,0.0,0.0,0.0,0.0,0.0,0.0,0.0,1.7679,1.8489,1.9636,2.1408,2.2875,2.4366,2.6512,2.7551,2.8184,2.8695,2.803,2.72,2.699,2.7045,2.7079,2.6956,2.6823,2.6227,2.4583,2.2808,2.1398,2.0713,2.054,2.1038,2.2426,2.3511,2.422,2.4451,2.4535,2.418,2.3096,2.3105,2.3405,2.3979,2.3689,2.3464,2.3354,2.3526,2.2918,2.1493,2.2235,2.2655,2.2749,2.2447,2.2535,2.289,2.2384,2.1939,2.1565,2.091,2.018,1.9375,1.9372,1.8642,1.763,1.7667,1.7203,1.6523,1.6074,1.5693,1.5459,0.0,0.0,0.0,0.0,0.0,0.0,0.0,0.0,0.0,0.0,0.0,0.0,0.0,0.0,0.0,0.0,0.0,0.0,0.0,0.0,2.2903,2.3255,2.2954,2.233,2.142,2.1552,2.1622,2.1634,2.2041,2.1554,2.0221,1.8696,1.792,1.7772,1.7305,1.8443,2.0739,2.0856,2.2011,2.3876,2.4937,0.0,0.0,0.0,0.0,0.0,0.0,0.0,0.0,0.0,0.0,0.0,0.0,0.0,1.668,1.7175,1.7693,1.8432,1.981,2.1608,2.3405,2.4759,2.606,2.7323,2.8529,2.7967,2.7415,2.8112,2.8263,2.8389,2.8738,2.7016,2.541,2.5091,2.245,2.0802,2.1913,2.0147,1.9064,1.9889,2.0205,2.0795,2.1838,2.237,2.258,2.2487,2.2481,2.2555,2.2821,2.3325,2.3314,2.2705,2.3801,2.3485,2.1549,2.2844,2.2884,2.1606,2.2083,2.2334,2.2385,2.284,2.2187,2.0719,2.0655,1.9613,1.7936,1.7704,1.7193,1.6623,1.6715,1.6537,1.6064,1.5615,1.5439,1.542,0.0,0.0,0.0,0.0,0.0,0.0,0.0,0.0,0.0,0.0,0.0,0.0,0.0,0.0,0.0,0.0,0.0,0.0,0.0,0.0,2.2677,2.2678,2.2976,2.2813,2.207,2.2003,2.2014,2.2099,2.1711,2.1102,2.0343,1.9058,1.848,1.8473,1.7551,1.7623,1.8443,1.9329,2.0138,2.0968,2.3132,2.4487,0.0,0.0,0.0,0.0,0.0,0.0,0.0,0.0,1.9045,1.8555,0.0,1.7146,1.6951,1.6837,1.7175,1.7799,1.8943,2.0407,2.2036,2.3916,2.4641,2.5423,2.7363,2.7037,2.6372,2.6556,2.6619,2.674,2.6981,2.6766,2.6123,2.4775,2.2537,2.0925,2.068,1.8804,1.7779,1.8547,1.8797,1.9334,2.0458,2.0759,2.0827,2.0734,2.1098,2.1402,2.144,2.2054,2.2116,2.1484,2.2287,2.1954,2.0439,2.1366,2.1366,2.0451,2.1825,2.2398,2.2322,2.2523,2.2005,2.095,2.0381,1.9192,1.7494,1.6847,1.6286,1.5846,1.589,1.5811,1.5635,1.5469,1.541,1.541,0.0,0.0,0.0,0.0,0.0,0.0,0.0,0.0,0.0,0.0,0.0,0.0,0.0,0.0,0.0,0.0,0.0,0.0,0.0,0.0,2.2261,2.2293,2.282,2.304,2.3011,2.2902,2.2782,2.2608,2.1536,2.072,2.0191,1.9403,1.8924,1.8634,1.7605,1.7137,1.7111,1.7823,1.8302,1.8858,2.1418,2.2995,0.0,0.0,0.0,0.0,0.0,0.0,0.0,0.0,2.0119,0.0,0.0,0.0,0.0,1.6857,1.6793,1.7074,1.8268,1.9497,2.0938,2.2989,2.3692,2.4319,2.5974,2.5906,2.5578,2.5843,2.5631,2.5397,2.534,2.5554,2.5309,2.3855,2.2122,2.0558,1.9556,1.7665,1.6642,1.7384,1.7409,1.7823,1.8986,1.9398,1.9537,1.9435,2.0035,2.0483,2.0707,2.0954,2.094,2.055,2.1083,2.0777,1.956,2.0733,2.0823,1.9811,2.1524,2.2148,2.1794,2.197,2.1501,2.0534,1.992,1.8665,1.6935,1.6357,1.5811,1.541,1.541,1.541,1.541,1.541,1.541,1.541,0.0,0.0,0.0,0.0,0.0,0.0,0.0,0.0,0.0,0.0,0.0,0.0,0.0,0.0,0.0,0.0,0.0,0.0,0.0,2.1569,2.161,2.2269,2.2355,2.2919,2.4055,2.4229,2.3897,2.3084,2.1661,2.0534,1.9615,1.9711,1.9236,1.8188,1.7367,1.7099,1.7205,1.6252,1.6658,1.8013,1.9731,2.1,2.2164,0.0,0.0,0.0,0.0,0.0,0.0,0.0,2.1252,2.0138,0.0,0.0,0.0,1.7276,1.655,1.6051,1.7664,1.898,2.0241,2.1786,2.3241,2.4309,2.4458,2.4702,2.5242,2.641,2.5743,2.4822,2.4349,2.3243,2.2397,2.2381,2.0954,1.9642,1.8895,1.6892,1.5677,1.6221,1.5828,1.5954,1.7175,1.8263,1.8893,1.8893,1.9369,1.9974,2.0624,2.0162,1.9888,1.9874,2.0509,2.0254,1.902,2.1444,2.1676,1.9798,2.1159,2.1407,2.0743,2.123,2.064,1.9101,1.9101,1.7942,1.6115,1.6115,1.5801,1.541,1.541,1.541,1.541,1.541,1.541,1.541,0.0,0.0,0.0,0.0,0.0,0.0,0.0,0.0,0.0,0.0,0.0,0.0,0.0,0.0,0.0,0.0,0.0,0.0,0.0,2.1569,2.1394,2.1595,2.1861,2.2405,2.3309,2.3884,2.3678,2.2673,2.1026,2.0262,2.0356,1.9526,1.9006,1.8692,1.7118,1.607,1.5329,1.4357,1.4284,1.4938,1.5756,1.7038,1.8791,0.0,0.0,0.0,0.0,0.0,0.0,0.0,0.0,0.0,0.0,0.0,0.0,1.8432,1.7365,1.6534,1.7783,1.8284,1.8985,2.0927,2.2387,2.3485,2.4136,2.4208,2.4064,2.3927,2.3627,2.3129,2.2334,2.2059,2.1613,2.0665,1.9529,1.8712,1.8468,1.6429,1.5153,1.5747,1.4903,1.4914,1.6519,1.6957,1.745,1.8302,1.8496,1.8659,1.8857,1.8769,1.8706,1.8709,1.8904,1.8798,1.8442,1.9179,1.9448,1.9258,1.9623,2.0156,2.0731,2.084,2.0385,1.941,1.8896,1.781,1.6355,1.5831,1.5527,1.541,1.541,1.541,1.541,1.541,1.541,1.541,0.0,0.0,0.0,0.0,0.0,0.0,0.0,0.0,0.0,0.0,0.0,0.0,0.0,0.0,0.0,0.0,0.0,0.0,0.0,0.0,2.1007,2.1286,2.1255,2.1676,2.2737,2.3041,2.2949,2.247,2.1323,2.0448,1.9848,1.9609,1.8934,1.7886,1.6739,1.562,1.4548,1.3351,1.2961,1.3202,1.3603,1.4521,1.5808,0.0,0.0,0.0,0.0,0.0,0.0,0.0,0.0,0.0,0.0,0.0,0.0,1.9214,1.7889,1.673,1.7822,1.8196,1.8682,2.0495,2.1932,2.3074,2.3787,2.3614,2.3082,2.2212,2.173,2.1234,2.0472,2.0121,1.9666,1.8857,1.8028,1.7544,1.7544,1.5888,1.4926,1.5543,1.4538,1.4307,1.5608,1.612,1.6676,1.7382,1.7854,1.8106,1.8106,1.7947,1.7853,1.7853,1.7881,1.7877,1.7877,1.8091,1.8367,1.8694,1.8694,1.9158,2.0024,2.0225,1.9929,1.9202,1.8149,1.7077,1.6036,1.5575,1.541,1.541,1.541,1.541,1.541,1.541,1.541,1.541,0.0,0.0,0.0,0.0,0.0,0.0,0.0,0.0,0.0,0.0,0.0,0.0,0.0,0.0,0.0,0.0,0.0,0.0,0.0,0.0,2.0627,2.1248,2.0743,2.102,2.2289,2.2031,2.2037,2.2427,2.2136,2.0907,1.8838,1.9863,1.8936,1.6428,1.6291,1.5614,1.4536,1.3082,1.2391,1.2366,1.276,1.2868,1.3045,1.5279,0.0,0.0,0.0,0.0,0.0,0.0,0.0,0.0,2.1836,2.0756,1.9672,1.9779,1.8382,1.6975,1.7965,1.8513,1.9082,2.0333,2.1748,2.2964,2.3267,2.2893,2.2204,2.1133,2.0215,1.9405,1.8788,1.7853,1.7096,1.7014,1.6566,1.6262,1.6262,1.5309,1.4835,1.5365,1.4411,1.3956,1.456,1.5564,1.6207,1.625,1.7218,1.78,1.7894,1.7409,1.7188,1.7229,1.7275,1.73,1.73,1.7802,1.8078,1.8129,1.8129,1.8442,1.8995,1.9459,1.93,1.8537,1.718,1.6208,1.5468,1.541,1.541,1.541,1.541,1.541,1.541,1.541,1.541,1.541,0.0,0.0,0.0,0.0,0.0,0.0,0.0,0.0,0.0,0.0,0.0,0.0,0.0,0.0,0.0,0.0,0.0,0.0,0.0,0.0,2.0893,2.1051,2.1197,2.139,2.1682,2.2185,2.2501,2.2643,2.1702,2.0974,2.0461,2.0015,1.8941,1.7406,1.62,1.5051,1.392,1.2548,1.1648,1.115,1.0701,1.0187,0.9902,1.1844,1.2852,0.0,0.0,0.0,0.0,0.0,0.0,0.0,2.2405,2.2033,2.1504,2.1566,2.0241,1.8842,1.9197,1.9004,1.8955,1.9927,2.1429,2.2581,2.2237,2.1938,2.1464,2.0572,1.9978,1.9067,1.7274,1.6747,1.628,1.5374,1.5129,1.505,1.505,1.4457,1.405,1.4179,1.3552,1.3334,1.392,1.4226,1.4538,1.505,1.5297,1.5652,1.6089,1.6015,1.6157,1.668,1.6678,1.671,1.671,1.6823,1.7099,1.7564,1.7564,1.8078,1.897,1.8694,1.8363,1.8069,1.7574,1.6922,1.6208,1.5642,1.541,1.541,1.541,1.541,1.541,1.541,1.541,1.541,0.0,0.0,0.0,0.0,0.0,0.0,0.0,0.0,0.0,0.0,0.0,0.0,0.0,0.0,0.0,0.0,0.0,0.0,0.0,0.0,0.0,0.0,2.083,2.1038,2.1258,2.1802,2.2101,2.2186,2.2108,2.172,2.1035,2.0719,1.979,1.8316,1.713,1.5856,1.4494,1.2946,1.1895,1.1216,1.0568,0.9843,0.9311,1.0327,1.1019,1.1625,1.3215,0.0,0.0,0.0,0.0,0.0,0.0,0.0,2.1635,2.2012,2.0849,1.9531,1.9991,1.9615,1.934,2.0448,2.1431,2.2101,2.1972,2.1582,2.099,2.0023,1.933,1.8387,1.6705,1.5959,1.5297,1.4422,1.4283,1.4283,1.4283,1.4003,1.3815,1.3815,1.3286,1.3017,1.3334,1.3637,1.3909,1.4236,1.4514,1.4835,1.5141,1.5454,1.572,1.6051,1.6337,1.6522,1.6522,1.6522,1.6672,1.6974,1.6974,1.7275,1.7852,1.8618,1.8695,1.827,1.7793,1.7191,1.6436,1.569,1.5293,1.5127,1.5332,1.5156,1.4853,1.5264,1.5283,1.5137,0.0,0.0,0.0,0.0,0.0,0.0,0.0,0.0,0.0,0.0,0.0,0.0,0.0,0.0,0.0,0.0,0.0,0.0,0.0,0.0,0.0,0.0,2.0416,2.0583,2.0991,2.1334,2.1576,2.1702,2.2669,2.261,2.154,2.1658,2.0882,1.9358,1.8375,1.7129,1.5644,1.385,1.2667,1.1904,1.1258,1.0509,0.9799,0.9814,1.0041,1.0444,1.1012,1.2632,1.4658,1.5794,0.0,0.0,0.0,0.0,2.0974,2.194,2.1255,2.031,2.0778,2.0411,2.0122,2.1226,2.1502,2.1535,2.1736,2.1319,2.0552,1.9415,1.8589,1.7679,1.6336,1.5353,1.4468,1.3779,1.3637,1.3637,1.3637,1.3637,1.3637,1.3637,1.319,1.2881,1.2881,1.3324,1.3637,1.3637,1.4107,1.4479,1.4709,1.5186,1.5543,1.5764,1.6238,1.6522,1.6522,1.6522,1.6522,1.6522,1.6622,1.6672,1.6735,1.8744,1.9187,1.8401,1.7989,1.7313,1.6479,1.5891,1.5328,1.4992,1.5417,1.514,1.4597,1.5318,1.5357,1.511,0.0,0.0,0.0,0.0,0.0,0.0,0.0,0.0,0.0,0.0,0.0,0.0,0.0,0.0,0.0,0.0,0.0,0.0,1.8563,0.0,0.0,2.0862,2.0894,2.0926,2.0991,2.1399,2.1728,2.204,2.2701,2.314,2.332,2.2435,2.1661,2.0912,1.9241,1.7882,1.6788,1.5068,1.3721,1.2628,1.1953,1.0881,0.9695,0.9799,0.9429,0.9037,0.9776,1.0897,1.2158,1.3296,1.5055,0.0,0.0,0.0,2.0335,2.2225,2.2885,2.2802,2.2096,2.1591,2.1275,2.145,2.1289,2.0991,2.0618,2.0467,2.0008,1.8569,1.8171,1.7464,1.5297,1.4789,1.434,1.32,1.3017,1.3017,1.3017,1.3017,1.3017,1.3017,1.2978,1.2881,1.2881,1.2968,1.3017,1.3017,1.3113,1.3621,1.4652,1.4789,1.5287,1.6337,1.6479,1.6522,1.6522,1.6522,1.6522,1.6522,1.7024,1.7262,1.7313,1.8555,1.8437,1.7369,1.8218,1.7871,1.6719,1.6483,1.6053,1.5636,1.6146,1.6296,1.6202,1.6327,1.6337,1.6182,0.0,0.0,0.0,0.0,0.0,0.0,0.0,0.0,0.0,0.0,0.0,0.0,0.0,0.0,0.0,1.8029,1.8189,1.8232,1.813,1.8552,1.9259,2.0184,2.0436,2.0684,2.0991,2.1154,2.1317,2.154,2.2442,2.2745,2.246,2.2749,2.2436,2.1566,2.0151,1.8625,1.7072,1.5676,1.4426,1.3321,1.2677,1.1814,1.0872,1.0906,1.0246,0.9377,0.9703,1.0128,1.0664,1.1509,1.2878,1.4399,1.562,0.0,0.0,0.0,2.1804,2.3072,2.2606,2.2398,2.2271,2.2271,2.1967,2.1576,2.1379,2.1007,2.0418,1.9474,1.8896,1.7866,1.5608,1.4926,1.4433,1.3563,1.3104,1.2881,1.2881,1.2881,1.2881,1.2881,1.2881,1.2881,1.2881,1.2881,1.2881,1.2881,1.319,1.3647,1.4143,1.4824,1.5454,1.5964,1.6337,1.6522,1.6522,1.6522,1.6522,1.6522,1.6773,1.6898,1.6923,1.7739,1.8149,1.8179,1.855,1.8372,1.7779,1.6971,1.6569,1.646,1.6613,1.6591,1.6481,1.695,1.6972,1.6688,0.0,0.0,0.0,0.0,0.0,0.0,0.0,0.0,0.0,0.0,0.0,0.0,0.0,0.0,0.0,0.0,1.721,1.7392,1.7262,1.7114,1.7519,1.8717,1.9144,1.9671,2.0356,2.058,2.0837,2.1053,2.205,2.2258,2.1705,2.2736,2.2668,2.1617,2.0623,1.9146,1.7303,1.6028,1.4868,1.375,1.315,1.2559,1.208,1.1864,1.1065,1.0012,0.9865,0.971,0.9607,0.9864,1.0647,1.1677,1.2483,1.3861,0.0,0.0,0.0,2.2468,2.2829,2.305,2.3169,2.3169,2.2755,2.2275,2.2135,2.1606,2.0911,2.0187,1.9519,1.8493,1.6579,1.5608,1.4915,1.4143,1.3515,1.3152,1.3152,1.3017,1.2881,1.2881,1.2881,1.2881,1.2881,1.2881,1.2881,1.2881,1.3467,1.3873,1.4003,1.505,1.5676,1.582,1.6281,1.6522,1.6522,1.6522,1.6522,1.6522,1.6522,1.6522,1.6534,1.7112,1.7903,1.8795,1.8788,1.8682,1.8436,1.7473,1.7035,1.7048,1.7058,1.694,1.6887,1.7588,1.7668,1.7364,0.0,0.0,0.0,0.0,0.0,0.0,0.0,0.0,0.0,0.0,0.0,0.0,0.0,1.5329,1.554,1.5675,1.6105,1.6126,1.5557,1.4925,1.5145,1.6405,1.6808,0.0,1.8708,1.9657,2.0433,2.1009,2.157,2.1954,2.2154,2.2439,2.2016,2.102,2.0431,1.9345,1.7763,1.6166,1.4894,1.3828,1.3172,1.2881,1.2774,1.208,1.1366,1.0661,1.0012,0.9413,0.8752,0.8096,0.833,0.8899,0.9061,0.9764,1.1087,0.0,0.0,0.0,2.2874,2.3591,2.3931,2.3931,2.3397,2.2726,2.2211,2.1778,2.1115,1.9908,1.9606,1.9244,1.8171,1.7053,1.5959,1.4824,1.4143,1.3732,1.3732,1.3238,1.2881,1.2881,1.2881,1.2881,1.2881,1.2881,1.2881,1.2881,1.3467,1.405,1.4606,1.5276,1.5864,1.6423,1.6466,1.6522,1.6522,1.6522,1.6522,1.6522,1.6522,1.6522,1.6534,1.7112,1.7702,1.8279,1.8783,1.8583,1.7926,1.7891,1.7544,1.7142,1.7639,1.7816,1.7914,1.846,1.865,1.8519,0.0,0.0,0.0,0.0,0.0,0.0,0.0,0.0,0.0,0.0,0.0,0.0,0.0,1.3142,1.3413,1.4021,1.3794,1.3565,1.3483,1.2834,1.2999,1.4122,1.5168,1.6421,1.7932,1.9186,2.0144,2.0727,2.1683,2.167,2.0812,2.1656,2.1403,2.0226,2.0223,1.9206,1.7441,1.6065,1.4882,1.3839,1.3162,1.2608,1.2187,1.1913,1.1116,1.0056,0.937,0.8659,0.8049,0.7645,0.7461,0.7309,0.703,0.8028,1.0045,1.3939,1.7246,2.0046,2.1757,2.3182,2.4241,2.4449,2.4152,2.3707,2.339,2.2688,2.191,2.1327,2.0847,2.0215,1.9244,1.7585,1.6262,1.5872,1.4994,1.4376,1.4376,1.4201,1.4071,1.4071,1.3695,1.3457,1.3457,1.3152,1.3065,1.3467,1.4061,1.4652,1.5231,1.5876,1.6281,1.6466,1.6522,1.6522,1.6522,1.6522,1.6522,1.6522,1.6522,1.6522,1.6522,1.6735,1.7338,1.8191,1.8041,1.8398,1.9078,1.8351,1.8167,1.829,1.813,1.829,1.8658,1.9226,1.9423,1.9307,0.0,0.0,0.0,0.0,0.0,0.0,0.0,0.0,0.0,0.0,0.0,0.0,0.0,0.0,1.1838,1.2419,1.1803,1.1483,1.1733,1.1123,1.1167,1.2024,1.3257,1.4681,1.6204,1.8108,1.9301,0.0,0.0,2.1147,2.0135,2.124,2.1043,1.972,1.9932,1.8899,1.6932,1.5536,1.4433,1.3553,1.2835,1.2236,1.1765,1.129,1.0383,0.9347,0.8878,0.8226,0.756,0.7231,0.6565,0.5801,0.5507,0.6761,0.8903,1.1779,1.4643,1.7309,1.9343,2.1361,2.308,2.3877,2.4182,2.4239,2.4063,2.3458,2.284,2.2462,2.1848,2.1117,2.0389,1.872,1.7383,1.7053,1.6034,1.5264,1.5264,1.496,1.4698,1.4698,1.4329,1.4097,1.4097,1.3742,1.3647,1.405,1.4652,1.5186,1.5588,1.6194,1.6522,1.6522,1.6522,1.6522,1.6522,1.6522,1.6522,1.6522,1.6522,1.6522,1.6522,1.6522,1.7036,1.7903,1.7539,1.8304,1.9723,1.8643,1.8417,1.8731,1.8555,1.8593,1.8832,1.9547,1.9798,1.9747,0.0,0.0,0.0,0.0,0.0,0.0,0.0,0.0,0.0,0.0,0.0,0.0,0.0,0.0,0.0,1.0846,1.022,1.0022,1.0431,0.9812,0.9657,1.0124,1.1123,1.2252,1.3533,1.6306,1.793,0.0,0.0,0.0,0.0,0.0,2.0906,1.9574,1.9634,1.8484,1.6417,1.4641,1.3571,1.2953,1.213,1.1805,1.1607,1.0199,0.9283,0.8672,0.865,0.8101,0.7286,0.6713,0.5541,0.4375,0.4429,0.5772,0.7348,0.7357,0.977,1.3001,0.0,0.0,0.0,2.2054,2.3355,2.4185,2.4026,2.4025,2.3835,2.3102,2.2539,2.204,2.1602,2.0506,1.9339,1.8327,1.7218,1.6476,1.6476,1.5475,1.4789,1.4789,1.4744,1.4744,1.4744,1.4698,1.4698,1.4744,1.5276,1.5632,1.5632,1.6194,1.6522,1.6522,1.6522,1.6522,1.6522,1.6522,1.6522,1.6522,1.6522,1.6522,1.6522,1.6522,1.6835,1.7388,1.7363,1.8267,1.9673,1.8618,1.8191,1.8254,1.8781,1.8668,1.8329,1.9397,1.9786,1.9798,0.0,0.0,0.0,0.0,0.0,0.0,0.0,0.0,0.0,0.0,0.0,0.0,0.0,0.0,0.7756,0.6963,0.758,0.837,0.9126,0.8393,0.8194,0.8849,0.9829,1.0889,1.2033,1.4779,1.6874,0.0,0.0,0.0,0.0,0.0,0.0,2.1373,1.9516,1.8022,1.6814,1.5144,1.3871,1.292,1.2171,1.1535,1.0906,0.9504,0.858,0.7848,0.6966,0.6544,0.6178,0.5381,0.4045,0.2793,0.2826,0.395,0.5508,0.6544,0.748,0.8636,1.036,0.0,0.0,0.0,0.0,0.0,2.3546,2.4432,2.482,2.3888,2.388,2.3605,2.2203,2.1645,2.1036,1.9873,1.8541,1.7639,1.7639,1.7341,1.7011,1.6604,1.6219,1.5784,1.541,1.4971,1.488,1.532,1.5499,1.5776,1.6238,1.6423,1.6522,1.6522,1.6522,1.6522,1.6522,1.6522,1.6522,1.6522,1.6522,1.6522,1.6522,1.6522,1.6835,1.7363,1.6936,1.7476,1.8593,1.789,1.784,1.8179,1.794,1.799,1.8292,1.8982,1.9484,1.9798,0.0,0.0,0.0,0.0,0.0,0.0,0.0,0.0,0.0,0.0,0.0,0.0,0.0,0.0,0.0,0.5199,0.53,0.6008,0.7566,0.7422,0.7388,0.7656,0.8723,0.9482,0.988,1.2686,1.4826,0.0,0.0,0.0,0.0,0.0,0.0,0.0,1.964,1.8268,1.6996,1.5609,1.4496,1.3576,1.2371,1.1608,1.0981,0.8971,0.7847,0.7052,0.5779,0.4919,0.4173,0.2986,0.2051,0.1283,0.129,0.1886,0.2773,0.3627,0.4267,0.493,0.5756,0.9177,1.3043,1.5442,0.0,0.0,2.2128,2.3619,2.4649,2.4468,2.445,2.4136,2.3088,2.2479,2.1881,2.1163,2.0085,1.9082,1.8521,1.8263,1.7987,1.7666,1.712,1.6659,1.6361,1.5776,1.5599,1.5964,1.5964,1.6151,1.6466,1.6522,1.6522,1.6522,1.6522,1.6522,1.6522,1.6522,1.6522,1.6522,1.6522,1.6522,1.6522,1.6522,1.6697,1.6999,1.666,1.7024,1.7815,1.725,1.735,1.7852,1.7765,1.7928,1.8267,1.8819,1.9359,1.9798,0.0,0.0,0.0,0.0,0.0,0.0,0.0,0.0,0.0,0.0,0.0,0.0,0.0,0.0,0.0,0.0,0.356,0.381,0.6047,0.6808,0.0,0.6632,0.79,0.8258,0.7505,1.0238,1.2222,1.3274,0.0,0.0,0.0,0.0,0.0,0.0,0.0,1.8697,1.7018,1.6067,1.5346,1.47,1.2849,1.1978,1.1545,0.8833,0.7405,0.6608,0.5034,0.3635,0.2175,0.0545,-0.0,-0.0,-0.0,-0.0,-0.0,-0.0,0.0942,0.1977,0.1978,0.3586,0.6293,1.0677,1.4446,0.0,2.0035,2.205,2.3731,2.4712,2.4548,2.4174,2.4025,2.3065,2.2245,2.2107,2.1562,2.0618,1.9236,1.8636,1.8327,1.8224,1.7787,1.7422,1.7312,1.6909,1.6637,1.6522,1.6552,1.662,1.6696,1.6696,1.6653,1.6609,1.6609,1.6584,1.6522,1.6522,1.6522,1.6522,1.6522,1.6522,1.6522,1.6522,1.6522,1.6522,1.6522,1.681,1.725,1.6735,1.6861,1.7426,1.7852,1.8053,1.8179,1.8731,1.9271,1.9723,1.9408,0.0,0.0,0.0,0.0,0.0,0.0,0.0,0.0,0.0,0.0,0.0,0.0,0.0,0.0,0.0,0.347,0.4513,0.5869,0.6426,0.0,0.6588,0.7444,0.7551,0.6794,0.8436,1.0188,1.1977,0.0,0.0,0.0,0.0,0.0,0.0,0.0,1.7721,1.6817,1.6305,1.6217,1.6255,1.4144,1.3008,1.2347,1.007,0.8826,0.7972,0.5389,0.4311,0.3614,0.0943,-0.0,-0.0,-0.0,-0.0,-0.0,-0.0,0.0224,0.0446,0.0443,0.0759,0.1945,0.5268,0.8936,0.0,1.7441,2.0557,2.2851,2.4178,2.5048,2.5284,2.4211,2.3666,2.3124,2.2245,2.1984,2.1453,2.0215,1.9954,1.9585,1.8841,1.865,1.8263,1.7394,1.7585,1.7422,1.6552,1.6909,1.7369,1.7852,1.7878,1.7674,1.7257,1.7212,1.6986,1.6479,1.6522,1.6522,1.6522,1.6522,1.6522,1.6522,1.6522,1.6522,1.6522,1.6522,1.6584,1.6672,1.6559,1.6861,1.735,1.6986,1.7137,1.7614,1.8166,1.8706,1.9246,1.7393,0.0,0.0,0.0,0.0,0.0,0.0,0.0,0.0,0.0,0.0,0.0,0.9096,0.6628,0.4893,0.0,0.0,0.0,0.0,0.0,0.6966,0.6588,0.6966,0.6799,0.6091,0.6737,0.7902,0.956,0.0,0.0,0.0,0.0,0.0,0.0,0.0,1.7311,1.7258,1.6557,1.641,1.6535,1.4814,1.3922,1.3434,1.1398,0.984,0.8482,0.6703,0.5365,0.427,0.2913,0.1335,-0.0,-0.0,-0.0,-0.0,-0.0,0.1065,0.2244,0.224,0.2221,0.2737,0.4725,0.7218,0.0,0.0,1.7647,2.0333,2.2475,2.3724,2.4318,2.3832,2.3472,2.3111,2.2712,2.2395,2.1948,2.1287,2.0968,2.0543,1.9893,1.9866,1.9555,1.8684,1.8602,1.8221,1.7366,1.7853,1.8329,1.8627,1.8952,1.8852,1.8287,1.797,1.7555,1.6948,1.666,1.6522,1.6522,1.6522,1.6522,1.6522,1.6522,1.6522,1.6522,1.6522,1.6522,1.6522,1.6522,1.6685,1.6923,1.6635,1.6873,1.7451,1.8003,1.8555,1.9058,1.495,0.0,0.0,0.0,0.0,0.0,0.0,0.0,0.0,0.0,0.0,1.1373,1.1619,0.893,0.7141,0.7086,0.7141,0.0,0.6632,0.7289,0.7343,0.6642,0.675,0.6475,0.5706,0.5597,0.6103,0.7302,0.0,0.0,0.0,0.0,0.0,0.0,1.7376,1.7397,1.7377,1.6753,1.6586,1.6612,1.551,1.4878,1.4507,1.2862,1.1079,0.9334,0.8239,0.6474,0.4732,0.4791,0.3085,0.0841,0.0518,0.04,0.0448,0.0448,0.2128,0.411,0.4396,0.4497,0.4702,0.5415,0.6744,0.8643,0.0,0.0,0.0,2.0091,2.1438,2.2237,2.2693,2.2603,2.2565,2.2785,2.2502,2.2215,2.2029,2.1859,2.1548,2.1014,2.0956,2.0786,2.0287,1.9792,1.9293,1.8786,1.9302,1.9683,1.9752,2.0175,2.0108,1.9471,1.8896,1.8258,1.7587,1.6972,1.6595,1.6522,1.6522,1.6522,1.6522,1.6522,1.6522,1.6522,1.6522,1.6522,1.6522,1.6522,1.6522,1.6522,1.6522,1.681,1.73,1.7965,1.848,1.8957,1.1792,1.3123,0.0,0.0,0.0,0.0,0.0,0.0,0.0,1.41,1.3369,1.2788,1.2207,1.0512,0.9059,0.8216,0.7149,0.6514,0.6573,0.7289,0.7343,0.6642,0.7235,0.7235,0.648,0.5814,0.5919,0.6676,0.0,0.0,0.0,0.0,0.0,1.6129,1.837,1.8147,1.6068,1.6861,1.7319,1.7498,1.6895,1.6112,1.5228,1.4473,1.3424,1.2006,0.9482,0.7186,0.532,0.4732,0.4411,0.3974,0.241,0.1959,0.1952,0.1952,0.2176,0.2738,0.4154,0.4497,0.4546,0.4646,0.5399,0.6908,0.9715,0.0,1.3455,1.7027,0.0,1.9381,2.0023,0.0,0.0,2.1475,2.1871,2.2,2.1685,2.267,2.3044,2.2061,2.1526,2.1316,2.1473,2.1111,2.0925,2.11,2.1385,2.1727,2.2073,2.1743,2.125,2.0698,2.0048,1.9241,1.8226,1.7518,1.6951,1.6522,1.6522,1.6522,1.6522,1.6522,1.6522,1.6522,1.6522,1.6522,1.6522,1.6522,1.6522,1.6522,1.6522,1.6559,1.6748,1.7802,1.8242,1.8442,1.2665,1.3193,0.0,0.0,0.0,0.0,0.0,0.0,0.0,1.4246,1.3742,1.3138,1.2146,1.0356,0.8923,0.8234,0.7137,0.6541,0.6583,0.6912,0.6912,0.6588,0.647,0.647,0.6588,0.5496,0.5277,0.0,0.7588,0.0,0.0,0.0,0.0,1.4908,1.7416,1.7746,1.6503,1.7212,1.7698,1.7988,1.797,1.7505,1.6777,1.5922,1.4438,1.2464,0.9688,0.8146,0.7213,0.6202,0.5682,0.5344,0.4703,0.3947,0.3404,0.4097,0.3785,0.3423,0.4483,0.4552,0.4351,0.4345,0.4732,0.5579,0.7592,0.9276,1.1141,1.3769,0.0,0.0,0.0,0.0,0.0,0.0,2.1203,2.182,2.2953,2.3438,2.3439,2.2756,2.3581,2.4074,2.3833,2.3288,2.2825,2.2524,2.3335,2.377,2.3507,2.3628,2.3156,2.1859,2.1262,2.0214,1.8669,1.8085,1.7504,1.6951,1.6951,1.6795,1.6522,1.6837,1.6951,1.6993,1.7312,1.7229,1.6951,1.6951,1.6795,1.6522,1.6522,1.668,1.7131,1.8662,1.9219,1.9303,1.2727,1.3064,1.4292,0.0,0.0,0.0,0.0,0.0,1.6954,1.5157,1.443,1.3432,1.1814,0.9904,0.855,0.8006,0.7114,0.6647,0.682,0.682,0.6761,0.6598,0.5977,0.5864,0.6411,0.5328,0.5003,0.0,0.0,0.0,0.0,0.0,0.0,0.0,1.5817,1.6924,1.7302,1.7689,1.8143,1.8547,1.8779,1.8534,1.7824,1.6801,1.4914,1.2561,1.0545,0.9334,0.8554,0.768,0.6803,0.6095,0.6249,0.555,0.4869,0.5772,0.5211,0.4445,0.496,0.4632,0.4197,0.4197,0.4328,0.4732,0.6,0.7454,0.904,1.0788,1.2868,0.0,0.0,0.0,1.7733,1.938,0.0,2.1311,2.3523,2.3935,2.3965,2.3811,2.5389,2.6322,2.5832,2.5556,2.504,2.4081,2.5459,2.5918,2.487,2.5378,2.4994,2.3434,2.2555,2.1368,1.9855,1.8967,1.8221,1.772,1.7572,1.7312,1.6951,1.7353,1.7504,1.7544,1.7947,1.7867,1.7504,1.7504,1.7312,1.6964,1.7076,1.7416,1.7896,1.9274,1.9809,2.0037,1.0289,1.2135,1.4491,1.6762,1.7864,0.0,0.0,2.0022,1.9301,1.7079,1.5733,1.3949,1.1213,0.9559,0.8352,0.7688,0.6993,0.682,0.7344,0.735,0.7122,0.6613,0.6136,0.5896,0.5896,0.5642,0.5487,0.5487,0.0,0.0,0.0,0.0,0.0,0.0,1.3766,1.5737,1.8167,1.8315,1.8749,1.9355,1.9386,1.8862,1.7985,1.6831,1.4914,1.2773,1.2715,1.0948,0.8678,0.8639,0.7747,0.6588,0.6593,0.6534,0.6519,0.6578,0.6023,0.5433,0.5318,0.4759,0.4197,0.4197,0.42,0.4446,0.5341,0.5924,0.6756,0.8449,0.9711,1.0772,1.1701,1.3356,1.5161,1.6754,1.8495,0.0,0.0,2.3937,2.4961,2.5461,2.6426,2.7073,2.7055,2.7778,2.7632,2.6112,2.7849,2.8239,2.6506,2.6764,2.6578,2.5727,2.3974,2.2769,2.2205,2.0455,1.9302,1.8754,1.8313,1.8066,1.8066,1.8066,1.8066,1.8066,1.8106,1.8106,1.8066,1.8066,1.8066,1.8082,1.8618,1.8819,1.8884,1.9057,1.9445,2.0081,0.9371,1.0011,1.1796,1.5082,1.7607,1.863,1.6953,1.619,1.4563,1.1019,0.9907,0.9202,0.8601,0.7489,0.6725,0.648,0.5723,0.5301,0.5483,0.4512,0.3889,0.3669,0.3553,0.3935,0.4929,0.4904,0.5136,0.5786,0.5156,0.0,0.0,0.0,0.0,0.0,1.3343,1.564,1.7384,1.9023,2.0129,2.0745,2.0189,1.9031,1.7463,1.6703,1.5672,1.4505,1.3243,1.2211,1.1256,1.0383,0.9769,0.9304,0.8856,0.83,0.7846,0.7825,0.6928,0.5921,0.5808,0.5336,0.4815,0.4299,0.4321,0.4457,0.4776,0.5247,0.5788,0.646,0.7903,0.935,1.0221,1.1908,1.3962,1.6272,1.7363,1.9068,0.0,2.4551,2.6313,2.7324,2.8032,2.8693,2.9419,2.8847,2.8216,2.764,2.8305,2.8577,2.8246,2.8345,2.7895,2.6813,2.4938,2.3504,2.2573,2.121,2.0252,1.9708,1.9566,1.9148,1.8579,1.8933,1.8925,1.865,1.9006,1.8968,1.8612,1.8612,1.8419,1.812,1.8287,1.8602,1.8999,1.9838,2.0258,2.0538,0.7472,0.683,0.7294,1.0242,1.178,1.1974,1.0011,0.9577,0.8315,0.509,0.45,0.4489,0.4793,0.4234,0.4258,0.5305,0.4353,0.3916,0.4445,0.3588,0.2517,0.1452,0.1395,0.1893,0.2888,0.3391,0.3961,0.4563,0.4504,0.4723,0.0,0.0,0.0,0.0,1.2385,1.5168,1.7561,1.9337,2.0755,2.1735,2.0701,1.9331,1.7833,1.7437,1.6464,1.5163,1.4163,1.3385,1.2667,1.1796,1.1208,1.0712,1.0312,0.9743,0.9263,0.8961,0.8049,0.7028,0.6657,0.5945,0.0,0.4711,0.4474,0.4399,0.4505,0.4877,0.5274,0.545,0.6853,0.8246,0.8878,1.0574,1.2669,1.5045,1.6268,1.8202,0.0,2.4486,2.6493,2.8067,2.8742,2.9223,2.9662,2.9429,2.9018,2.8481,2.9356,2.9911,2.988,2.9786,2.9308,2.8334,2.6335,2.4717,2.3566,2.2394,2.1454,2.0701,2.0538,2.0169,1.9596,1.9943,1.9834,1.9434,1.9737,1.9645,1.9169,1.9169,1.8968,1.865,1.865,1.8893,1.9315,2.0359,2.1167,2.1779,0.4614,0.2437,0.0872,0.1817,0.0775,-0.0241,-0.0352,0.0712,0.0947,-0.0712,-0.0527,-0.0211,-0.0146,-0.0212,0.1042,0.4206,0.3181,0.2901,0.4169,0.4284,0.2977,0.0112,-0.0,-0.0,-0.0,0.1381,0.2131,0.2174,0.3691,0.4444,0.0,0.0,0.0,0.0,1.0949,1.4371,1.8572,1.929,2.0679,2.2289,2.0894,1.9763,1.8873,1.8916,1.7222,1.4995,1.5453,1.4459,1.2908,1.287,1.1984,1.0965,1.0864,1.0864,1.0712,1.0064,0.9325,0.8573,0.777,0.6524,0.5397,0.5345,0.4774,0.4294,0.4484,0.477,0.5113,0.5396,0.6403,0.7372,0.7635,0.9384,1.1361,1.3182,1.5163,1.7839,2.1607,2.3603,2.5477,2.748,2.8346,2.8594,2.8074,2.9473,2.9885,2.8615,3.0909,3.2025,3.1366,3.1154,3.08,3.0217,2.8077,2.6366,2.5185,2.3973,2.2806,2.1672,2.129,2.1102,2.107,2.1055,2.0781,2.0366,2.0348,2.0089,1.9726,1.9726,1.9711,1.969,1.969,1.9705,1.9848,2.0615,2.1982,2.3419,0.1658,-0.4515,-1.0603,-1.4482,-0.8446,-0.3933,-0.657,-0.583,-0.682,-1.1919,-1.0685,-0.8624,-0.6725,-0.4487,-0.109,0.4033,0.415,0.3132,0.1285,0.1176,0.0784,0.0056,-0.0,-0.0,-0.0,0.0395,0.1127,0.2174,0.2589,0.3649,0.5273,0.0,0.0,0.0,1.154,1.4559,1.7512,1.994,2.1591,2.2462,2.1271,1.9973,1.8743,1.8877,1.7988,1.6598,1.6317,1.564,1.4744,1.3841,1.3321,1.2841,1.1855,1.1566,1.1408,1.0762,1.0056,0.9363,0.8599,0.7757,0.6818,0.5743,0.5313,0.5058,0.0,0.0,0.4495,0.4703,0.5774,0.6889,0.7827,0.9097,1.0767,1.2947,1.5089,1.7219,1.9344,2.1103,2.2615,2.3705,2.5144,2.6975,2.9372,2.8505,2.8094,2.8828,2.9656,3.0577,3.1611,3.2752,3.2823,3.1709,2.9706,2.7834,2.615,2.4985,2.3868,2.2805,2.2669,2.2496,2.2177,2.1922,2.1589,2.1178,2.0927,2.055,2.0158,2.0158,1.9965,1.969,1.969,1.9989,2.046,2.0673,2.1352,2.2248,-0.1535,-0.917,-1.6835,-2.2376,-1.7927,-1.4205,-1.6026,-1.5465,-1.5593,-1.767,-1.6209,-1.3374,-0.9088,-0.544,-0.1203,0.4033,0.449,0.3469,0.1115,0.0949,0.095,0.095,0.0336,0.028,0.095,0.1647,0.2046,0.2174,0.2989,0.4128,0.5719,0.0,0.0,0.0,1.1677,1.4609,1.7449,2.0935,2.2253,2.2022,2.144,2.0495,0.0,1.9301,1.8541,1.7497,1.7166,1.6584,1.5784,1.4903,1.4268,1.3726,1.2926,1.2522,1.2168,1.1463,1.0965,1.0458,0.9474,0.8646,0.7859,0.6735,0.6199,0.5819,0.5113,0.4826,0.4735,0.4553,0.5304,0.6303,0.7247,0.8575,1.0302,1.2597,1.4416,1.5858,1.6746,1.8303,1.9715,2.0751,2.2427,2.4374,2.6708,2.6692,2.7264,2.8953,2.9587,3.0834,3.2941,3.3583,3.3387,3.2405,3.0396,2.8443,2.653,2.5412,2.4284,2.3189,2.3189,2.3076,2.2853,2.2669,2.2283,2.1749,2.1546,2.1133,2.0583,2.0382,2.0158,1.9929,1.9782,1.9929,2.0303,2.0602,2.1126,2.1799,-0.6004,-1.2817,-1.9431,-2.4779,-2.5623,-2.5447,-2.5118,-2.4498,-2.2914,-1.9699,-1.8017,-1.4732,-0.8456,-0.4277,-0.0055,0.4477,0.4816,0.4184,0.2781,0.2728,0.2783,0.2783,0.1392,0.1114,0.2171,0.3694,0.3883,0.2527,0.4228,0.542,0.0,0.0,0.0,0.9653,1.1929,1.4866,1.8377,2.1951,2.2749,2.1623,2.158,2.1084,2.0348,1.9854,1.8969,1.7978,1.782,1.712,1.6233,1.5707,1.4879,1.4015,1.3946,1.3542,1.297,1.2252,1.1963,1.1566,1.0364,0.9481,0.8692,0.7978,0.7289,0.6529,0.5814,0.5651,0.5487,0.4897,0.5328,0.5987,0.6678,0.8197,1.0017,1.1995,1.3187,1.3942,1.4127,1.5424,1.6807,1.8095,1.9778,0.0,2.2049,2.4464,2.6753,2.8576,2.9932,3.1689,3.4009,3.377,3.3221,3.2501,3.0559,2.8577,2.6613,2.5555,2.4472,2.3346,2.3346,2.3346,2.3346,2.33,2.2888,2.2245,2.2207,2.1753,2.1023,2.0583,2.0314,2.0193,1.9854,1.969,1.975,2.0363,2.0946,2.156,-1.5499,-1.7869,-1.9969,-2.4848,-2.4901,-2.4248,-2.429,-2.3129,-2.1501,-1.9414,-1.5489,-1.0899,-0.5721,-0.2267,0.1664,0.6495,0.65,0.5977,0.5295,0.5592,0.5832,0.5832,0.4494,0.3214,0.221,0.3708,0.4465,0.4371,0.5587,0.6861,0.0,0.0,0.0,1.1908,1.3501,1.6532,2.0629,2.2459,2.3106,2.2834,2.2248,2.1546,2.0766,1.9807,1.9098,1.8441,1.7436,1.6445,1.5647,1.5499,1.5073,1.4635,1.4552,1.4136,1.3617,1.3501,1.2696,1.1765,1.1516,1.0559,0.9436,0.8692,0.8019,0.7289,0.6583,0.6421,0.6372,0.6263,0.6799,0.7458,0.7833,0.9117,1.026,1.0639,1.1317,1.1939,1.2187,1.3232,1.4193,1.4686,1.6256,1.7768,1.9022,2.2571,2.5178,2.6079,2.884,3.0649,3.1136,3.3216,3.3599,3.1917,3.0791,2.9251,0.0,0.0,2.5205,2.4016,2.4016,2.4016,2.4016,2.3735,2.3392,2.3003,2.2703,2.2169,2.146,2.1055,2.0465,1.9818,1.9726,1.969,1.969,1.9824,1.9944,2.0288,-1.6748,-1.8244,-1.9776,-2.3424,-2.2866,-2.1966,-2.2031,-2.0325,-1.854,-1.7117,-1.291,-0.8143,-0.3241,0.0789,0.4139,0.6761,0.7063,0.6881,0.6298,0.6784,0.6956,0.6598,0.6218,0.5538,0.4518,0.5504,0.6012,0.6019,0.6639,0.7491,0.0,0.0,1.0717,1.2413,1.5468,1.8066,2.036,2.2541,2.3169,2.2709,2.2461,2.1807,2.0927,2.0172,1.9168,1.813,1.7522,1.6655,1.577,1.5529,1.5132,1.4757,1.4744,1.4369,1.3905,1.3818,1.3331,1.2696,1.2012,1.1316,1.0661,0.9982,0.9273,0.8606,0.7853,0.7439,0.7074,0.6696,0.6858,0.7367,0.8064,0.9177,0.9967,0.9967,1.0371,1.0628,1.0424,1.1219,1.1867,1.2095,1.3787,1.5427,1.6602,1.9712,2.2627,2.4945,2.7554,2.9479,3.0404,3.2862,3.346,3.1744,0.0,0.0,2.7476,0.0,2.4935,2.4357,2.4266,2.419,2.419,2.3837,2.3522,2.3165,2.2848,2.2422,2.1899,2.126,2.0599,2.0,1.9782,1.969,1.969,1.969,1.969,1.9869,-1.5103,-1.6658,-1.8588,-2.0611,-1.9812,-1.8861,-1.8889,-1.6883,-1.5197,-1.474,-1.0482,-0.5682,-0.0825,0.3584,0.6469,0.7147,0.7852,0.8035,0.7528,0.7982,0.7988,0.7326,0.7676,0.7628,0.7063,0.7306,0.7373,0.7244,0.7475,0.8032,0.0,0.0,1.1273,1.2804,1.7023,1.9123,1.9688,0.0,2.3048,2.2414,2.2573,2.1961,2.0943,2.0426,1.9173,1.7667,1.7533,1.6851,1.5987,1.555,1.5189,1.4938,1.5073,1.4689,1.4163,1.4158,1.4086,1.3711,1.255,1.2101,1.1855,1.1166,1.0517,0.9835,0.9174,0.8652,0.8112,0.7317,0.709,0.7367,0.8231,0.9034,0.0,0.9579,0.978,0.9746,0.917,0.9735,1.0177,1.0206,1.1913,1.346,1.4408,1.6754,1.9711,2.3201,2.5841,2.7998,2.965,3.1825,3.2632,3.1772,2.9825,2.8502,2.7892,0.0,2.4526,2.4495,2.4303,2.419,2.419,2.3917,2.3588,2.3189,2.2923,2.2546,2.2106,2.1323,2.0715,2.0246,1.9874,1.969,1.969,1.969,1.969,1.9765,-1.2959,-1.4427,-1.5625,-1.5903,-1.5348,-1.4838,-1.4933,-1.3107,-1.224,-1.3697,-0.8512,-0.2978,0.1527,0.514,0.7772,0.9019,0.9973,1.045,1.0399,1.045,1.0195,0.9547,0.9511,0.9179,0.8521,0.7882,0.768,0.7812,0.8282,0.8948,0.9887,0.0,1.2081,1.4068,1.7182,0.0,0.0,2.1959,2.2745,2.265,2.2669,2.2012,2.0927,2.0287,1.9045,1.7608,1.701,1.6383,1.5772,1.5293,1.5357,1.5647,1.6062,1.5496,1.4801,1.5289,1.505,1.4468,1.3815,1.3168,1.2531,1.1855,1.1216,1.058,1.0164,1.0284,1.0218,0.9184,0.8758,0.8678,0.902,0.8991,0.8971,0.9183,0.925,0.9157,0.8891,0.9361,0.9653,0.9376,1.0616,1.1756,1.2389,1.4526,1.6722,1.8943,2.308,2.6011,2.7184,2.9107,3.0708,3.1845,2.9419,2.8341,2.8865,2.6135,2.4685,2.4495,2.4303,2.419,2.419,2.417,2.3795,2.3189,2.3165,2.26,2.1628,2.1181,2.0715,2.0246,1.9874,1.969,1.969,1.969,1.969,1.969,-1.1247,-1.1744,-1.2201,-1.2883,-1.235,-1.1804,-1.1628,-1.0914,-0.9803,-0.8126,-0.4593,-0.084,0.2747,0.5923,0.8247,0.9328,1.0417,1.0976,1.0805,1.1166,1.1116,1.0415,1.0391,1.023,0.9982,0.9658,0.9649,0.9915,0.9876,1.0137,1.0661,0.0,0.0,0.0,0.0,1.6165,1.747,1.9688,2.0809,2.1114,2.1742,2.1423,2.0552,2.0269,1.941,1.8283,1.7981,1.7505,1.6846,1.626,1.5751,1.5385,1.571,1.5544,1.5249,1.5512,1.541,1.5096,1.4514,1.4133,1.3784,1.3178,1.2292,1.1447,1.0932,1.0635,1.0311,0.9881,0.9589,0.9449,0.9525,0.9288,0.9051,0.8991,0.907,0.9084,0.8844,0.9011,0.9112,0.8998,0.9804,1.0813,1.1793,1.3102,1.4967,1.7517,2.2366,2.586,2.7249,2.955,0.0,3.1826,0.0,2.8136,2.8403,2.6097,2.4836,2.467,2.3994,2.386,2.419,2.3484,2.3074,2.2898,2.2898,2.2556,2.1974,2.1291,2.0894,2.0665,1.998,1.969,1.969,1.969,1.969,1.969,-0.9617,-0.9472,-0.9236,-0.9749,-0.9578,-0.9277,-0.9072,-0.8397,-0.6723,-0.3284,-0.0755,0.1676,0.4179,0.6784,0.8706,0.9516,1.0902,1.1679,1.1688,1.1972,1.1922,1.1408,1.1416,1.1325,1.1116,1.1116,1.1192,1.1462,1.0864,1.0657,1.0871,0.0,0.0,0.0,1.2306,1.3555,1.496,1.7192,1.8661,1.9576,2.0496,2.0621,2.0314,2.0314,1.9519,1.8448,1.8627,1.8029,1.7116,1.6801,1.6083,1.5381,1.5784,1.5841,1.5757,1.6036,1.6102,1.5928,1.5186,1.496,1.4835,1.4236,1.332,1.2395,1.1748,1.1293,1.0936,1.0734,1.0348,1.0115,1.0115,0.9842,0.9617,0.9396,0.9546,0.961,0.9389,0.9361,0.9361,0.9361,0.9814,1.0458,1.1323,1.2064,1.3611,1.6372,2.1057,2.4547,2.6319,0.0,0.0,0.0,0.0,0.0,2.8004,2.5718,2.4524,2.4408,2.3366,2.3081,2.3474,2.2801,2.2491,2.2491,2.2642,2.2537,2.2237,2.1477,2.1118,2.0926,2.0174,1.9803,1.969,1.969,1.969,1.969,-0.8094,-0.7714,-0.6861,-0.6082,-0.6761,-0.7458,-0.7404,-0.5058,-0.2501,-0.0308,0.2496,0.4809,0.6026,0.7926,0.9334,0.9939,1.1742,1.3142,1.3721,1.319,1.2852,1.2773,1.2842,1.255,1.1814,1.1765,1.1765,1.1774,1.0772,1.0322,1.0268,0.0,0.9688,1.055,1.088,1.1786,1.3157,1.4819,1.6619,1.8375,1.906,1.9706,2.0314,2.0314,1.9229,1.7787,1.8463,1.7445,1.5918,1.6502,1.6308,1.5935,1.6651,1.6613,1.6423,1.7076,1.7271,1.705,1.5896,1.5588,1.5454,1.4835,1.4236,1.3573,1.27,1.2686,1.2657,1.1913,1.1266,1.0762,1.0762,1.0771,1.0771,1.0762,1.0771,1.0771,1.0762,1.0762,1.0762,1.0762,1.0762,1.0813,1.0813,1.1382,1.2655,1.4955,1.8446,2.1381,2.3534,2.6134,0.0,2.9089,2.7371,0.0,2.7986,2.5023,2.3515,2.3501,2.2351,2.1821,2.184,2.2294,2.2332,2.2041,2.2491,2.2537,2.2254,2.1794,2.1368,2.0959,2.0483,2.007,1.969,1.969,1.969,1.969,-0.2716,-0.3067,-0.3396,-0.3811,-0.3586,-0.3369,-0.3296,-0.213,-0.0406,0.192,0.4845,0.684,0.7136,0.8751,1.0142,1.0909,1.2217,1.3258,1.3758,1.4014,1.4097,1.4122,1.4097,1.4003,1.3784,1.3369,1.3178,1.3178,1.2178,0.0,0.0,0.9328,0.8579,0.817,0.8287,0.8678,0.9465,1.1799,1.3895,1.5889,1.7699,1.8786,1.9353,1.9256,1.8884,1.8418,1.8627,1.8014,1.7131,1.7309,1.6936,1.6442,1.6688,1.6742,1.6796,1.717,1.7312,1.7146,1.6398,1.6194,1.6051,1.5454,1.4975,1.4323,1.3183,1.2665,1.2472,1.255,1.1981,1.1466,1.1466,1.1116,1.0813,1.0813,1.0813,1.0813,1.0813,1.0813,1.0813,1.0813,1.0813,1.0813,1.0813,1.0948,1.1911,1.392,1.7031,2.0483,2.4285,0.0,0.0,0.0,2.7473,0.0,2.6294,2.457,2.3366,2.2677,2.1629,2.1047,2.0924,2.1497,2.157,2.1255,2.1208,2.1326,2.1505,2.1031,2.1078,2.1337,2.0601,2.0212,2.007,1.9818,1.969,1.969,0.1544,0.0506,-0.0553,-0.1157,-0.1149,-0.0763,0.0109,0.0976,0.2451,0.4816,0.6611,0.7861,0.835,0.9557,1.0641,1.1461,1.2468,1.3491,1.4424,1.4606,1.4789,1.5005,1.4835,1.4698,1.4698,1.4329,0.0,1.3815,1.2679,1.157,1.0494,0.9246,0.8214,0.7486,0.7114,0.7198,0.7776,0.993,1.2101,1.4305,1.6258,1.7812,1.8887,1.8804,1.8574,1.8373,1.8612,1.7969,1.7026,1.7234,1.6891,1.6383,1.6637,1.6922,1.7242,1.747,1.7571,1.7463,1.6951,1.6637,1.6423,1.6051,1.5579,1.4983,1.3915,1.3076,1.2649,1.3148,1.2686,1.2187,1.2187,1.1882,1.1584,1.1584,1.1584,1.1584,1.1584,1.1584,1.1584,1.1584,1.1325,1.1065,1.0813,1.0559,1.0973,1.2407,1.4998,1.8091,2.1675,0.0,2.7156,2.7657,2.6325,2.5343,2.4865,2.3485,2.2431,2.1717,2.0709,2.0132,1.9966,2.0644,2.0723,2.0311,2.0726,2.0845,2.0745,2.0766,2.092,2.1111,2.0416,2.0198,2.0246,1.9839,1.969,1.969,0.4661,0.3118,0.1773,0.1768,0.0917,0.0905,0.283,0.4096,0.5658,0.7848,0.7795,0.8105,0.9612,1.0293,1.0994,1.1757,1.264,1.3828,1.546,1.5084,1.5062,1.5632,1.5107,1.4835,1.4835,1.4789,1.4468,1.3815,1.2492,1.1362,1.0415,0.933,0.8603,0.8211,0.7198,0.7085,0.7871,0.9127,1.1126,1.357,1.4933,1.6798,1.8769,1.8734,1.83,1.7772,1.8358,1.7401,1.5963,1.6502,1.6368,1.6038,1.6532,1.7189,1.7811,1.7855,1.8017,1.8027,1.7504,1.6993,1.6595,1.6552,1.6083,1.5454,1.488,1.398,1.3334,1.3778,1.342,1.3017,1.3017,1.2968,1.2968,1.2968,1.2929,1.2881,1.2881,1.2881,1.2881,1.2881,1.2295,0.0,1.0914,1.0261,1.01,1.0663,1.2603,1.4555,0.0,0.0,2.4529,2.4734,2.4079,2.3631,2.3501,2.1805,2.0847,2.0564,1.9678,1.9148,1.9002,1.9723,1.9745,1.9295,2.0714,2.0803,1.9968,2.072,2.082,2.0414,2.0008,2.002,2.0218,1.9814,1.9681,1.969,0.6109,0.5416,0.4754,0.447,0.5071,0.5553,0.5411,0.5926,0.6633,0.7599,0.837,0.9256,1.0367,1.1067,1.1818,1.2816,1.3507,1.42,1.4931,1.5659,1.6151,1.6281,1.6151,1.6064,1.6064,1.5644,1.4869,1.3815,1.2976,1.2314,1.1807,1.0539,0.9561,0.8909,0.8146,0.8057,0.8528,0.9327,1.0982,1.3163,1.4416,1.6015,1.7618,1.7004,1.7129,1.7637,1.7294,1.6876,1.6502,1.6652,1.695,1.7206,1.6816,1.7503,1.8391,1.8021,1.8278,1.8574,1.8066,1.7827,1.7626,1.7188,1.6373,1.5543,1.541,1.4824,1.4325,1.4446,1.4387,1.4247,1.4247,1.3873,1.36,1.36,1.32,1.2881,1.2881,1.2881,1.2881,1.2881,1.2774,1.2353,1.1616,1.0965,1.061,1.0754,1.1574,1.2816,1.4502,1.6508,1.9056,2.2156,2.1933,2.1308,2.0372,1.9904,1.9232,1.844,1.8662,1.8734,1.8697,1.8682,1.8592,1.8481,1.8625,1.8863,1.9181,1.9367,1.9706,2.0083,1.9679,1.9702,1.9925,1.9472,1.947,1.969,0.7095,0.7127,0.6929,0.6196,0.6906,0.751,0.7266,0.7262,0.7488,0.8196,0.9121,0.9885,1.0406,1.1219,1.2052,1.2851,1.3626,1.4411,1.5174,1.6225,1.6879,1.6879,1.6879,1.6879,1.6879,1.6312,1.5555,1.4641,1.3971,1.3288,1.2503,1.1773,1.0878,0.9932,0.9574,0.9475,0.9717,1.0367,1.1517,1.2968,1.3946,1.5337,1.6798,1.6374,1.6644,1.7204,1.6831,1.6517,1.6293,1.6293,1.6533,1.6772,1.6413,1.7206,1.8186,1.7886,1.8332,1.8855,1.8535,1.8302,1.8027,1.7747,1.7037,1.6361,1.6361,1.5708,1.5096,1.5096,1.488,1.4698,1.4698,1.4422,1.419,1.419,1.3931,1.3705,1.3705,1.3705,1.361,1.3334,1.3334,1.2929,1.1913,1.1458,1.1015,1.0364,1.0839,0.0,1.2393,1.3044,1.5192,1.9169,1.8855,1.8377,1.7842,1.7779,1.7457,1.6935,1.7719,1.8036,1.7923,1.8113,1.8125,1.8031,1.8217,1.8335,1.842,1.8758,1.9147,1.9462,1.9214,1.9431,1.9861,1.9562,1.9537,1.969,0.8233,0.8553,0.8633,0.7566,0.7832,0.8279,0.8587,0.8485,0.861,0.9283,1.0003,1.0484,1.056,1.1372,1.2138,1.2673,1.3616,1.4578,1.5484,1.6582,1.7221,1.7262,1.7382,1.7435,1.7435,1.6909,1.6312,1.5708,1.5141,1.4261,1.3062,1.287,1.2181,1.1107,1.0914,1.0864,1.1015,1.1545,1.2234,1.2952,1.3617,1.4878,1.6332,1.6306,1.6522,1.6846,1.6756,1.6323,1.5799,1.5799,1.5858,1.5948,1.5948,1.6757,1.7712,1.7817,1.8317,1.889,1.8977,1.8612,1.8224,1.8224,1.7827,1.7435,1.7435,1.6617,1.5852,1.5852,1.5365,1.4971,1.4971,1.488,1.4858,1.4937,1.48,1.4731,1.481,0.0,1.4468,1.3862,1.3815,1.3331,1.207,1.1873,1.1266,1.0064,1.0364,1.0602,1.0418,1.0533,1.2118,1.537,1.5266,1.528,1.5564,1.5532,1.5538,1.5644,1.6623,1.7059,1.6986,1.7638,1.7873,1.7845,1.8454,1.8386,1.7862,1.8488,1.8724,1.8737,1.8795,1.9183,1.975,1.9722,1.9743,1.969,1.0399,1.0111,0.9802,0.9353,0.9641,0.9785,0.9327,1.0165,1.0805,1.0623,1.118,1.1678,1.209,1.2282,1.2731,1.3589,1.4254,1.4683,1.4846,1.5954,1.6769,1.7118,1.7673,1.7987,1.7987,1.7463,1.6883,1.6262,1.5708,1.5096,1.4365,1.3301,1.2667,1.2425,1.1308,1.1116,1.1639,1.1817,1.2333,1.3026,1.3599,1.4883,1.6453,1.6218,1.6731,1.7473,1.6906,1.6323,1.5799,1.5799,1.6144,1.6562,1.6562,1.707,1.7802,1.8388,1.8619,1.8867,1.9417,1.9169,1.8779,1.8779,1.838,1.7987,1.7987,1.7504,1.705,1.705,1.6612,1.6194,1.6194,1.5776,1.5596,1.6078,1.5337,1.4855,1.5317,0.0,1.4468,1.3862,1.3815,1.3494,1.2813,1.2187,1.1466,1.0712,1.0218,0.971,0.9099,0.8658,0.8739,0.9423,1.1547,1.2788,1.3069,1.3143,1.3447,1.3903,1.4779,1.5626,1.643,1.6547,1.7032,1.7811,1.7929,1.7912,1.7811,1.7929,1.798,1.8025,1.8656,1.8913,1.9049,1.9656,1.9798,1.969,1.1962,1.1827,1.1405,1.0454,1.0937,1.1246,1.0766,1.1232,1.1573,1.1431,1.2044,1.2578,1.28,1.3281,1.3742,1.4181,1.4471,1.4822,1.5419,1.6567,1.7344,1.7543,1.8158,1.8419,1.8106,1.7867,1.7572,1.73,1.6773,1.6232,1.5608,1.4733,1.4136,1.3784,1.3195,1.2922,1.2935,1.2948,1.3022,1.311,1.3592,1.4667,1.5915,1.567,1.6222,1.707,1.6458,1.6024,1.5799,1.5799,1.5964,1.6219,1.6219,1.6637,1.7294,1.7951,1.8672,1.9301,1.96,1.953,1.9332,1.9332,1.893,1.8535,1.8535,1.8145,1.7747,1.7747,1.7544,1.7271,1.6993,1.6714,1.6491,1.647,1.5754,1.5267,1.551,1.5074,1.4468,1.3862,1.3815,1.3552,1.2968,1.2349,1.1655,1.0847,1.0164,0.9415,0.8615,0.8003,0.7706,0.7788,0.9349,1.0489,1.1035,1.1442,1.1941,1.2541,1.3488,1.4277,1.4924,1.5885,1.6542,1.7026,1.7558,1.7811,1.7811,1.7811,1.7811,1.7833,1.8178,1.8643,1.9135,1.9202,1.9572,2.0,1.3386,1.3299,1.2861,1.155,1.194,1.234,1.2136,1.2223,1.233,1.2425,1.3017,1.3444,1.3444,1.4076,1.4533,1.4627,1.4627,1.5082,1.6169,1.7127,1.776,1.8085,1.8709,1.8893,1.8496,1.8341,1.8302,1.8302,1.7747,1.7244,1.6802,1.6089,1.5531,1.5084,1.4835,1.4384,1.3915,1.3933,1.3586,1.317,1.3727,1.4567,1.5491,1.5475,1.5977,1.6652,1.6189,1.5933,1.5799,1.5799,1.5799,1.5799,1.5799,1.6219,1.6846,1.7488,1.8657,1.969,1.969,1.969,1.969,1.969,1.9406,1.9095,1.9095,1.865,1.8302,1.8302,1.8185,1.7987,1.7544,1.7394,1.7199,1.6931,0.0,1.5623,1.5754,1.5176,1.4468,1.3862,1.3815,1.3552,1.2968,1.249,1.1817,1.0889,1.0097,0.9393,0.865,0.8029,0.7711,0.7817,0.8157,0.8671,0.9442,1.0081,1.067,1.1277,1.229,1.3028,1.3537,1.4951,1.5829,1.6242,1.7071,1.7552,1.7681,1.7766,1.7811,1.7811,1.8002,1.8562,1.9248,1.9043,1.947,2.0124,1.4773,1.4309,1.3842,1.3054,1.2686,1.2591,1.2936,1.3416,1.3888,1.4264,1.436,1.4392,1.4392,1.447,1.4658,1.5013,1.5074,1.55,1.6574,1.6739,1.7334,1.8574,1.9295,1.9603,1.9566,1.9095,1.8855,1.8855,1.8302,1.8027,1.7933,1.6844,1.6305,1.6207,1.5174,1.4384,1.3893,1.3958,1.3635,1.3172,1.4072,1.4869,1.5599,1.6296,1.6636,1.6697,1.6652,1.6278,1.5799,1.5799,1.5799,1.5799,1.5799,1.6219,1.6846,1.7488,1.8657,1.969,1.969,1.969,1.969,1.969,1.969,1.9639,1.9639,1.9244,1.8855,1.8855,1.8458,1.8106,1.8066,1.7626,1.7455,1.7978,0.0,0.0,1.6288,1.5395,1.4468,1.3862,1.3815,1.3552,1.2968,1.249,1.1817,1.0889,1.0097,0.9533,0.9173,0.8577,0.8361,0.868,0.7921,0.7798,0.8404,0.9058,0.9587,0.9957,1.0949,1.194,1.2871,1.3324,1.4384,1.587,1.6236,1.6762,1.7368,1.7681,1.7811,1.7856,1.8559,1.8812,1.8903,1.9559,1.9772,1.9747,1.7609,1.5971,1.4513,1.4937,1.4302,1.3914,1.4493,1.4775,1.5092,1.5666,1.5957,1.5947,1.5531,1.571,1.5782,1.5551,1.5551,1.5861,1.6636,1.6712,1.7294,1.8642,1.9331,1.969,1.969,1.9479,1.9406,1.9406,1.8855,1.8612,1.8574,1.78,1.7464,1.741,1.6553,1.5875,1.5351,1.4974,1.4475,1.4031,1.4648,1.5276,1.5898,1.6068,1.6353,1.6652,1.6293,1.5979,1.5858,1.6234,1.6561,1.6749,1.6458,1.7,1.7884,1.8558,1.9584,2.0514,2.0514,2.012,1.969,1.969,1.969,1.969,1.969,1.953,1.9406,1.9406,1.9244,1.9006,1.865,1.8185,1.7747,1.7657,0.0,1.5119,1.5315,1.4309,1.3314,1.2648,1.2967,1.2793,1.1683,1.1978,1.1618,1.0289,1.0295,0.9943,0.8926,0.8666,0.861,0.878,0.8445,0.8408,0.868,0.8867,0.9257,0.9805,1.0443,1.1155,1.1909,1.2659,1.3682,1.4916,1.5653,1.6488,1.732,1.7455,1.7595,1.7805,1.7873,1.8433,1.9155,1.8915,1.9384,2.0035,1.9387,1.7432,1.5738,1.6472,1.5611,1.5082,1.5895,1.5994,1.6216,1.6813,1.7122,1.7023,1.6349,1.6542,1.6503,1.5987,1.5955,1.6256,1.7013,1.7441,1.8065,1.8894,1.9436,1.9747,1.9874,1.9747,1.969,1.969,1.9332,1.9169,1.9132,1.8612,1.8341,1.8313,1.747,1.6789,1.6255,1.5593,1.4988,1.4533,1.4937,1.5394,1.5802,1.5817,1.6054,1.6353,1.5963,1.5799,1.5873,1.6397,1.6949,1.7363,1.7162,1.7912,1.9029,1.972,2.04,2.0991,2.0991,2.0565,2.0085,1.9945,1.9782,1.969,1.969,1.969,1.969,1.969,1.969,1.9603,1.9207,1.8574,1.7987,1.7626,1.6089,1.4926,1.4744,1.3836,1.2939,1.2236,1.2608,1.252,1.1534,1.1882,1.1713,1.0543,1.0672,1.0382,0.9428,0.9384,0.9413,0.9456,0.9198,0.9149,0.937,0.9141,0.9253,0.971,1.0186,1.0664,1.121,1.1982,1.2999,1.4184,1.4774,1.5759,1.6969,1.6865,1.7153,1.7652,1.764,1.828,1.9183,1.8852,1.9306,2.0054,1.9715,1.86,1.7662,1.7518,1.6414,1.5876,1.6954,1.7122,1.7271,1.7665,1.773,1.749,1.6786,1.6712,1.6593,1.6335,1.6285,1.6745,1.7741,1.914,1.9751,1.9418,1.9611,1.9909,2.0314,1.9909,1.9726,1.9726,1.9726,1.9726,1.969,1.9155,1.8916,1.8849,1.7646,1.6812,1.6255,1.5579,1.4988,1.4564,1.4937,1.5104,1.5165,1.5639,1.5799,1.5799,1.5799,1.5799,1.5856,1.6207,1.6806,1.7493,1.7828,1.8872,2.0156,2.0799,2.1007,2.1007,2.1007,2.0991,2.0894,2.0416,2.0,1.9711,1.969,1.969,1.969,1.969,1.969,1.969,1.969,1.8817,1.8106,1.8106,1.6676,1.541,1.4789,1.419,1.36,1.2968,1.2881,1.2881,1.2881,1.249,1.2101,1.1787,1.1195,1.0803,1.0803,1.0889,1.0918,1.0908,1.005,0.9856,1.0383,0.9808,0.9507,0.9526,1.0119,1.0581,1.0897,1.1173,1.2205,1.3765,1.3444,1.4451,1.6266,1.5917,1.6386,1.7362,1.8103,1.8562,1.8874,1.962,1.9805,1.9711,1.95,1.8401,1.75,1.8209,1.7611,1.7298,1.8096,1.8522,1.8906,1.9464,1.9824,1.9578,1.8383,1.8228,1.7738,1.6475,1.6381,1.694,1.8275,1.9383,2.0042,2.0221,2.0496,2.0665,2.0797,2.0665,2.0599,2.0599,2.0599,2.0599,2.0599,1.9682,1.9265,1.9186,1.756,1.6728,1.6556,1.5914,1.5564,1.5418,1.5551,1.574,1.5953,1.6108,1.6301,1.6501,1.6501,1.6501,1.6685,1.7741,1.8455,1.9072,2.0139,2.0446,2.0557,2.1217,2.1645,2.184,2.1507,2.1213,2.0894,2.0416,2.0227,2.007,1.9747,1.969,1.969,1.969,1.969,1.969,1.969,1.8817,1.8106,1.8106,1.6676,1.5543,1.5365,1.4835,1.4039,1.2948,1.3256,1.2957,1.1584,1.2192,1.2271,1.1157,1.1107,1.1306,1.1748,1.1514,1.1221,1.0918,1.0957,1.0925,1.0819,0.9939,0.9675,0.9997,1.0038,1.0348,1.0897,1.0991,1.177,1.31,1.2992,1.3949,1.5583,1.5509,1.6184,1.7338,1.7795,1.848,1.9248,1.9358,1.9723,2.0089,1.9299,1.7918,1.704,1.8459,1.7921,1.7697,1.8912,1.9259,1.9619,2.0221,2.0715,2.0463,1.9039,1.8908,1.8299,1.6821,1.7223,1.8086,1.9389,2.0096,2.0718,2.1261,2.1414,2.1415,2.1244,2.1086,2.0991,2.0991,2.0991,2.0991,2.0991,2.0352,1.9861,1.9531,1.8191,1.7408,1.7087,1.644,1.6108,1.6011,1.6136,1.6246,1.6313,1.6448,1.6607,1.6789,1.6789,1.6789,1.6975,1.8259,1.9367,2.0361,2.1516,2.1599,2.1344,2.1766,2.1859,2.1838,2.1652,2.1217,2.0717,2.0371,2.0193,2.0035,1.998,1.9803,1.969,1.969,1.969,1.969,1.969,1.9006,1.8419,1.8419,1.7382,1.6421,1.5971,1.562,1.4937,1.3679,1.3711,1.3321,1.2092,1.255,1.2569,1.1692,1.1771,1.2035,1.2443,1.207,1.1709,1.1436,1.1557,1.16,1.1561,1.0727,1.0501,1.0803,1.0402,1.0561,1.1231,1.128,1.1984,1.3196,1.3196,1.4056,1.5496,1.522,1.5822,1.6998,1.7925,1.8539,1.902,1.9689,1.9989,2.0054,1.9183,1.7605,1.672,1.85,1.7764,1.7599,1.9532,1.9621,1.9684,2.0322,2.0813,2.0603,1.9251,1.9042,1.8508,1.7264,1.8521,1.9811,2.0875,2.1155,2.1583,2.2276,2.231,2.2073,2.1559,2.129,2.1102,2.1038,2.1038,2.1038,2.099,2.0846,2.0446,1.9839,1.9055,1.8351,1.7673,1.7061,1.6607,1.6367,1.6686,1.6633,1.6421,1.6738,1.6866,1.6892,1.6892,1.6892,1.7055,1.8086,1.9679,2.1295,2.1921,2.2158,2.2192,2.2124,2.1589,2.112,2.1361,2.0947,2.0397,2.0311,2.0019,1.9839,2.0193,1.9965,1.969,1.969,1.969,1.969,1.969,1.9244,1.8893,1.8893,1.8458,1.772,1.6634,1.6476,1.6046,1.4926,1.4283,1.3956,1.3909,1.3334,1.2968,1.2881,1.2881,1.2881,1.2881,1.25,1.2219,1.218,1.1955,1.2025,1.248,1.2079,1.182,1.1757,1.1122,1.1172,1.1799,1.1955,1.2675,1.381,1.381,1.4528,1.5664,1.5064,1.5376,1.648,1.8143,1.8535,1.8377,2.0147,2.032,1.9743,1.975,1.9388,1.9231,1.9563,1.9169,1.9229,2.0523,2.0242,2.0238,2.1193,2.1735,2.1669,2.0793,2.013,1.9202,1.7754,1.8992,2.0441,2.1892,2.2017,2.2141,2.231,2.231,2.1967,2.1305,2.1776,2.1735,2.1178,2.1178,2.1178,2.1117,1.9662,1.9198,1.9509,1.7958,1.7157,1.7013,1.6853,1.6763,1.6686,1.6763,1.6901,1.7085,1.7158,1.7344,1.7589,1.7589,1.7589,1.7706,1.8521,1.9858,2.1136,2.067,2.094,2.1312,2.066,2.02,1.9948,2.021,1.9955,1.9751,2.0177,2.0212,2.0124,1.9874,1.9747,1.969,1.969,1.969,1.969,1.969,1.9244,1.8893,1.8893,1.8458,1.7854,1.7216,1.7092,1.6701,1.5543,1.5276,1.5005,1.456,1.3967,1.342,1.2929,1.2881,1.2881,1.2881,1.2793,1.2588,1.219,1.2945,1.321,1.3033,1.3725,1.3459,1.2262,1.2002,1.2096,1.2499,1.2834,1.3286,1.381,1.381,1.4259,1.5019,1.4857,1.5376,1.6351,1.6967,1.7494,1.8054,1.8883,1.9305,1.9482,1.9767,1.9522,1.9356,1.9409,1.9289,1.9608,2.0815,2.0584,2.0584,2.1483,2.2003,2.2023,2.1288,2.0483,1.9419,1.7927,1.9154,2.0345,2.116,2.1892,2.2187,2.1977,2.2173,2.219,2.1918,2.2156,2.1938,2.1204,2.1204,2.1204,2.116,2.0193,1.9562,1.9169,1.8228,1.7601,1.7288,1.7288,1.7175,1.7052,1.7199,1.7288,1.732,1.7479,1.7658,1.7811,1.7811,1.8031,1.8386,1.8775,1.9672,2.0551,2.012,2.0297,2.0619,2.0585,2.0168,1.9837,2.0297,2.0036,1.9735,2.0177,2.0314,2.0246,2.0035,2.0,1.9929,1.9747,1.969,1.969,1.969,1.9479,1.9281,1.9281,1.9043,1.8688,1.8145,1.8066,1.7653,1.6532,1.6145,1.5664,1.4789,1.4422,1.3967,1.3372,1.3334,1.319,1.2929,1.3152,1.3223,1.2979,1.3793,1.416,1.3979,1.454,1.4533,1.3964,1.3316,1.3024,1.3105,1.357,1.3953,1.4288,1.4618,1.4932,1.5289,1.5289,1.5596,1.6128,1.6785,1.7147,1.7463,1.8619,1.939,1.9831,2.0023,1.9437,1.9037,1.9158,1.9216,1.9673,2.0857,2.079,2.0862,2.1619,2.2061,2.2084,2.1521,2.0501,1.9324,1.7912,1.9154,1.9884,1.9648,2.1225,2.1979,2.1604,2.208,2.2422,2.2504,2.2248,2.1803,2.1204,2.1204,2.1136,2.0974,2.0856,2.0111,1.8894,1.8775,1.8369,1.7811,1.7811,1.7658,1.7415,1.7681,1.7618,1.7415,1.7681,1.7811,1.7811,1.7811,1.82,1.8707,1.8707,1.9198,1.9782,1.9664,1.9799,2.0103,2.0636,2.0364,2.0063,2.074,2.043,2.0019,2.0344,2.0483,2.0501,2.0449,2.0348,2.0227,1.9874,1.9747,1.969,1.969,1.969,1.969,1.969,1.969,1.953,1.8968,1.8893,1.8535,1.7544,1.6912,1.6133,1.5096,1.4926,1.4606,1.4003,1.3956,1.3742,1.3248,1.3695,1.3956,1.3956,1.456,1.4867,1.4939,1.5024,1.5355,1.5841,1.4905,1.4276,1.3968,1.4486,1.4829,1.4992,1.5559,1.5799,1.5799,1.5799,1.5799,1.5872,1.6763,1.6937,1.6907,1.8634,1.969,2.0246,2.1867,2.1083,2.0458,2.0298,2.0327,2.056,2.1088,2.0866,2.0993,2.2079,2.2254,2.2337,2.247,2.0632,1.8956,1.7878,1.9161,1.9462,1.8178,2.0264,2.1567,2.1586,2.2288,2.2349,2.1767,2.1481,2.1305,2.1204,2.1204,2.0839,2.0137,1.9519,1.9096,1.886,1.8234,1.7896,1.7811,1.7811,1.7766,1.7743,1.7789,1.7766,1.7743,1.7789,1.7811,1.7811,1.7811,1.7862,1.7963,1.7963,1.8437,1.8944,1.8318,1.8954,1.99,1.9367,1.9395,1.97,2.0385,2.0286,2.0111,2.0751,2.1181,2.1321,2.0991,2.0583,2.028,2.0212,1.9929,1.969,1.969,1.969,1.969,1.969,1.969,1.953,1.8968,1.8893,1.865,1.8066,1.7504,1.6912,1.6262,1.5752,1.5231,1.4606,1.456,1.4514,1.4479,1.4525,1.456,1.456,1.5141,1.5463,1.5492,1.5997,1.6316,1.64,1.6583,1.6347,1.5748,1.6184,1.6114,1.5679,1.5769,1.5799,1.5799,1.5799,1.5799,1.5814,1.5946,1.6308,1.6876,1.829,1.9421,2.0246,2.1675,2.1896,2.1965,2.0903,2.1444,2.2039,2.2039,2.189,2.1902,2.226,2.231,2.2398,2.2669,2.1433,1.9843,1.7945,1.9138,1.9854,1.9499,1.9699,2.0319,2.143,2.203,2.2447,2.2762,2.2474,2.2245,2.2039,2.147,2.0788,1.9985,1.9664,1.908,1.8268,1.7963,1.7811,1.7811,1.7811,1.7811,1.7811,1.7811,1.7811,1.7811,1.7811,1.7811,1.7811,1.7811,1.7811,1.7811,1.7811,1.8031,1.8302,1.8386,1.886,1.9486,2.0027,2.0321,2.0565,2.0994,2.1016,2.0977,2.1256,2.146,2.1628,2.1721,2.1368,2.0894,2.0416,1.9965,1.969,1.969,1.969,1.969,1.969,1.969,1.9603,1.9369,1.9369,1.9169,1.8612,1.8066,1.7531,1.6954,1.6701,1.6188,1.5276,1.5186,1.505,1.4709,1.5017,1.5186,1.5186,1.6102,1.6532,1.6532,1.7133,1.7531,1.7859,1.8012,1.7413,1.6102,1.6511,1.6353,1.5799,1.5799,1.5799,1.5799,1.5799,1.5799,1.5829,1.6174,1.6906,1.7876,1.8493,1.9368,2.028]},{"header":{"parameterUnit":"m.s-1","parameterCategory":1,"la1":30.6,"la2":28.766,"lo1":-90.7593,"lo2":-88.6598,"dy":0.0162,"dx":0.0183,"nx":116,"ny":114,"refTime":"2023-07-30T12:00:00:Z","depth":0,"parameterNumber":3,"parameterNumberName":"V-component_of_WINDS"},"data":[0.0,0.0,0.0,0.0,0.0,0.0,0.0,0.0,0.0,0.0,0.0,0.0,0.0,0.0,0.0,0.0,0.0,0.0,0.0,0.0,0.0,0.0,0.0,0.0,0.0,0.0,0.0,0.0,0.0,0.0,0.0,0.0,0.0,0.0,0.0,0.0,0.0,0.0,0.0,0.0,0.0,0.0,0.0,0.0,0.0,0.0,0.0,0.0,0.0,0.0,0.0,0.0,0.0,0.0,0.0,0.0,0.0,0.0,0.0,0.0,0.0,0.0,0.0,0.0,0.0,0.0,0.0,0.0,0.0,0.0,0.0,0.0,0.0,0.0,0.0,0.0,0.0,0.0,0.0,0.0,0.0,0.0,0.0,0.0,0.0,0.0,0.0,0.0,0.0,0.0,0.0,0.0,0.0,0.0,0.0,0.0,0.0,0.0,0.0,0.0,0.0,0.0,0.0,0.0,0.0,0.0,0.0,0.0,0.0,0.0,0.0,0.0,0.0,0.0,0.0,0.0,0.0,0.0,0.0,0.0,0.0,0.0,0.0,0.0,0.0,0.0,0.0,0.0,0.0,0.0,0.0,0.0,0.0,0.0,0.0,0.0,0.0,0.0,0.0,0.0,0.0,0.0,0.0,0.0,0.0,0.0,0.0,0.0,0.0,0.0,0.0,0.0,0.0,0.0,0.0,0.0,0.0,0.0,0.0,0.0,0.0,0.0,0.0,0.0,0.0,0.0,0.0,0.0,0.0,0.0,0.0,0.0,0.0,0.0,0.0,0.0,0.0,0.0,0.0,0.0,0.0,0.0,0.0,0.0,0.0,0.0,0.0,0.0,0.0,0.0,0.0,0.0,0.0,0.0,0.0,0.0,0.0,0.0,0.0,0.0,0.0,0.0,0.0,0.0,0.0,0.0,0.0,0.0,0.0,0.0,0.0,0.0,0.0,0.0,0.0,0.0,0.0,0.0,0.0,0.0,0.0,0.0,0.0,0.0,0.0,0.0,0.0,0.0,0.0,0.0,0.0,0.0,0.0,0.0,0.0,0.0,0.0,0.0,0.0,0.0,0.0,0.0,0.0,0.0,0.0,0.0,0.0,0.0,0.0,0.0,0.0,0.0,0.0,0.0,0.0,0.0,0.0,0.0,0.0,0.0,0.0,0.0,0.0,0.0,0.0,0.0,0.0,0.0,0.0,0.0,0.0,0.0,0.0,0.0,0.0,0.0,0.0,0.0,0.0,0.0,0.0,0.0,0.0,0.0,0.0,0.0,0.0,0.0,0.0,0.0,0.0,0.0,0.0,0.0,0.0,0.0,0.0,0.0,0.0,0.0,0.0,0.0,0.0,0.0,0.0,0.0,0.0,0.0,0.0,0.0,0.0,0.0,0.0,0.0,0.0,0.0,0.0,0.0,0.0,0.0,0.0,0.0,0.0,0.0,0.0,0.0,0.0,0.0,0.0,0.0,0.0,0.0,0.0,0.0,0.0,0.0,0.0,0.0,0.0,0.0,0.0,0.0,0.0,0.0,0.0,0.0,0.0,0.0,0.0,0.0,0.0,0.0,0.0,0.0,0.0,0.0,0.0,0.0,0.0,0.0,0.0,0.0,0.0,0.0,0.0,0.0,0.0,0.0,0.0,0.0,0.0,0.0,0.0,0.0,0.0,0.0,0.0,0.0,0.0,0.0,0.0,0.0,0.0,0.0,0.0,0.0,0.0,0.0,0.0,0.0,0.0,0.0,0.0,0.0,0.0,0.0,0.0,0.0,0.0,0.0,0.0,0.0,0.0,0.0,0.0,0.0,0.0,0.0,0.0,0.0,0.0,0.0,0.0,0.0,0.0,0.0,0.0,0.0,0.0,0.0,0.0,0.0,0.0,0.0,0.0,0.0,0.0,0.0,0.0,0.0,0.0,0.0,0.0,0.0,0.0,0.0,0.0,0.0,0.0,0.0,0.0,0.0,0.0,0.0,0.0,0.0,0.0,0.0,0.0,0.0,0.0,0.0,0.0,0.0,0.0,0.0,0.0,0.0,0.0,0.0,0.0,0.0,0.0,0.0,0.0,0.0,0.0,0.0,0.0,0.0,0.0,0.0,0.0,0.0,0.0,0.0,0.0,0.0,0.0,0.0,0.0,0.0,0.0,0.0,0.0,0.0,0.0,0.0,0.0,0.0,0.0,0.0,0.0,0.0,0.0,0.0,0.0,0.0,0.0,0.0,0.0,0.0,0.0,0.0,0.0,0.0,0.0,0.0,0.0,0.0,0.0,0.0,0.0,0.0,0.0,0.0,0.0,0.0,0.0,0.0,0.0,0.0,0.0,0.0,0.0,0.0,0.0,0.0,0.0,0.0,0.0,0.0,0.0,0.0,0.0,0.0,0.0,0.0,0.0,0.0,0.0,0.0,0.0,0.0,0.0,0.0,0.0,0.0,0.0,0.0,0.0,0.0,0.0,0.0,0.0,0.0,0.0,0.0,0.0,0.0,0.0,0.0,0.0,0.0,0.0,0.0,0.0,0.0,0.0,0.0,0.0,0.0,0.0,0.0,0.0,0.0,0.0,0.0,0.0,0.0,0.0,0.0,0.0,0.0,0.0,0.0,0.0,0.0,0.0,0.0,0.0,0.0,0.0,0.0,0.0,0.0,0.0,0.0,0.0,0.0,0.0,0.0,0.0,0.0,0.0,0.0,0.0,0.0,0.0,0.0,0.0,0.0,0.0,0.0,0.0,0.0,0.0,0.0,0.0,0.0,0.0,0.0,0.0,0.0,0.0,0.0,0.0,0.0,0.0,0.0,0.0,0.0,0.0,0.0,0.0,0.0,0.0,0.0,0.0,0.0,0.0,0.0,0.0,0.0,0.0,0.0,0.0,0.0,0.0,0.0,0.0,0.0,0.0,0.0,0.0,0.0,0.0,0.0,0.0,0.0,0.0,0.0,0.0,0.0,0.0,0.0,0.0,0.0,0.0,0.0,0.0,0.0,0.0,0.0,0.0,0.0,0.0,0.0,0.0,0.0,0.0,0.0,0.0,0.0,0.0,0.0,0.0,0.0,0.0,0.0,0.0,0.0,0.0,0.0,0.0,0.0,0.0,0.0,0.0,0.0,0.0,0.0,0.0,0.0,0.0,0.0,0.0,0.0,0.0,0.0,0.0,0.0,0.0,0.0,0.0,0.0,0.0,0.0,0.0,0.0,0.0,0.0,0.0,0.0,0.0,0.0,0.0,0.0,0.0,0.0,0.0,0.0,0.0,0.0,0.0,0.0,0.0,0.0,0.0,0.0,0.0,0.0,0.0,0.0,0.0,0.0,0.0,0.0,0.0,0.0,0.0,0.0,0.0,0.0,0.0,0.0,0.0,0.0,0.0,0.0,0.0,0.0,0.0,0.0,0.0,0.0,0.0,0.0,0.0,0.0,0.0,0.0,0.0,0.0,0.0,0.0,0.0,0.0,0.0,0.0,0.0,0.0,0.0,0.0,0.0,0.0,0.0,0.0,0.0,0.0,0.0,0.0,0.0,0.0,0.0,0.0,0.0,0.0,0.0,0.0,0.0,0.0,0.0,0.0,0.0,0.0,0.0,0.0,0.0,0.0,0.0,0.0,0.0,0.0,0.0,0.0,0.0,0.0,0.0,0.0,0.0,0.0,0.0,0.0,0.0,0.0,0.0,0.0,0.0,0.0,0.0,0.0,0.0,0.0,0.0,0.0,0.0,0.0,0.0,0.0,0.0,0.0,0.0,0.0,0.0,0.0,0.0,0.0,0.0,0.0,0.0,0.0,0.0,0.0,0.0,0.0,0.0,0.0,0.0,0.0,0.0,0.0,0.0,0.0,0.0,0.0,0.0,0.0,0.0,0.0,0.0,0.0,0.0,0.0,0.0,0.0,0.0,0.0,0.0,0.0,0.0,0.0,0.0,0.0,0.0,0.0,0.0,0.0,0.0,0.0,0.0,0.0,0.0,0.0,0.0,0.0,0.0,0.0,0.0,0.0,0.0,0.0,0.0,0.0,0.0,0.0,0.0,0.0,0.0,0.0,0.0,0.0,0.0,0.0,0.0,0.0,0.0,0.0,0.0,0.0,0.0,0.0,0.0,0.0,0.0,0.0,0.0,0.0,0.0,0.0,0.0,0.0,0.0,0.0,0.0,0.0,0.0,0.0,0.0,0.0,0.0,0.0,0.0,0.0,0.0,0.0,0.0,0.0,0.0,0.0,0.0,0.0,0.0,0.0,0.0,0.0,0.0,0.0,0.0,0.0,0.0,0.0,0.0,0.0,0.0,0.0,0.0,0.0,0.0,0.0,0.0,0.0,0.0,0.0,0.0,0.0,0.0,0.0,0.0,0.0,0.0,0.0,0.0,0.0,0.0,0.0,0.0,0.0,0.0,0.0,0.0,0.0,0.0,0.0,0.0,0.0,0.0,0.0,0.0,0.0,0.0,0.0,0.0,0.0,0.0,0.0,0.0,0.0,0.0,0.0,0.0,0.0,0.0,0.0,0.0,0.0,0.0,0.0,0.0,0.0,0.0,0.0,0.0,0.0,0.0,0.0,0.0,0.0,0.0,0.0,0.0,0.0,0.0,0.0,0.0,0.0,0.0,0.0,0.0,0.0,0.0,0.0,0.0,0.0,0.0,0.0,0.0,0.0,0.0,0.0,0.0,0.0,0.0,0.0,0.0,0.0,0.0,0.0,0.0,0.0,0.0,0.0,0.0,0.0,0.0,0.0,0.0,0.0,0.0,0.0,0.0,0.0,0.0,0.0,0.0,0.0,0.0,0.0,0.0,0.0,0.0,0.0,0.0,0.0,0.0,0.0,0.0,0.0,0.0,0.0,0.0,0.0,0.0,0.0,0.0,0.0,0.0,0.0,0.0,0.0,0.0,0.0,0.0,0.0,0.0,0.0,0.0,0.0,0.0,0.0,0.0,0.0,0.0,0.0,0.0,0.0,0.0,0.0,0.0,0.0,0.0,0.0,0.0,0.0,0.0,0.0,0.0,0.0,0.0,0.0,0.0,0.0,0.0,0.0,0.0,0.0,0.0,0.0,0.0,0.0,0.0,0.0,0.0,0.0,0.0,0.0,0.0,0.0,0.0,0.0,0.0,0.0,0.0,0.0,0.0,0.0,0.0,0.0,0.0,0.0,0.0,0.0,0.0,0.0,0.0,0.0,0.0,0.0,0.0,0.0,0.0,0.0,0.0,0.0,0.0,0.0,0.0,0.0,0.0,0.0,0.0,0.0,0.0,0.0,0.0,0.0,0.0,0.0,0.0,0.0,0.0,0.0,0.0,0.0,0.0,0.0,0.0,0.0,0.0,0.0,0.0,0.0,0.0,0.0,0.0,0.0,0.0,0.0,0.0,0.0,0.0,0.0,0.0,0.0,0.0,0.0,0.0,0.0,0.0,0.0,0.0,0.0,0.0,0.0,0.0,0.0,0.0,0.0,0.0,0.0,0.0,0.0,0.0,0.0,0.0,0.0,0.0,0.0,0.0,0.0,0.0,0.0,0.0,0.0,0.0,0.0,0.0,0.0,0.0,0.0,0.0,0.0,0.0,0.0,0.0,0.0,0.0,0.0,0.0,0.0,0.0,0.0,0.0,0.0,0.0,0.0,0.0,0.0,0.0,0.0,0.0,0.0,0.0,0.0,0.0,0.0,0.0,0.0,0.0,0.0,0.0,0.0,0.0,0.0,0.0,0.0,0.0,0.0,0.0,0.0,0.0,0.0,0.0,0.0,0.0,0.0,0.0,0.0,0.0,0.0,0.0,0.0,0.0,0.0,0.0,0.0,0.0,0.0,0.0,0.0,0.0,0.0,0.0,0.0,0.0,0.0,0.0,0.0,0.0,0.0,0.0,0.0,0.0,0.0,0.0,0.0,0.0,0.0,0.0,0.0,0.0,0.0,0.0,0.0,0.0,0.0,0.0,0.0,0.0,0.0,0.0,0.0,0.0,0.0,0.0,0.0,0.0,0.0,0.0,0.0,0.0,0.0,0.0,0.0,0.0,0.0,0.0,0.0,0.0,0.0,0.0,0.0,0.0,0.0,0.0,0.0,0.0,0.0,0.0,0.0,0.0,0.0,0.0,0.0,0.0,0.0,0.0,0.0,0.0,0.0,-2.3892,-2.3939,0.0,0.0,0.0,0.0,0.0,0.0,0.0,0.0,0.0,0.0,0.0,0.0,0.0,0.0,0.0,0.0,0.0,0.0,0.0,0.0,0.0,0.0,0.0,0.0,0.0,0.0,0.0,0.0,0.0,0.0,0.0,0.0,0.0,0.0,0.0,0.0,0.0,0.0,0.0,0.0,0.0,0.0,0.0,0.0,0.0,0.0,0.0,0.0,0.0,0.0,0.0,0.0,0.0,0.0,0.0,0.0,0.0,0.0,0.0,0.0,0.0,0.0,0.0,0.0,0.0,0.0,0.0,0.0,0.0,0.0,0.0,0.0,0.0,0.0,0.0,0.0,0.0,0.0,0.0,0.0,0.0,0.0,0.0,0.0,0.0,0.0,0.0,0.0,0.0,0.0,0.0,0.0,0.0,0.0,0.0,0.0,0.0,0.0,0.0,0.0,0.0,0.0,0.0,0.0,0.0,0.0,0.0,0.0,0.0,0.0,0.0,0.0,0.0,0.0,-2.5451,-2.5146,0.0,0.0,0.0,0.0,0.0,0.0,0.0,0.0,0.0,0.0,0.0,0.0,0.0,0.0,0.0,0.0,0.0,0.0,0.0,0.0,0.0,0.0,0.0,0.0,0.0,0.0,0.0,0.0,0.0,0.0,0.0,0.0,0.0,0.0,0.0,0.0,0.0,0.0,0.0,0.0,0.0,0.0,0.0,0.0,0.0,0.0,0.0,0.0,0.0,0.0,0.0,0.0,0.0,0.0,0.0,0.0,0.0,0.0,0.0,0.0,0.0,0.0,0.0,0.0,0.0,0.0,0.0,0.0,0.0,0.0,0.0,0.0,0.0,0.0,0.0,0.0,0.0,0.0,0.0,0.0,0.0,0.0,0.0,0.0,0.0,0.0,0.0,0.0,0.0,0.0,0.0,0.0,0.0,0.0,0.0,0.0,0.0,0.0,0.0,0.0,0.0,0.0,0.0,0.0,0.0,0.0,0.0,0.0,-2.7432,-2.7274,-2.6426,-2.7224,-2.7885,-2.8345,-2.7486,-2.6631,-2.5966,-2.6742,0.0,0.0,0.0,0.0,0.0,0.0,0.0,0.0,0.0,0.0,0.0,0.0,0.0,0.0,0.0,0.0,0.0,0.0,0.0,0.0,0.0,0.0,0.0,0.0,0.0,0.0,0.0,0.0,0.0,0.0,0.0,0.0,0.0,0.0,0.0,0.0,0.0,0.0,-2.0227,-2.0782,-2.152,-2.245,-2.4076,0.0,0.0,0.0,0.0,0.0,0.0,0.0,0.0,0.0,0.0,0.0,0.0,0.0,0.0,0.0,0.0,0.0,0.0,0.0,0.0,0.0,0.0,0.0,0.0,0.0,0.0,0.0,0.0,0.0,0.0,0.0,0.0,0.0,0.0,0.0,0.0,0.0,0.0,0.0,0.0,0.0,0.0,0.0,-2.1404,-2.2694,0.0,0.0,0.0,0.0,0.0,0.0,0.0,0.0,0.0,0.0,0.0,0.0,0.0,-2.8025,-2.808,-2.8655,-2.8657,-2.8061,-2.8695,-2.8883,-2.877,-2.9641,-2.9739,-2.9283,-3.0299,0.0,-2.8679,-2.7794,0.0,0.0,0.0,0.0,0.0,0.0,0.0,0.0,0.0,0.0,0.0,0.0,0.0,0.0,0.0,0.0,0.0,0.0,0.0,0.0,0.0,0.0,0.0,0.0,0.0,0.0,0.0,0.0,0.0,0.0,0.0,0.0,0.0,0.0,0.0,0.0,-1.8552,-1.8392,-1.8498,-1.9818,-2.084,-2.1732,-2.4505,-2.6022,-2.661,-2.7803,0.0,0.0,0.0,0.0,0.0,0.0,0.0,0.0,0.0,0.0,0.0,0.0,0.0,0.0,0.0,0.0,0.0,0.0,0.0,0.0,0.0,0.0,0.0,0.0,0.0,0.0,0.0,0.0,0.0,0.0,0.0,0.0,0.0,0.0,0.0,0.0,0.0,0.0,0.0,-1.9978,-2.2371,-2.403,-2.5115,-2.5622,0.0,0.0,0.0,0.0,0.0,0.0,0.0,0.0,0.0,-2.8832,-2.9582,-2.9753,-2.9318,-3.0406,-3.0437,-2.9408,-2.9705,-2.9815,-2.9807,-3.0254,-3.0635,-3.1047,-3.1275,-3.1189,-3.0878,-2.9714,-2.9385,-2.9607,0.0,0.0,0.0,0.0,-3.0023,-2.988,0.0,0.0,0.0,0.0,0.0,0.0,0.0,0.0,0.0,0.0,0.0,0.0,0.0,0.0,0.0,-2.0273,0.0,0.0,0.0,0.0,0.0,0.0,0.0,0.0,0.0,0.0,0.0,0.0,-1.8279,-1.7674,-1.7422,-1.9181,-2.0473,-2.1451,-2.4632,-2.6348,-2.6974,-2.9081,-2.9391,0.0,0.0,0.0,0.0,0.0,0.0,0.0,0.0,0.0,0.0,0.0,0.0,0.0,0.0,0.0,0.0,0.0,0.0,0.0,0.0,0.0,0.0,0.0,0.0,0.0,0.0,0.0,0.0,0.0,0.0,0.0,0.0,0.0,0.0,0.0,0.0,0.0,0.0,-2.1215,-2.333,-2.4894,-2.6178,-2.6851,0.0,0.0,0.0,0.0,0.0,0.0,-2.8925,-2.8795,-2.8989,-2.9588,-3.0974,-3.1275,-3.0437,-3.1812,-3.1826,-3.0518,-3.0518,-3.0518,-3.0551,-3.0915,-3.149,-3.2168,-3.1965,-3.207,-3.2299,-3.13,-3.0888,-3.0942,-3.1278,-3.1348,-3.1273,-3.1658,-3.1714,-3.1679,0.0,0.0,0.0,0.0,0.0,0.0,0.0,0.0,0.0,0.0,0.0,0.0,0.0,0.0,-1.8661,-2.043,-2.2118,-2.3158,0.0,0.0,0.0,0.0,0.0,0.0,0.0,0.0,0.0,-1.9773,-1.844,-1.786,-1.7978,-1.9179,-2.0675,-2.2521,-2.4544,-2.6382,-2.8085,-2.8965,-2.9515,-2.9727,0.0,0.0,0.0,0.0,0.0,0.0,0.0,0.0,0.0,0.0,0.0,0.0,0.0,0.0,0.0,0.0,0.0,0.0,0.0,0.0,0.0,0.0,0.0,0.0,0.0,0.0,0.0,0.0,0.0,0.0,0.0,0.0,0.0,0.0,0.0,0.0,0.0,0.0,0.0,-2.4807,-2.7274,0.0,0.0,0.0,0.0,-2.8681,-2.9419,-2.9726,-2.9375,-3.0002,-3.0302,-3.0155,-3.1715,-3.2109,-3.1246,-3.2077,-3.2056,-3.1151,-3.1151,-3.1151,-3.1207,-3.2372,-3.2475,-3.1893,-3.302,-3.3106,-3.247,-3.1933,-3.1719,-3.1827,-3.2733,-3.2796,-3.2477,-3.2942,-3.2818,-3.2364,0.0,0.0,0.0,0.0,0.0,0.0,0.0,0.0,0.0,0.0,0.0,0.0,0.0,-1.7624,-1.9597,-2.1596,-2.319,-2.3976,-2.3689,0.0,0.0,0.0,0.0,0.0,0.0,0.0,-2.0206,-2.0501,-1.8706,-1.8002,-1.8369,-1.9606,-2.0984,-2.2478,-2.4975,-2.6737,-2.7885,-2.9825,-3.0386,-3.0026,-3.0676,-3.0535,0.0,0.0,0.0,0.0,0.0,0.0,0.0,0.0,0.0,0.0,0.0,0.0,0.0,0.0,0.0,0.0,0.0,0.0,0.0,0.0,0.0,0.0,0.0,0.0,0.0,0.0,0.0,0.0,0.0,0.0,0.0,0.0,0.0,0.0,0.0,0.0,0.0,-2.5977,-2.783,0.0,-2.8236,-2.9162,-2.9696,-2.9391,-3.0035,-3.0596,-3.0927,-3.0545,-3.0765,-3.1715,-3.2302,-3.2575,-3.2522,-3.2809,-3.2648,-3.2021,-3.2021,-3.2021,-3.2056,-3.2477,-3.2511,-3.2282,-3.27,-3.2732,-3.2517,-3.2648,-3.2533,-3.2298,-3.2934,-3.3105,-3.3037,-3.3651,-3.3476,-3.2952,0.0,0.0,0.0,0.0,0.0,0.0,0.0,0.0,0.0,0.0,0.0,-1.3963,-1.5862,-1.8008,-2.0126,-2.2096,-2.36,-2.4288,-2.3888,0.0,0.0,0.0,0.0,0.0,0.0,-2.1876,-2.1211,-2.1463,-1.9731,-1.9045,-1.9366,-2.0599,-2.1823,-2.3114,-2.5296,-2.6882,-2.8028,-3.038,-3.0948,-3.038,-3.1626,-3.195,-3.158,0.0,0.0,0.0,0.0,0.0,0.0,0.0,0.0,0.0,0.0,0.0,0.0,0.0,0.0,0.0,0.0,0.0,0.0,0.0,0.0,0.0,0.0,0.0,0.0,0.0,0.0,0.0,0.0,0.0,0.0,0.0,0.0,0.0,0.0,-2.366,-2.5054,-2.5952,-2.7904,-2.9107,-2.8944,-2.9937,-3.0546,-3.0524,-3.0869,-3.1233,-3.164,-3.1267,-3.1127,-3.1384,-3.2449,-3.2794,-3.239,-3.2913,-3.2983,-3.2484,-3.2484,-3.2484,-3.2517,-3.2648,-3.2745,-3.2745,-3.2973,-3.3076,-3.3105,-3.3524,-3.3524,-3.3263,-3.3354,-3.339,-3.3462,-3.396,-3.3785,-3.3418,0.0,0.0,0.0,0.0,0.0,0.0,0.0,0.0,0.0,0.0,-1.289,-1.3749,-1.5402,-1.78,-2.0037,-2.1825,-2.3318,-2.4072,-2.3942,-2.3911,0.0,0.0,0.0,0.0,-2.4023,-2.3386,-2.2903,-2.265,-2.1573,-2.1055,-2.1103,-2.197,-2.3114,-2.4454,-2.5459,-2.6838,-2.85,-3.0455,-3.1111,-3.093,-3.1904,-3.2317,-3.2391,0.0,0.0,0.0,0.0,0.0,0.0,0.0,0.0,0.0,0.0,0.0,0.0,0.0,0.0,0.0,0.0,0.0,0.0,0.0,0.0,0.0,0.0,0.0,0.0,0.0,0.0,0.0,0.0,0.0,0.0,0.0,0.0,0.0,-2.2912,-2.3909,-2.4798,-2.4679,-2.7505,-2.929,-2.8879,-3.0338,-3.1521,-3.2053,-3.1892,-3.1671,-3.1434,-3.2125,-3.1464,-2.9163,-3.2082,-3.2784,-3.0864,-3.239,-3.2929,-3.2479,-3.2515,-3.2548,-3.253,-3.2991,-3.3207,-3.3248,-3.3857,-3.4125,-3.4149,-3.4475,-3.4619,-3.4557,-3.4037,-3.3797,-3.3778,-3.3815,-3.3807,-3.3734,0.0,0.0,0.0,0.0,0.0,0.0,0.0,0.0,0.0,0.0,-1.2139,-1.252,-1.5161,-1.6428,-1.8321,-2.1444,-2.2392,-2.2699,-2.2427,0.0,0.0,0.0,0.0,0.0,-2.459,-2.4258,-2.3933,-2.3614,-2.2641,-2.2302,-2.2591,-2.2571,-2.3195,-2.4392,-2.5733,-2.69,-2.7954,-3.0081,-3.1308,-3.196,-3.3639,-3.4656,-3.5148,0.0,0.0,0.0,0.0,0.0,0.0,0.0,0.0,0.0,0.0,0.0,0.0,0.0,0.0,0.0,0.0,0.0,0.0,0.0,0.0,0.0,0.0,0.0,0.0,0.0,0.0,0.0,0.0,0.0,0.0,0.0,-2.6295,-2.5789,-2.4467,-2.4907,-2.5579,-2.6074,-2.7638,-2.8891,-2.9406,-3.0573,-3.1457,-3.185,-3.1427,-3.1311,-3.1685,-3.0926,-3.0648,-3.1014,-3.1329,-3.1684,-3.209,-3.2529,-3.2499,-3.2022,-3.3188,-3.3536,-3.3157,-3.3287,-3.3351,-3.3314,-3.2868,-3.2668,-3.2688,-3.2787,-3.2806,-3.2919,-3.4017,-3.4064,-3.3552,-3.3942,-3.3961,-3.3661,0.0,0.0,0.0,0.0,0.0,0.0,0.0,0.0,0.0,0.0,-1.2912,-1.2874,-1.4506,-1.5623,-1.7282,-1.9902,-2.1142,-2.1639,-2.1272,0.0,0.0,0.0,0.0,-2.4889,-2.488,-2.4622,-2.4338,-2.4007,-2.3221,-2.2968,-2.3189,-2.3193,-2.3902,-2.5275,-2.6333,-2.7436,-2.8639,-3.0377,-3.1634,-3.2598,-3.4206,-3.542,-3.6283,-3.6117,-3.6575,-3.7358,-3.7809,-3.7947,-3.802,-3.8343,0.0,0.0,0.0,0.0,0.0,0.0,0.0,0.0,0.0,0.0,0.0,0.0,0.0,0.0,0.0,0.0,0.0,0.0,0.0,0.0,0.0,0.0,0.0,0.0,-2.7851,-2.7371,-2.6816,-2.5815,-2.5346,-2.5832,-2.712,-2.8375,-2.9345,-3.0502,-3.1292,-3.1581,-3.1186,-3.1092,-3.1403,-3.0641,-3.0603,-3.1424,-3.131,-3.1619,-3.2414,-3.2391,-3.224,-3.1946,-3.2882,-3.336,-3.3391,-3.3391,-3.3391,-3.3372,-3.2977,-3.2597,-3.2275,-3.2397,-3.2431,-3.2509,0.0,0.0,0.0,0.0,-3.3444,-3.3518,0.0,0.0,0.0,0.0,0.0,0.0,0.0,0.0,0.0,0.0,0.0,-1.3852,-1.3647,-1.4978,-1.6427,-1.7775,-1.964,-2.0675,0.0,0.0,0.0,-2.4644,-2.4813,-2.4937,-2.5024,-2.4726,-2.4426,-2.41,-2.3627,-2.3379,-2.3401,-2.3871,-2.4893,-2.6333,-2.6962,-2.8116,-2.9664,-3.0915,-3.1977,-3.295,-3.4049,-3.5249,-3.6413,-3.6757,-3.743,-3.8315,-3.9258,-3.9662,-3.9854,-4.0546,0.0,0.0,0.0,0.0,0.0,0.0,0.0,0.0,0.0,0.0,0.0,0.0,0.0,0.0,0.0,0.0,0.0,0.0,0.0,0.0,0.0,0.0,0.0,0.0,-2.9972,-2.9306,-2.9486,-2.692,-2.5053,-2.5153,-2.6576,-2.7975,-2.9055,-3.0208,-3.0987,-3.1283,-3.1075,-3.0935,-3.0958,-3.0881,0.0,0.0,0.0,-3.1921,-3.2053,-3.1977,-3.1921,-3.1883,-3.2053,-3.2581,-3.3356,-3.3261,-3.3261,-3.3337,-3.3399,-3.2981,-3.2275,-3.2519,-3.2622,-3.2583,-3.221,-3.209,-3.2128,-3.2053,-3.26,-3.3391,0.0,0.0,0.0,0.0,0.0,0.0,0.0,0.0,0.0,-1.5108,-1.3727,-1.2991,-1.3261,-1.3255,-1.4159,-1.6452,-1.7778,-1.916,0.0,0.0,-2.3064,-2.3971,-2.4567,-2.5014,-2.5234,-2.5135,-2.4969,-2.4801,-2.4591,-2.4484,-2.4484,-2.4598,-2.481,-2.5198,-2.6862,-2.7812,-2.8342,-3.0781,-3.231,-3.3192,-3.4136,-3.5456,-3.6954,-3.77,-3.8527,-3.9473,-4.0962,-4.1889,-4.2453,-4.2566,-4.2489,-4.2239,-4.1546,-4.0712,0.0,0.0,0.0,0.0,0.0,0.0,0.0,0.0,0.0,0.0,0.0,0.0,0.0,0.0,0.0,0.0,0.0,0.0,0.0,-3.2734,-3.2431,-3.1746,-3.0951,-2.9301,-2.8036,-2.7589,-2.8041,-2.8683,-2.9514,-2.9962,-3.0487,-3.1241,-3.0858,-3.0781,-3.1213,-3.0811,-3.0786,-3.1232,-3.07,-3.0658,-3.1148,-3.1129,-3.0897,-3.0415,-3.1784,0.0,-3.2976,-3.2311,-3.2368,-3.2919,-3.1623,-3.0964,-3.081,-3.0847,-3.0891,-3.0936,-3.1533,-3.2038,-3.2355,-3.1692,-3.2275,-3.3391,0.0,0.0,0.0,0.0,0.0,0.0,0.0,0.0,0.0,0.0,-1.4861,-1.3531,-1.2955,-1.239,-1.2855,-1.4823,-1.6705,0.0,0.0,-2.1342,-2.2255,-2.3637,-2.432,-2.487,-2.5338,-2.5258,-2.5172,-2.5094,-2.4929,-2.4842,-2.4842,-2.4936,-2.5465,-2.6348,-2.7415,-2.8623,-2.9938,-3.1317,-3.265,-3.3887,-3.4359,-3.557,-3.7142,-3.75,-3.8457,-3.9762,-4.0967,-4.1936,-4.2775,-4.3624,-4.3895,-4.3893,-4.3855,-4.3333,-4.2456,0.0,0.0,0.0,0.0,0.0,0.0,0.0,0.0,0.0,0.0,0.0,0.0,0.0,0.0,-3.0753,-3.1508,0.0,-3.3491,-3.4872,-3.4064,-3.3195,-3.3012,-3.1733,-3.0071,-2.8134,-2.8499,-2.9018,-2.9382,-3.0151,-3.071,-3.0891,-3.106,-3.1087,-3.0962,-3.0694,-3.0873,-3.1583,-3.0745,-3.0652,-3.1394,-3.0971,-3.0596,-3.0324,-3.1153,-3.184,-3.2396,-3.1987,-3.2032,-3.2359,-3.1513,-3.0898,-3.0506,-3.0506,-3.0506,-3.0544,-3.0987,-3.1271,-3.1402,-3.0986,-3.1828,-3.3163,0.0,0.0,0.0,0.0,0.0,0.0,0.0,0.0,0.0,0.0,-1.6157,-1.4462,-1.2878,-1.2238,-1.2475,0.0,0.0,0.0,0.0,-2.0384,-2.1244,-2.3118,-2.3899,-2.458,-2.5226,-2.5233,-2.525,-2.5241,-2.5083,-2.5088,-2.5279,-2.5428,-2.6339,-2.7876,-2.8345,-2.9718,-3.1684,-3.2199,-3.3312,-3.4746,-3.4978,-3.6013,-3.7398,-3.7281,-3.8254,-3.976,-4.0539,-4.1388,-4.2338,-4.3898,-4.4496,-4.4766,-4.5587,-4.5399,-4.4738,-4.3875,-4.3,0.0,0.0,0.0,0.0,0.0,0.0,0.0,0.0,-3.2508,-3.1886,-3.2534,-3.2854,-3.3304,-3.4232,-3.4627,-3.5385,-3.7207,-3.5684,-3.4458,-3.5034,-3.3924,-3.1951,-2.896,-2.9169,-2.9533,-2.947,-3.0423,-3.0925,-3.0533,-3.1333,-3.1476,-3.0633,-3.0765,-3.11,-3.162,-3.0962,-3.0951,-3.1642,-3.0951,-3.0595,-3.0595,-3.0595,-3.1069,-3.189,-3.1722,-3.1738,-3.1892,-3.1719,-3.1248,-3.0595,-3.0595,-3.0595,-3.0595,-3.0595,-3.0653,-3.0662,-3.051,-3.1391,-3.2711,0.0,0.0,0.0,0.0,0.0,0.0,0.0,0.0,0.0,0.0,0.0,0.0,0.0,0.0,0.0,0.0,0.0,0.0,-1.8862,-1.9226,-2.0116,-2.1754,-2.3068,-2.4057,-2.4675,-2.5148,-2.5371,-2.5383,-2.5351,-2.5775,-2.6584,-2.6557,-2.7087,-2.8123,-2.959,-3.0426,-3.0899,-3.3227,-3.4738,-3.5622,-3.6408,-3.7308,-3.8176,-3.8156,-3.8876,-3.9958,-4.0701,-4.1457,-4.2232,-4.3086,-4.38,-4.4499,-4.5362,-4.5655,-4.552,-4.4626,-4.3848,-4.3046,-4.2089,-4.122,-4.068,-4.1035,-3.9903,-3.925,0.0,-3.9789,-3.7933,-3.8223,-3.8231,-3.8325,-3.8872,-3.8645,-3.8861,-4.0203,-3.8028,-3.6233,-3.6281,-3.5546,-3.4297,-3.2445,-3.1427,-3.0825,-3.0716,-3.0457,-3.0367,-3.0482,-3.1415,-3.1574,-3.0652,-3.1396,-3.1516,-3.0776,-3.0652,-3.0652,-3.075,-3.0652,-3.0594,-3.0594,-3.0594,-3.1067,-3.1871,-3.1099,-3.1164,-3.1848,-3.1073,-3.0691,-3.0594,-3.0594,-3.0594,-3.0594,-3.0594,-3.1067,-3.1637,-3.0856,-3.1191,-3.2011,0.0,0.0,0.0,0.0,0.0,0.0,0.0,0.0,0.0,0.0,0.0,0.0,0.0,0.0,0.0,0.0,0.0,0.0,-1.6785,-1.7556,-1.8698,-2.0252,-2.1715,-2.2978,-2.4057,-2.4692,-2.5092,-2.5273,-2.5405,-2.5929,-2.6809,-2.728,-2.8246,-2.961,-3.0789,-3.2018,-3.3302,-3.4592,-3.5756,-3.6791,-3.7394,-3.8477,-3.9637,-3.9231,-3.9943,-4.1099,-4.0427,-4.0283,0.0,0.0,-4.2925,-4.3092,-4.4919,-4.4997,-4.4433,-4.4569,-4.3345,-4.2072,-4.2695,-4.2578,-4.2354,-4.2719,-4.2078,-4.1502,-4.2106,-4.0892,-3.9779,-4.0362,-4.0461,-4.048,-4.0745,-4.0793,-4.0834,-4.0934,-3.9075,-3.761,-3.761,-3.6464,-3.5578,-3.5454,-3.4711,-3.3636,-3.2101,-3.1909,-3.1738,-3.1403,-3.2228,-3.2173,-3.0852,-3.1638,-3.1697,-3.0801,-3.076,-3.076,-3.076,-3.076,-3.076,-3.078,-3.1287,-3.1465,-3.1326,-3.1465,-3.1443,-3.1301,-3.0936,-3.076,-3.076,-3.076,-3.076,-3.0816,-3.1325,-3.1448,-3.1261,-3.077,-3.1471,-3.2663,0.0,0.0,0.0,0.0,0.0,0.0,0.0,0.0,0.0,0.0,0.0,0.0,0.0,0.0,0.0,0.0,0.0,0.0,0.0,-1.5532,-1.656,-1.8136,-1.9688,-2.1191,-2.2666,-2.3585,-2.4296,-2.4798,-2.5269,-2.6149,-2.7344,-2.8154,-2.9435,-3.1085,-3.2172,-3.3511,-3.502,-3.5717,-3.6802,-3.808,-3.8363,-3.9522,-4.0977,-4.0212,-4.0689,-4.1564,-4.0268,-3.9675,0.0,0.0,-4.1639,-4.1475,-4.3254,-4.3156,-4.2501,-4.3137,-4.1869,-4.0662,-4.2439,-4.2922,-4.3065,-4.3629,-4.3714,-4.3466,-4.2736,-4.2065,-4.1706,-4.2194,-4.2363,-4.2468,-4.2604,-4.2706,-4.2531,-4.178,-4.0213,-3.8914,-3.8439,-3.7318,-3.6729,-3.7179,-3.6862,-3.5991,-3.44,-3.3793,-3.3095,-3.2055,-3.2791,-3.2563,-3.0912,-3.1631,-3.1729,-3.0831,-3.0811,-3.0811,-3.0811,-3.1073,-3.1191,-3.1211,-3.2109,-3.207,-3.1269,-3.166,-3.1504,-3.0898,-3.086,-3.0843,-3.0843,-3.0825,-3.0966,-3.1241,-3.187,-3.1875,-3.1521,-3.1368,-3.1841,-3.26,0.0,0.0,0.0,0.0,0.0,0.0,0.0,0.0,0.0,0.0,0.0,0.0,0.0,0.0,0.0,0.0,0.0,0.0,0.0,-1.3139,-1.3488,-1.5167,-1.6834,-1.847,-2.0072,-2.165,-2.2884,-2.374,-2.4991,-2.6631,-2.8669,-2.9325,-3.0555,-3.2219,-3.3817,-3.4559,-3.4708,-3.6368,-3.797,-3.9439,-3.9463,-4.0462,-4.1876,-4.1065,-4.0806,-4.0806,-4.048,0.0,0.0,0.0,-3.983,-3.9766,-3.9845,-3.9848,-3.981,-3.9848,-3.9292,-3.9109,-4.1195,-4.175,-4.2213,-4.4178,-4.5245,-4.5705,-4.5359,-4.5164,-4.4959,-4.4665,-4.4817,-4.5033,-4.5152,-4.4766,-4.4184,-4.344,-4.1918,-4.0239,-3.8531,-3.8262,-3.7916,-3.7117,-3.6943,-3.7225,-3.8047,-3.5969,-3.3816,-3.2048,-3.2765,-3.2503,-3.0703,-3.1435,-3.1512,-3.0631,-3.0611,-3.0611,-3.0611,-3.1511,-3.1973,-3.1973,-3.293,-3.2949,-3.2129,-3.1309,-3.0937,-3.0898,-3.0754,-3.0714,-3.0698,-3.0637,-3.1106,-3.1871,-3.1897,-3.2402,-3.3126,-3.3122,-3.2205,-3.1094,0.0,0.0,0.0,0.0,0.0,0.0,0.0,0.0,0.0,0.0,0.0,0.0,0.0,0.0,0.0,0.0,0.0,0.0,0.0,-1.2149,-1.2412,-1.334,-1.4553,-1.597,-1.759,-2.0131,-2.1714,-2.2244,-2.436,-2.6282,-2.7989,-2.9168,-3.082,-3.2919,-3.3979,-3.5436,-3.71,-3.7906,-3.9261,-4.0921,-4.1092,-4.1586,-4.2128,-4.0846,-4.044,-4.0359,0.0,0.0,0.0,-3.7624,-3.7327,-3.7081,-3.818,-3.7896,-3.6856,-3.5218,-3.6264,-3.8056,-3.8269,-4.0339,-4.2722,-4.3925,-4.5065,-4.587,-4.5752,-4.5695,-4.5622,-4.5514,-4.4672,-4.4001,-4.4135,-4.3889,-4.3212,-4.1891,-4.1169,-4.0368,-3.9185,-3.8606,-3.8186,-3.7896,-3.8812,-3.8951,-3.7577,-3.6127,-3.5031,-3.446,-3.4225,-3.3338,-3.1555,-3.1739,-3.1497,-3.0627,-3.0608,-3.0878,-3.1457,-3.1777,-3.222,-3.2786,-3.2526,-3.2257,-3.196,-3.1102,-3.1016,-3.1529,-3.0892,-3.1294,-3.2269,-3.1099,-3.1458,-3.2761,-3.2767,-3.2941,-3.3272,-3.3845,-3.3374,-3.2548,0.0,0.0,0.0,0.0,0.0,0.0,0.0,0.0,0.0,0.0,0.0,0.0,0.0,0.0,0.0,0.0,0.0,-1.2677,0.0,0.0,-1.1146,-1.1487,-1.2338,-1.3592,-1.5198,-1.7793,-1.9735,-2.0908,-2.319,-2.5152,-2.6809,-2.8451,-3.0322,-3.2323,-3.339,-3.5043,-3.7095,-3.761,-3.8842,-4.0409,-4.0361,-4.0738,-4.1211,-3.9431,-3.9009,0.0,0.0,0.0,0.0,-3.5385,-3.5235,-3.4997,-3.5735,-3.5372,-3.4411,-3.3099,-3.4513,-3.6564,-3.676,-3.8945,-4.1475,-4.2806,-4.3782,-4.4596,-4.5304,-4.5429,-4.5494,-4.5799,-4.4715,-4.3757,-4.3912,-4.3782,-4.2937,-4.0722,-4.0602,-4.0151,-3.8358,-3.7709,-3.7634,-3.8231,-3.8943,-3.912,-3.8387,-3.718,-3.6119,-3.526,-3.5013,-3.4128,-3.2358,-3.1973,-3.1557,-3.1006,-3.0698,-3.0956,-3.1808,-3.1847,-3.2463,-3.3664,-3.3109,-3.2826,-3.2807,-3.1926,-3.1831,-3.2326,-3.1726,-3.2086,-3.3045,-3.1891,-3.2083,-3.3122,-3.3429,-3.3358,-3.3237,-3.4424,-3.4314,-3.3647,0.0,0.0,0.0,0.0,0.0,0.0,0.0,0.0,0.0,0.0,0.0,0.0,0.0,0.0,0.0,0.0,0.0,0.0,0.0,0.0,0.0,-0.9731,-1.0265,-1.1377,-1.2966,-1.4832,-1.708,-1.9656,-2.1512,-2.3356,-2.5194,-2.7252,-2.9,-3.0489,-3.2009,-3.3463,-3.4789,-3.5568,-3.6724,-3.8033,-3.7403,-3.805,-3.91,-3.7014,0.0,0.0,0.0,0.0,-3.237,-3.3239,-3.3599,-3.3511,-3.277,-3.2506,-3.2611,-3.3369,-3.3955,-3.4757,-3.6575,-3.7598,-3.8723,-4.0883,-4.1577,-4.2221,-4.416,-4.4557,-4.4721,-4.5514,-4.4875,-4.4178,-4.4218,-4.4275,-4.327,-4.0119,-4.0333,-3.9741,-3.6417,-3.5923,-3.646,-3.7953,-3.7448,-3.7911,-4.0273,-3.9008,-3.7065,-3.4674,-3.518,-3.4853,-3.3122,-3.2199,-3.1698,-3.1698,-3.091,-3.0891,-3.1756,-3.1917,-3.2827,-3.4466,-3.4494,-3.4449,-3.4392,-3.357,-3.3211,-3.325,-3.3071,-3.3058,-3.3115,-3.2955,-3.2929,-3.3045,-3.3872,-3.368,-3.3179,-3.4872,-3.4988,-3.4295,0.0,0.0,0.0,0.0,0.0,0.0,0.0,0.0,0.0,0.0,0.0,0.0,0.0,0.0,0.0,0.0,0.0,0.0,0.0,0.0,0.0,0.0,0.0,0.0,0.0,0.0,0.0,0.0,0.0,-2.1882,-2.2986,-2.4834,-2.6508,-2.7936,-2.8999,-3.0761,-3.2926,-3.3102,-3.4006,-3.5248,0.0,-3.5729,-3.5806,0.0,0.0,0.0,0.0,0.0,-3.2321,-3.1499,-3.1905,-3.2782,-3.3076,-3.2792,-3.2458,-3.3045,-3.3547,-3.4059,-3.4932,-3.6583,-3.8189,-3.8761,-4.0291,-4.1928,-4.3038,-4.3989,-4.4534,-4.4092,-4.3092,-4.1911,-4.0684,-4.1208,-4.1347,-3.9915,-4.0361,-4.0191,-3.8086,-3.7513,-3.698,-3.6098,-3.7098,-3.7829,-3.7738,-3.8469,-3.843,-3.7142,-3.6122,-3.5334,-3.4872,-3.2852,-3.1698,-3.1698,-3.1487,-3.1756,-3.2583,-3.391,-3.4455,-3.4276,-3.4289,-3.3943,-3.3308,-3.3083,-3.3333,-3.391,-3.3218,-3.3647,-3.4762,-3.3449,-3.3276,-3.3891,-3.4103,-3.4064,-3.4007,-3.5103,-3.5372,-3.518,0.0,0.0,0.0,0.0,0.0,0.0,0.0,0.0,0.0,0.0,0.0,0.0,0.0,0.0,0.0,0.0,0.0,0.0,0.0,0.0,0.0,0.0,0.0,0.0,0.0,0.0,0.0,0.0,0.0,0.0,0.0,-2.2546,-2.3754,-2.4824,-2.5883,-2.7341,-2.9141,-2.9662,0.0,0.0,0.0,0.0,0.0,0.0,0.0,0.0,0.0,-3.1243,-3.1435,-3.1393,-3.2048,-3.2945,-3.3278,-3.3319,-3.3294,-3.3494,-3.3825,-3.423,-3.4371,-3.552,-3.6734,-3.687,-3.8007,-3.945,-4.0781,-4.1642,-4.212,-4.1982,-4.1338,-4.0358,-3.9075,-4.0271,-4.069,-3.8415,-3.9301,-3.9593,-3.7602,-3.6784,-3.6341,-3.6214,-3.6886,-3.7341,-3.7281,-3.8507,-3.9104,-3.8604,-3.77,-3.6834,-3.6084,-3.4353,-3.3199,-3.2814,-3.2429,-3.2391,-3.2732,-3.4581,-3.4942,-3.3859,-3.4355,-3.4278,-3.3688,-3.3819,-3.4131,-3.4572,-3.4197,-3.4529,-3.5243,-3.4266,-3.3861,-3.3898,-3.426,-3.4184,-3.3955,-3.4833,-3.5138,-3.5174,0.0,0.0,0.0,0.0,0.0,0.0,0.0,0.0,0.0,0.0,0.0,0.0,0.0,0.0,0.0,0.0,0.0,0.0,0.0,0.0,0.0,0.0,0.0,0.0,0.0,0.0,0.0,0.0,0.0,0.0,0.0,0.0,0.0,0.0,0.0,0.0,0.0,0.0,0.0,0.0,0.0,0.0,0.0,0.0,0.0,0.0,-2.9665,-2.9554,-3.0208,-3.1845,-3.2851,-3.347,-3.3661,-3.4047,-3.4489,-3.441,-3.4524,-3.4622,-3.4505,-3.4636,-3.4917,-3.52,-3.5687,-3.6496,-3.8099,-3.8766,-3.9146,-3.949,-3.9496,-3.9184,-3.8177,-3.9782,-4.0121,-3.6653,-3.7753,-3.8353,-3.6349,-3.5421,-3.5499,-3.7053,-3.669,-3.6736,-3.7832,-3.8666,-3.9219,-3.9431,-3.945,-3.87,-3.6969,-3.6007,-3.5089,-3.4191,-3.3396,-3.29,-3.279,-3.4508,-3.4776,-3.3579,-3.4565,-3.4926,-3.4694,-3.4944,-3.5053,-3.507,-3.5289,-3.5254,-3.5053,-3.5053,-3.4395,-3.3485,-3.4353,-3.4165,-3.3504,-3.4392,-3.4694,-3.4734,0.0,0.0,0.0,0.0,0.0,0.0,0.0,0.0,0.0,0.0,0.0,0.0,0.0,0.0,0.0,0.0,0.0,0.0,0.0,0.0,0.0,0.0,0.0,0.0,0.0,-1.2307,-1.3295,-1.4601,-1.5838,0.0,0.0,0.0,0.0,0.0,0.0,0.0,0.0,0.0,0.0,0.0,0.0,0.0,0.0,0.0,0.0,0.0,-2.9129,-2.9094,-2.9408,-3.0656,-3.2061,-3.3395,-3.4794,-3.4905,-3.4725,-3.5719,-3.4958,-3.4038,-3.5008,-3.4666,-3.4036,-3.4071,-3.5544,-3.6828,-3.6299,-3.8092,-3.93,-3.7165,-3.7566,-3.7704,-3.5787,-3.6174,-3.6843,-3.7016,-3.6856,-3.6901,-3.7471,-3.7051,-3.6472,-3.5904,-3.6119,-3.6649,-3.7578,-3.8012,-3.8796,-4.0181,-4.0277,-3.9546,-3.7853,-3.6334,-3.4995,-3.391,-3.352,-3.3639,-3.4301,-3.4661,-3.4717,-3.4486,-3.4659,-3.4753,-3.4694,-3.4734,-3.4754,-3.4774,-3.4832,-3.4813,-3.4754,-3.4754,-3.4223,-3.3485,-3.4353,-3.4165,-3.3504,-3.4392,-3.4694,-3.4713,0.0,0.0,0.0,0.0,0.0,0.0,0.0,0.0,0.0,0.0,-1.7693,0.0,0.0,0.0,0.0,0.0,0.0,0.0,0.0,0.0,0.0,0.0,0.0,0.0,0.0,-1.2837,-1.3535,-1.4439,0.0,-1.6079,-1.6657,-1.6931,-1.7033,-1.7053,-1.7864,-1.8301,0.0,0.0,0.0,0.0,-2.1497,-2.2744,0.0,0.0,0.0,0.0,0.0,-2.8684,-2.8498,-2.9893,-3.055,-3.119,-3.356,-3.413,-3.4078,-3.4975,-3.4621,-3.4081,-3.4871,-3.46,-3.4146,-3.4593,-3.551,-3.6077,-3.5096,-3.6329,-3.709,-3.4886,-3.5528,-3.5928,-3.4272,-3.4933,-3.5429,-3.4588,-3.5095,-3.568,-3.5954,-3.5954,-3.58,-3.54,-3.5531,-3.5869,-3.6314,-3.7215,-3.8308,-3.9522,-4.0055,-3.9819,-3.8738,-3.6919,-3.5468,-3.4514,-3.4207,-3.4198,-3.4445,-3.4593,-3.4548,-3.4232,-3.4375,-3.4375,-3.4232,-3.4375,-3.4423,-3.4445,-3.4614,-3.4593,-3.4423,-3.4423,-3.411,-3.365,-3.4083,-3.399,-3.365,-3.4083,-3.4232,-3.4255,0.0,0.0,0.0,0.0,0.0,0.0,0.0,-1.6951,-1.7518,-1.8087,-1.8551,-1.8825,-1.8876,-1.7755,0.0,0.0,0.0,0.0,0.0,0.0,0.0,0.0,0.0,0.0,0.0,0.0,0.0,-1.4465,-1.5118,0.0,0.0,0.0,0.0,0.0,-1.6387,-1.6396,-1.6174,-1.7624,0.0,0.0,0.0,-2.1558,0.0,0.0,0.0,0.0,0.0,-2.7758,-2.7419,-2.8411,-2.8305,-2.817,-3.0687,-3.2198,-3.315,-3.3695,-3.3968,-3.4172,-3.4653,-3.4588,-3.4562,-3.5303,-3.5666,-3.5572,-3.4383,-3.4971,-3.52,-3.3215,-3.3776,-3.4269,-3.3122,-3.3719,-3.383,-3.2177,-3.2976,-3.3978,-3.4354,-3.4616,-3.4921,-3.5313,-3.5361,-3.5381,-3.5457,-3.6753,-3.7916,-3.8738,-3.9372,-3.9509,-3.8965,-3.7215,-3.5817,-3.4926,-3.4634,-3.4375,-3.4123,-3.4375,-3.4372,-3.4064,-3.4111,-3.4086,-3.4045,-3.4111,-3.4123,-3.4123,-3.4398,-3.4353,-3.4123,-3.4123,-3.3986,-3.3807,-3.3807,-3.3807,-3.3807,-3.3807,-3.3807,-3.3823,0.0,0.0,0.0,0.0,0.0,0.0,0.0,-1.6951,-1.7639,-1.8603,-1.8792,-1.9368,-2.0936,-1.9611,0.0,0.0,0.0,0.0,0.0,0.0,0.0,0.0,0.0,0.0,0.0,0.0,0.0,-1.3684,-1.4849,0.0,0.0,0.0,0.0,0.0,0.0,-1.6103,-1.6154,-1.6635,0.0,0.0,0.0,0.0,0.0,0.0,0.0,0.0,0.0,-2.5456,-2.5661,-2.5044,-2.4784,-2.492,-2.5981,-2.8889,-3.2021,-3.2547,-3.3185,-3.3952,-3.4813,-3.4864,-3.4817,-3.5364,-3.6292,-3.647,-3.4338,-3.5266,-3.5725,-3.272,-3.2785,-3.3055,-3.2109,-3.0976,-3.0612,-3.2032,-3.0845,-3.1016,-3.4614,-3.4664,-3.4722,-3.5732,-3.6059,-3.62,-3.6269,-3.708,-3.7925,-3.8756,-3.8658,-3.8321,-3.779,-3.6596,-3.5423,-3.433,-3.4037,-3.3868,-3.3842,-3.3868,-3.4209,-3.4862,-3.4164,-3.4219,-3.4862,-3.4164,-3.3842,-3.3842,-3.3868,-3.3868,-3.3842,-3.3842,-3.3815,-3.3807,-3.3807,-3.3807,-3.3807,-3.3807,-3.3807,-3.3697,0.0,0.0,0.0,0.0,0.0,0.0,0.0,-1.6951,-1.7639,-1.8679,-1.9067,-1.9804,-2.1196,-2.0749,0.0,0.0,0.0,0.0,0.0,0.0,0.0,0.0,0.0,0.0,0.0,0.0,-1.4314,-1.4483,-1.487,0.0,0.0,0.0,0.0,0.0,0.0,-1.6581,-1.7005,-1.7482,0.0,0.0,0.0,0.0,0.0,0.0,0.0,0.0,0.0,0.0,-2.3855,-2.3826,-2.3238,-2.2634,-2.2932,-2.4713,-2.7181,-3.0145,-3.1612,-3.256,-3.3598,-3.4402,-3.5022,-3.5364,-3.5456,-3.5144,-3.3957,-3.4141,-3.4025,-3.1995,-3.221,-3.2423,-3.1342,-3.03,-2.9748,-3.0173,-2.9279,-2.9372,-3.1687,-3.1946,-3.2321,-3.3516,-3.3795,-3.42,-3.5011,-3.5811,-3.67,-3.7763,-3.8342,-3.8182,-3.7118,-3.6182,-3.5289,-3.4526,-3.4037,-3.4027,-3.4523,-3.4523,-3.466,-3.499,-3.4688,-3.4449,-3.4284,-3.3954,-3.3807,-3.3807,-3.3807,-3.3807,-3.3807,-3.3807,-3.41,-3.4486,-3.399,-3.41,-3.4468,-3.3972,-3.3495,-3.3036,0.0,0.0,0.0,0.0,0.0,0.0,-1.6213,-1.6685,-1.7423,-1.8436,-1.8861,-1.9568,-2.0926,-2.1111,-2.1008,-2.0511,0.0,0.0,0.0,0.0,0.0,0.0,0.0,0.0,0.0,0.0,-1.5336,-1.5647,-1.541,-1.5459,0.0,0.0,-1.569,-1.6208,0.0,0.0,0.0,0.0,0.0,0.0,0.0,0.0,0.0,0.0,0.0,0.0,0.0,0.0,0.0,0.0,0.0,-2.1296,-2.0886,-2.1307,-2.2799,-2.6934,-2.9238,-3.0658,-3.1588,-3.2973,-3.4219,-3.4629,-3.4168,-3.36,-3.3653,-3.3324,-3.2711,-3.1661,-3.1895,-3.1934,-3.0732,-2.992,-2.9438,0.0,-2.8675,-2.8586,-2.9986,-3.0237,-3.0578,-3.1475,-3.1814,-3.2244,-3.3176,-3.397,-3.4993,-3.6453,-3.6973,-3.7017,-3.6504,-3.5528,-3.5032,-3.5165,-3.453,-3.4559,-3.5385,-3.4908,-3.4908,-3.5385,-3.4862,-3.4412,-3.3972,-3.3716,-3.355,-3.3419,-3.3419,-3.3476,-3.3606,-3.3606,-3.4027,-3.4596,-3.4027,-3.4156,-3.4596,-3.4009,-3.3293,-3.2577,0.0,0.0,0.0,0.0,0.0,0.0,0.0,-1.6046,-1.6777,-1.7877,-1.7885,-1.8507,-2.0295,-2.0571,-2.0924,-2.1614,0.0,0.0,0.0,0.0,0.0,0.0,0.0,0.0,0.0,0.0,-1.7058,-1.6957,-1.6642,-1.6482,-1.6492,-1.5748,-1.541,-1.5468,0.0,0.0,0.0,0.0,0.0,0.0,0.0,0.0,0.0,0.0,0.0,0.0,0.0,0.0,0.0,0.0,0.0,0.0,0.0,-1.932,-1.9931,-2.2882,-2.5942,-2.8398,-2.883,-3.0404,-3.2098,-3.2918,-3.2528,-3.2247,-3.351,-3.3178,-3.2451,-3.1915,-3.1808,-3.1472,-3.0302,-2.9482,-2.936,-3.0508,-2.9218,-2.8739,-3.0623,-3.0492,-3.0214,-3.0234,-3.0707,-3.1023,-3.1049,-3.1701,-3.2965,-3.4881,-3.4128,-3.4261,-3.5926,-3.4614,-3.4559,-3.624,-3.544,-3.5422,-3.6266,-3.4633,-3.4651,-3.6266,-3.4614,-3.4016,-3.437,-3.3575,-3.2952,-3.2517,-3.2517,-3.2777,-3.3214,-3.3214,-3.3437,-3.3807,-3.3807,-3.3807,-3.3807,-3.3807,-3.3293,-3.2504,0.0,0.0,0.0,0.0,0.0,0.0,0.0,-1.5398,-1.564,-1.6777,-1.6863,-1.7337,-1.8659,-1.999,-2.1038,-2.1657,0.0,0.0,0.0,0.0,0.0,0.0,0.0,0.0,0.0,0.0,0.0,-1.7058,-1.6454,-1.633,-1.671,-1.6483,-1.6716,-1.7384,-1.7288,-1.7712,0.0,0.0,0.0,0.0,0.0,0.0,-2.2689,0.0,0.0,0.0,0.0,0.0,0.0,0.0,0.0,0.0,0.0,0.0,0.0,-1.8786,-2.1881,-2.5219,-2.5671,-2.7067,-2.8524,-2.8924,-2.8553,-2.8607,-3.0392,-3.0319,-3.0027,-3.0644,-3.1106,-3.0976,-2.9604,-2.9144,-2.9206,-2.9833,-2.8935,-2.8755,-3.0545,-2.9885,-2.9166,-2.9073,-2.8876,-2.8844,-2.9214,-2.9431,-3.013,-3.1539,-3.2244,-3.2943,-3.3757,-3.46,-3.5499,-3.6544,-3.4999,-3.4871,-3.6285,-3.5183,-3.4908,-3.5422,-3.5477,-3.4819,-3.3593,-3.39,-3.3454,-3.2482,-3.1983,-3.2309,-3.3178,-3.2665,-3.3302,-3.4578,-3.4009,-3.4137,-3.4559,-3.4009,-3.2944,-3.1733,0.0,0.0,0.0,0.0,0.0,0.0,0.0,-1.4732,-1.4778,-1.5959,-1.5684,-1.5985,-1.7552,-1.9,-2.0368,-2.1599,0.0,0.0,0.0,0.0,0.0,0.0,0.0,0.0,0.0,0.0,-1.7255,-1.7824,-1.7281,-1.7078,-1.7206,-1.712,-1.7456,-1.8043,-1.8244,-1.86,0.0,0.0,0.0,0.0,0.0,0.0,-2.3211,0.0,0.0,0.0,0.0,0.0,0.0,0.0,0.0,0.0,0.0,0.0,0.0,0.0,-1.8776,-2.0805,-2.1574,-2.2947,-2.43,-2.4883,-2.4745,-2.5048,-2.7297,-2.7595,-2.7662,-2.8666,-2.9568,-2.9779,-2.8561,-2.8732,-2.9201,-2.9608,-2.9205,-2.9231,-3.032,-2.9621,-2.8615,-2.7424,-2.6253,-2.5871,-2.6465,-2.65,-2.704,-2.8449,-2.9624,-3.0718,-3.1725,-3.302,-3.4307,-3.5642,-3.4608,-3.4673,-3.6006,-3.4727,-3.4298,-3.4772,-3.502,-3.4448,-3.3202,-3.3535,-3.3016,-3.1774,-3.1183,-3.1436,0.0,-3.1462,-3.2283,-3.3984,-3.3395,-3.3633,-3.4272,-3.3936,-3.2779,-3.1384,0.0,0.0,0.0,0.0,0.0,0.0,0.0,0.0,0.0,0.0,-1.4584,-1.4704,-1.6913,-1.776,-1.912,0.0,0.0,0.0,0.0,0.0,0.0,0.0,0.0,0.0,0.0,-1.8169,-1.8455,-1.892,-1.8721,-1.836,-1.7934,-1.7763,-1.7739,-1.7843,-1.8978,-1.9221,0.0,0.0,0.0,0.0,0.0,0.0,0.0,0.0,0.0,0.0,0.0,0.0,0.0,0.0,0.0,0.0,0.0,0.0,0.0,0.0,0.0,0.0,0.0,-1.8287,-1.9712,-2.0884,-2.1089,-2.1643,-2.4204,-2.4985,0.0,-2.6184,-2.7324,-2.7971,-2.729,-2.8142,-2.9114,-2.9559,-2.9842,-3.0009,-2.9964,-2.9607,-2.8284,-2.5408,-2.3306,-2.2377,-2.318,-2.3059,-2.3774,-2.5643,-2.6376,-2.7657,-2.9729,-3.0212,-3.1409,-3.3575,-3.3947,-3.4533,-3.5457,-3.3494,-3.3087,-3.4253,-3.3568,-3.3208,-3.3075,-3.2719,-3.1897,-3.0716,-3.0279,-3.0319,-3.0647,-2.997,-3.0763,-3.2429,-3.2224,-3.2552,-3.3214,-3.3578,-3.2682,-3.1334,0.0,0.0,0.0,0.0,0.0,0.0,0.0,0.0,0.0,0.0,0.0,-1.5005,-1.6428,-1.7542,0.0,0.0,0.0,0.0,0.0,0.0,0.0,0.0,0.0,0.0,0.0,-1.791,-1.8267,-1.8405,-1.7953,-1.7834,-1.813,-1.8405,-1.891,-1.966,-1.9451,0.0,0.0,0.0,0.0,0.0,0.0,0.0,0.0,0.0,0.0,0.0,-2.176,-2.1904,0.0,0.0,0.0,0.0,0.0,0.0,0.0,0.0,-1.541,-1.3874,-1.4048,0.0,-1.5836,-1.677,-1.746,-1.8507,0.0,-2.2326,-2.3449,-2.4787,-2.5636,-2.609,-2.5757,-2.6401,-2.7166,-2.7727,-2.8721,-2.9613,-3.0268,-2.8363,-2.6218,-2.4299,-2.225,-2.0921,-2.0751,-2.068,-2.1499,-2.3539,-2.3595,-2.4589,-2.7047,-2.8164,-2.91,-3.0091,-3.0714,-3.2056,-3.4138,-3.3062,-3.2639,-3.2965,-3.3375,-3.3101,-3.2231,-3.272,-3.2291,-3.1062,-3.0383,-3.0404,-3.0823,-3.0541,-3.0994,-3.183,-3.2269,-3.2521,-3.2681,-3.2777,-3.1809,-3.0545,0.0,0.0,0.0,0.0,0.0,0.0,0.0,0.0,0.0,0.0,0.0,0.0,0.0,0.0,0.0,0.0,0.0,0.0,0.0,0.0,0.0,0.0,0.0,0.0,0.0,-1.8314,-1.8298,-1.7798,-1.8017,-1.7856,-1.739,-1.8587,-1.9627,-2.0457,-2.0368,0.0,0.0,0.0,0.0,0.0,-2.3592,0.0,0.0,0.0,0.0,0.0,-2.1526,-2.1806,0.0,-2.1656,-2.1141,-2.062,0.0,0.0,0.0,0.0,-1.5195,-1.3412,-1.2882,-1.2727,-1.2979,-1.3913,-1.4971,-1.6169,-1.791,-1.9519,-2.0991,-2.2129,-2.2811,-2.339,-2.3933,-2.4784,-2.5714,-2.6701,-2.8199,-2.9259,-2.9337,-2.662,-2.4122,-2.2803,-2.0593,-1.9055,-1.8754,-1.8908,-1.9482,-2.0624,-2.1231,-2.2365,-2.4341,-2.606,-2.7328,-2.8186,-2.9198,-3.0444,-3.1981,-3.1411,-3.1168,-3.1359,-3.1792,-3.1792,-3.1373,-3.1874,-3.1534,-3.0531,-2.9923,-2.9861,-3.0078,-2.9381,-2.9837,-3.1019,-3.1215,-3.162,-3.2161,-3.2044,-3.1225,-3.0194,0.0,0.0,0.0,0.0,0.0,0.0,0.0,0.0,0.0,0.0,0.0,0.0,0.0,0.0,0.0,0.0,0.0,0.0,0.0,0.0,0.0,0.0,0.0,0.0,-1.8797,-1.8784,-1.8216,-1.7159,-1.805,-1.7779,-1.6421,-1.8408,-1.99,-2.0951,-2.1492,0.0,0.0,0.0,-2.257,-2.3929,-2.3106,0.0,0.0,0.0,0.0,0.0,0.0,0.0,0.0,-2.214,-2.144,-2.0676,-2.0579,0.0,0.0,0.0,0.0,0.0,-1.2714,-1.1775,-1.1187,-1.1941,-1.3035,-1.4224,-1.5409,-1.6949,-1.8319,-1.9169,-1.9726,-2.0471,-2.1872,-2.3046,-2.4259,-2.5736,-2.772,-2.8904,-2.8284,-2.5354,-2.2822,-2.1666,-1.9274,-1.7641,-1.7382,-1.7698,-1.7973,-1.8169,-1.9329,-2.0672,-2.2122,-2.4058,-2.5716,-2.6914,-2.8261,-2.9175,-2.9637,-2.946,-2.9565,-2.991,-2.991,-3.0112,-3.0516,-3.0633,-3.0404,-2.9854,-2.9523,-2.9264,-2.9034,-2.8174,-2.8589,-2.9872,-2.9962,-3.0575,-3.1355,-3.1249,-3.0624,-2.973,0.0,0.0,0.0,0.0,0.0,0.0,0.0,0.0,0.0,0.0,0.0,0.0,0.0,0.0,0.0,0.0,0.0,0.0,0.0,0.0,0.0,0.0,0.0,-1.8044,-1.8082,-1.7724,-1.7231,-1.6538,-1.6208,-1.617,-1.6421,-1.753,-1.9435,-2.1904,-2.2181,-2.2612,-2.3146,-2.2524,-2.2382,-2.2539,-2.1809,0.0,0.0,0.0,0.0,0.0,0.0,0.0,0.0,-2.0989,-2.0857,-2.0596,-2.0027,0.0,0.0,0.0,0.0,0.0,-1.3112,-1.1912,-1.1077,-1.0933,-1.1024,-1.171,-1.3888,-1.5148,-1.6198,-1.7654,-1.7995,-1.8347,-1.9437,-2.0502,-2.1758,-2.3352,-2.6423,-2.8722,-2.9011,-2.6876,-2.4536,-2.2426,-2.0438,-1.8728,-1.7355,-1.728,-1.7743,-1.884,-1.8363,-1.912,-2.1475,-2.255,-2.3642,-2.4913,-2.6269,-2.7297,-2.7947,-2.8934,-2.9435,-2.9508,-2.9508,-2.9536,-2.9609,-2.9625,-2.9837,-3.022,-3.017,-2.9499,-2.8608,-3.0011,-2.9452,-2.7978,-3.0145,-3.037,-2.951,-3.0057,-2.9396,-2.8101,0.0,0.0,0.0,0.0,0.0,0.0,0.0,0.0,0.0,0.0,0.0,0.0,0.0,0.0,0.0,0.0,0.0,0.0,0.0,0.0,0.0,0.0,-1.8314,-1.7946,-1.8472,-1.8007,-1.7171,-1.5903,-1.595,-1.5823,-1.5531,-1.8466,-2.0828,-2.2713,-2.385,-2.4157,-2.3769,-2.354,-2.3002,-2.2309,0.0,0.0,0.0,0.0,0.0,0.0,0.0,0.0,0.0,0.0,-1.9923,-1.9698,-1.9698,0.0,0.0,0.0,0.0,0.0,-1.3862,-1.2253,-1.0842,-1.0336,-1.0705,-1.1363,-1.2005,-1.3468,-1.5041,-1.6115,-1.6384,-1.6899,-1.8411,-1.9356,-2.1014,-2.4286,-2.6279,-2.7415,-2.7598,-2.5848,-2.3858,-2.19,-2.031,-1.8836,-1.7492,-1.737,-1.7353,-1.7434,-1.7599,-1.8419,-1.9921,-2.1351,-2.2734,-2.3975,-2.5322,-2.6177,-2.6512,-2.7454,-2.8077,-2.8448,-2.8077,-2.8092,-2.8448,-2.8779,-2.9058,-2.9361,-2.9673,-2.927,-2.8394,-2.9303,-2.887,-2.7867,-2.9052,-2.9324,-2.8975,-2.8907,-2.8163,-2.725,0.0,0.0,0.0,0.0,0.0,0.0,0.0,0.0,0.0,0.0,0.0,0.0,0.0,0.0,0.0,0.0,0.0,0.0,0.0,0.0,-1.9396,-1.8834,-1.7701,-1.7496,-1.8363,-1.7592,-1.6468,-1.5115,-1.5436,-1.5337,-1.496,-1.9181,-2.1736,-2.2864,-2.4792,-2.5129,-2.4282,-2.4283,-2.3489,-2.2152,0.0,0.0,0.0,0.0,0.0,0.0,0.0,0.0,0.0,0.0,0.0,0.0,0.0,0.0,0.0,-1.8387,-1.7545,-1.6403,-1.4782,-1.2876,-1.1104,-0.9846,-1.0301,-1.089,-1.0586,-1.2043,-1.3859,-1.4961,-1.5223,-1.5792,-1.7589,-1.8695,-2.0583,-2.4583,-2.5666,-2.6074,-2.6274,-2.4807,-2.3161,-2.1847,-2.0258,-1.8838,-1.7684,-1.75,-1.7089,-1.6322,-1.7175,-1.804,-1.8734,-2.0411,-2.1976,-2.3354,-2.4362,-2.512,-2.5615,-2.5804,-2.6293,-2.7111,-2.6752,-2.6856,-2.74,-2.8015,-2.8463,-2.8748,-2.918,-2.8954,-2.8323,-2.8585,-2.8298,-2.7674,-2.8136,-2.849,-2.8619,-2.7841,-2.7182,-2.6776,0.0,0.0,0.0,0.0,0.0,0.0,0.0,0.0,0.0,0.0,0.0,0.0,0.0,0.0,0.0,0.0,0.0,0.0,0.0,0.0,-1.8796,-1.8169,-1.6985,-1.6448,-1.6585,-1.4951,-1.4041,-1.3915,-1.3375,-1.3931,-1.5516,-1.8453,-2.0524,-2.1849,-2.3494,-2.4253,-2.4282,-2.4311,-2.3297,-2.1498,-2.0104,0.0,0.0,0.0,0.0,0.0,0.0,0.0,0.0,0.0,0.0,0.0,0.0,0.0,-1.953,-1.8991,-1.8401,-1.7491,-1.5757,-1.4099,-1.2184,-0.9566,-0.8783,-0.8944,-1.0243,-1.1016,-1.2134,-1.4478,-1.4949,-1.5334,-1.6592,-1.8137,-1.9853,-2.1716,-2.3554,-2.5123,-2.6231,-2.5102,-2.3967,-2.339,-2.1107,-1.9139,-1.8001,-1.7399,-1.7093,-1.7022,-1.7095,-1.7701,-1.8896,-1.9572,-2.0809,-2.2705,-2.2785,-2.3691,-2.5568,-2.4391,-2.4433,-2.5749,-2.6318,-2.6617,-2.6677,-2.734,-2.8271,-2.9316,-2.9361,-2.8941,-2.8289,-2.9465,-2.8473,-2.6346,-2.8236,-2.8499,-2.7824,-2.7046,-2.6742,-2.6708,0.0,0.0,0.0,0.0,0.0,0.0,0.0,0.0,0.0,0.0,0.0,0.0,0.0,0.0,0.0,0.0,0.0,0.0,0.0,0.0,-1.861,-1.7639,-1.6389,-1.546,-1.4956,-1.3286,-1.2455,-1.2503,-1.3501,-1.4913,-1.6621,-1.9225,-2.1072,-2.231,-2.4834,-2.5285,-2.4253,-2.5419,-2.443,-2.1999,-2.1011,-1.9131,0.0,0.0,0.0,0.0,0.0,0.0,0.0,0.0,-1.6998,-1.7531,0.0,-1.9043,-1.9244,-1.9369,-1.8991,-1.8271,-1.6907,-1.5239,-1.3306,-1.0773,-0.9707,-0.9128,-0.8628,-0.9774,-1.1399,-1.2738,-1.4005,-1.5206,-1.6453,-1.8054,-1.9596,-2.0974,-2.2734,-2.4071,-2.4537,-2.4395,-2.3701,-2.24,-2.1339,-2.0021,-1.826,-1.7887,-1.7476,-1.679,-1.7085,-1.7486,-1.799,-1.9256,-2.0444,-2.1578,-2.2679,-2.3645,-2.4358,-2.4256,-2.4256,-2.4373,-2.4996,-2.5766,-2.6602,-2.6841,-2.7418,-2.8183,-2.8573,-2.8188,-2.746,-2.8317,-2.7786,-2.6503,-2.7248,-2.7385,-2.708,-2.6793,-2.6691,-2.6691,0.0,0.0,0.0,0.0,0.0,0.0,0.0,0.0,0.0,0.0,0.0,0.0,0.0,0.0,0.0,0.0,0.0,0.0,0.0,0.0,-1.7946,-1.7339,-1.5831,-1.4397,-1.2953,-1.1232,-1.0623,-1.121,-1.3523,-1.5472,-1.7018,-1.9488,-2.1017,-2.1817,-2.4796,-2.5169,-2.366,-2.5454,-2.4846,-2.2574,-2.189,-2.0078,0.0,0.0,0.0,0.0,0.0,0.0,0.0,0.0,-1.5648,0.0,0.0,0.0,0.0,-1.9222,-1.9148,-1.8633,-1.7718,-1.6143,-1.4189,-1.1713,-1.0118,-0.8791,-0.7694,-0.911,-1.0923,-1.1914,-1.37,-1.5411,-1.6456,-1.7645,-1.8728,-1.9577,-2.1178,-2.2435,-2.2596,-2.3126,-2.3011,-2.166,-2.1212,-2.0323,-1.8576,-1.8089,-1.7591,-1.682,-1.6961,-1.7187,-1.7375,-1.8702,-1.9785,-2.055,-2.2024,-2.2975,-2.331,-2.3746,-2.3849,-2.361,-2.401,-2.4815,-2.5974,-2.6183,-2.667,-2.7373,-2.7799,-2.7672,-2.7234,-2.7631,-2.7385,-2.6691,-2.6691,-2.6691,-2.6691,-2.6691,-2.6691,-2.6691,0.0,0.0,0.0,0.0,0.0,0.0,0.0,0.0,0.0,0.0,0.0,0.0,0.0,0.0,0.0,0.0,0.0,0.0,0.0,-1.6033,-1.6657,-1.7242,-1.5508,-1.3232,-1.0459,-0.858,-0.8463,-1.0097,-1.3209,-1.5264,-1.6459,-1.8952,-2.0006,-2.0023,-2.2838,-2.3427,-2.2421,-2.4094,-2.4124,-2.3055,-2.2598,-2.0818,-1.8189,0.0,0.0,0.0,0.0,0.0,0.0,0.0,-1.4,-1.5592,0.0,0.0,0.0,-1.8527,-1.8789,-1.8628,-1.8212,-1.6718,-1.4706,-1.2263,-0.9627,-0.7664,-0.7711,-0.9052,-1.0715,-1.2315,-1.427,-1.589,-1.6501,-1.6887,-1.7108,-1.7096,-1.8702,-2.0075,-2.0621,-2.1427,-2.1877,-2.1526,-2.0721,-1.9878,-1.8991,-1.7947,-1.7312,-1.7312,-1.6837,-1.676,-1.7383,-1.7917,-1.8709,-1.9874,-2.0509,-2.1437,-2.2667,-2.2597,-2.2942,-2.3595,-2.3499,-2.388,-2.4612,-2.53,-2.6182,-2.7278,-2.7278,-2.7496,-2.7772,-2.7772,-2.7368,-2.6691,-2.6691,-2.6691,-2.6691,-2.6691,-2.6691,-2.6691,0.0,0.0,0.0,0.0,0.0,0.0,0.0,0.0,0.0,0.0,0.0,0.0,0.0,0.0,0.0,0.0,0.0,0.0,0.0,-1.6033,-1.649,-1.6645,-1.5665,-1.3864,-1.1243,-1.0015,-0.9747,-1.0392,-1.3011,-1.5269,-1.7156,-1.8692,-1.9767,-2.0489,-2.2512,-2.3058,-2.2619,-2.4252,-2.425,-2.3112,-2.325,-2.2205,-2.0239,0.0,0.0,0.0,0.0,0.0,0.0,0.0,0.0,0.0,0.0,0.0,0.0,-1.7491,-1.7903,-1.8122,-1.8096,-1.705,-1.5443,-1.3461,-1.1345,-0.9548,-0.8666,-0.8811,-1.0091,-1.3195,-1.4337,-1.5092,-1.6078,-1.7003,-1.7659,-1.7727,-1.8859,-1.9804,-1.9979,-2.0747,-2.1147,-2.0708,-2.099,-2.0717,-1.9513,-1.9082,-1.8631,-1.7907,-1.7706,-1.7706,-1.7894,-1.8851,-1.954,-1.9888,-2.0903,-2.1624,-2.1979,-2.1966,-2.2275,-2.2951,-2.2975,-2.3496,-2.4597,-2.4837,-2.5287,-2.5994,-2.637,-2.6529,-2.6559,-2.6875,-2.6894,-2.6691,-2.6691,-2.6691,-2.6691,-2.6691,-2.6691,-2.6691,0.0,0.0,0.0,0.0,0.0,0.0,0.0,0.0,0.0,0.0,0.0,0.0,0.0,0.0,0.0,0.0,0.0,0.0,0.0,0.0,-1.6192,-1.6407,-1.58,-1.4279,-1.1648,-1.0622,-1.0398,-1.0959,-1.2749,-1.4653,-1.6728,-1.7889,-1.8852,-1.9691,-2.1522,-2.2205,-2.2084,-2.384,-2.4121,-2.3454,-2.3922,-2.3238,-2.1758,0.0,0.0,0.0,0.0,0.0,0.0,0.0,0.0,0.0,0.0,0.0,0.0,-1.6629,-1.7351,-1.7941,-1.8057,-1.7343,-1.6169,-1.4351,-1.2282,-1.0455,-0.937,-0.9541,-1.0764,-1.3879,-1.4865,-1.5499,-1.643,-1.7491,-1.8259,-1.8289,-1.908,-1.9657,-1.9657,-2.0428,-2.0829,-2.0348,-2.1054,-2.1212,-2.0249,-1.9818,-1.9353,-1.8722,-1.8327,-1.8106,-1.8106,-1.8995,-1.9483,-1.9483,-2.0661,-2.1306,-2.1306,-2.156,-2.1889,-2.2278,-2.2278,-2.2832,-2.3864,-2.4103,-2.45,-2.5025,-2.5799,-2.6171,-2.6297,-2.6573,-2.6691,-2.6691,-2.6691,-2.6691,-2.6691,-2.6691,-2.6691,-2.6691,0.0,0.0,0.0,0.0,0.0,0.0,0.0,0.0,0.0,0.0,0.0,0.0,0.0,0.0,0.0,0.0,0.0,0.0,0.0,0.0,-1.5757,-1.6231,-1.5702,-1.4312,-1.1914,-1.0745,-1.0689,-1.1737,-1.2397,-1.3707,-1.5529,-1.6741,-1.7581,-1.8165,-2.0208,-2.1101,-2.115,-2.3005,-2.3804,-2.3883,-2.4382,-2.3949,-2.2824,-2.1321,0.0,0.0,0.0,0.0,0.0,0.0,0.0,0.0,-1.3447,-1.3935,-1.4557,-1.5733,-1.677,-1.7655,-1.7887,-1.7491,-1.6661,-1.4977,-1.2683,-1.0647,-1.0117,-1.0981,-1.2435,-1.4389,-1.5652,-1.6646,-1.7368,-1.8246,-1.8904,-1.8979,-1.9396,-1.9728,-1.9728,-2.0501,-2.0894,-2.0483,-2.1165,-2.1491,-2.1086,-2.0283,-1.9748,-1.9713,-1.8873,-1.8352,-1.8288,-1.875,-1.9006,-1.8968,-2.0049,-2.0617,-2.0617,-2.1216,-2.1545,-2.1605,-2.1605,-2.1979,-2.2739,-2.3191,-2.3728,-2.4378,-2.547,-2.6191,-2.6657,-2.6691,-2.6691,-2.6691,-2.6691,-2.6691,-2.6691,-2.6691,-2.6691,-2.6691,0.0,0.0,0.0,0.0,0.0,0.0,0.0,0.0,0.0,0.0,0.0,0.0,0.0,0.0,0.0,0.0,0.0,0.0,0.0,0.0,-1.4971,-1.5085,-1.4433,-1.3825,-1.3287,-1.1983,-1.1465,-1.1787,-1.2092,-1.317,-1.4934,-1.6064,-1.7055,-1.7946,-1.9652,-2.0811,-2.1538,-2.2521,-2.3109,-2.3375,-2.3756,-2.3853,-2.3613,-2.2393,-2.1284,0.0,0.0,0.0,0.0,0.0,0.0,0.0,-1.2355,-1.2657,-1.3242,-1.3476,-1.4371,-1.5463,-1.6468,-1.6303,-1.5695,-1.529,-1.3325,-1.1567,-1.1886,-1.2666,-1.3674,-1.5015,-1.5891,-1.6944,-1.8769,-1.9266,-1.9662,-2.0403,-2.0634,-2.0715,-2.0715,-2.1134,-2.143,-2.1321,-2.1794,-2.1974,-2.1538,-2.129,-2.1054,-2.0715,-2.0485,-2.0215,-1.9869,-1.9954,-1.9864,-1.953,-1.9788,-1.9914,-1.9914,-2.0049,-2.0378,-2.0932,-2.0932,-2.1545,-2.2709,-2.2278,-2.2677,-2.3654,-2.4866,-2.5689,-2.6191,-2.6556,-2.6691,-2.6691,-2.6691,-2.6691,-2.6691,-2.6691,-2.6691,-2.6691,0.0,0.0,0.0,0.0,0.0,0.0,0.0,0.0,0.0,0.0,0.0,0.0,0.0,0.0,0.0,0.0,0.0,0.0,0.0,0.0,0.0,0.0,-1.479,-1.4459,-1.4204,-1.3165,-1.2696,-1.2745,-1.1879,-1.2101,-1.3401,-1.4575,-1.5531,-1.6348,-1.8209,-1.9756,-2.099,-2.1978,-2.2609,-2.2996,-2.3323,-2.3617,-2.379,-2.3195,-2.2593,-2.1978,-2.0945,0.0,0.0,0.0,0.0,0.0,0.0,0.0,-1.3585,-1.2966,-1.3475,-1.4452,-1.5271,-1.5119,-1.4707,-1.4586,-1.3653,-1.2696,-1.2686,-1.3486,-1.4494,-1.5644,-1.6583,-1.7679,-1.9302,-1.9974,-2.0485,-2.1181,-2.1275,-2.1275,-2.1275,-2.146,-2.1582,-2.1582,-2.2003,-2.2209,-2.1974,-2.1718,-2.1521,-2.1306,-2.1118,-2.0894,-2.0649,-2.0416,-2.0212,-2.0,-1.9818,-1.969,-1.969,-1.969,-1.9869,-2.0228,-2.0228,-2.0587,-2.1276,-2.2188,-2.3087,-2.3918,-2.483,-2.5486,-2.6049,-2.6505,-2.6488,-2.6201,-2.6556,-2.6251,-2.5727,-2.6437,-2.6471,-2.6218,0.0,0.0,0.0,0.0,0.0,0.0,0.0,0.0,0.0,0.0,0.0,0.0,0.0,0.0,0.0,0.0,0.0,0.0,0.0,0.0,0.0,0.0,-1.5454,-1.5231,-1.4698,-1.4054,-1.3679,-1.3627,-1.1738,-1.1028,-1.1574,-1.2949,-1.3887,-1.4521,-1.6691,-1.853,-2.0023,-2.1327,-2.2163,-2.2626,-2.2954,-2.3328,-2.3656,-2.3692,-2.3512,-2.3186,-2.2705,-2.1551,-2.0083,-1.9075,0.0,0.0,0.0,0.0,-1.455,-1.3314,-1.3346,-1.3828,-1.4147,-1.4094,-1.3894,-1.3719,-1.3831,-1.3852,-1.3385,-1.4111,-1.5207,-1.6363,-1.741,-1.8468,-1.9641,-2.0467,-2.115,-2.1628,-2.1718,-2.1718,-2.1718,-2.1718,-2.1718,-2.1718,-2.2061,-2.231,-2.231,-2.1957,-2.1718,-2.1718,-2.1415,-2.1166,-2.1007,-2.0616,-2.0348,-2.0177,-1.9874,-1.969,-1.969,-1.969,-1.969,-1.969,-1.9809,-1.9869,-1.9944,-2.2338,-2.3694,-2.4089,-2.476,-2.5309,-2.5743,-2.6317,-2.6152,-2.5579,-2.6303,-2.5831,-2.4905,-2.6135,-2.6202,-2.5781,0.0,0.0,0.0,0.0,0.0,0.0,0.0,0.0,0.0,0.0,0.0,0.0,0.0,0.0,0.0,0.0,0.0,0.0,-1.4052,0.0,0.0,-1.4812,-1.4835,-1.4789,-1.4698,-1.4097,-1.3511,-1.2918,-1.1504,-1.0545,-1.014,-1.2055,-1.3209,-1.3842,-1.6145,-1.7804,-1.8892,-2.0363,-2.1434,-2.2207,-2.26,-2.3071,-2.3551,-2.3656,-2.3785,-2.3853,-2.3602,-2.2847,-2.1822,-2.0871,-1.9269,0.0,0.0,0.0,-1.4842,-1.382,-1.3213,-1.2966,-1.3016,-1.3361,-1.375,-1.3731,-1.4157,-1.4698,-1.5118,-1.5353,-1.5915,-1.7545,-1.8013,-1.8646,-2.0485,-2.0926,-2.126,-2.2077,-2.2209,-2.2209,-2.2209,-2.2209,-2.2209,-2.2209,-2.2254,-2.231,-2.231,-2.2237,-2.2209,-2.2209,-2.2152,-2.1797,-2.1023,-2.0926,-2.0565,-1.9818,-1.9726,-1.969,-1.969,-1.969,-1.969,-1.969,-2.0288,-2.0572,-2.0632,-2.2113,-2.2768,-2.2738,-2.3958,-2.4484,-2.4555,-2.5625,-2.569,-2.5144,-2.5839,-2.5952,-2.5804,-2.6002,-2.6019,-2.6023,0.0,0.0,0.0,0.0,0.0,0.0,0.0,0.0,0.0,0.0,0.0,0.0,0.0,0.0,0.0,-1.1933,-1.2501,-1.3614,-1.5281,-1.5293,-1.532,-1.5628,-1.533,-1.5028,-1.4698,-1.3542,-1.2682,-1.2063,-1.0287,-0.919,-0.8904,-1.0367,-1.1804,-1.3216,-1.5254,-1.7142,-1.8795,-1.9974,-2.0989,-2.1845,-2.2292,-2.2695,-2.3053,-2.3124,-2.3424,-2.3806,-2.3717,-2.3432,-2.3,-2.2347,-2.1222,-1.9909,-1.8865,0.0,0.0,0.0,-1.3757,-1.2397,-1.0722,-1.1106,-1.2029,-1.2029,-1.2811,-1.3679,-1.395,-1.4573,-1.5386,-1.6413,-1.7164,-1.826,-2.0249,-2.0829,-2.1197,-2.1811,-2.2135,-2.231,-2.231,-2.231,-2.231,-2.231,-2.231,-2.231,-2.231,-2.231,-2.231,-2.231,-2.2061,-2.1735,-2.1368,-2.0878,-2.0416,-2.007,-1.9818,-1.969,-1.969,-1.969,-1.969,-1.969,-1.9989,-2.0139,-2.0168,-2.1141,-2.1919,-2.265,-2.385,-2.438,-2.4358,-2.4809,-2.4798,-2.4518,-2.4863,-2.4713,-2.4434,-2.5248,-2.5281,-2.5094,0.0,0.0,0.0,0.0,0.0,0.0,0.0,0.0,0.0,0.0,0.0,0.0,0.0,0.0,0.0,0.0,-1.2163,-1.3588,-1.6027,-1.6383,-1.6552,-1.6632,-1.635,-1.593,-1.5339,-1.3493,-1.2152,-1.149,-0.9134,-0.7827,-0.7633,-0.8841,-1.045,-1.248,-1.4575,-1.6497,-1.8233,-1.9617,-2.0558,-2.1275,-2.1994,-2.2426,-2.2599,-2.2669,-2.3069,-2.3588,-2.3671,-2.3735,-2.3777,-2.3523,-2.2964,-2.2194,-2.1299,-2.0453,0.0,0.0,0.0,-1.2199,-0.9398,-0.9372,-1.0195,-1.0195,-1.1221,-1.2347,-1.2715,-1.3632,-1.471,-1.556,-1.6451,-1.7626,-1.9411,-2.0249,-2.0813,-2.1368,-2.184,-2.2106,-2.2106,-2.2209,-2.231,-2.231,-2.231,-2.231,-2.231,-2.231,-2.231,-2.231,-2.1869,-2.1568,-2.146,-2.0715,-2.0246,-2.0158,-1.9839,-1.969,-1.969,-1.969,-1.969,-1.969,-1.969,-1.969,-1.9705,-2.0393,-2.1335,-2.2499,-2.3514,-2.402,-2.4135,-2.4049,-2.3883,-2.3681,-2.3915,-2.3639,-2.3243,-2.4544,-2.4655,-2.4344,0.0,0.0,0.0,0.0,0.0,0.0,0.0,0.0,0.0,0.0,0.0,0.0,0.0,-1.3208,-1.2867,-1.2979,-1.2696,-1.3293,-1.5155,-1.6576,-1.7346,-1.7363,-1.7868,0.0,-1.6993,-1.4413,-1.2522,-1.1407,-0.8497,-0.6817,-0.6353,-0.7781,-0.9516,-1.1591,-1.4306,-1.5805,-1.6492,-1.9096,-2.0128,-2.0215,-2.1707,-2.231,-2.2349,-2.2599,-2.2923,-2.3259,-2.3588,-2.3896,-2.4209,-2.4374,-2.4192,-2.3801,-2.33,-2.259,-2.1642,0.0,0.0,0.0,-1.0184,-0.9174,-0.8829,-0.8829,-0.9811,-1.1146,-1.2503,-1.328,-1.4242,-1.5978,-1.6378,-1.6802,-1.8013,-1.9022,-1.9974,-2.0878,-2.1368,-2.1658,-2.1658,-2.2032,-2.231,-2.231,-2.231,-2.231,-2.231,-2.231,-2.231,-2.231,-2.1869,-2.143,-2.1055,-2.055,-2.0124,-1.9747,-1.9711,-1.969,-1.969,-1.969,-1.969,-1.969,-1.969,-1.969,-1.9705,-2.0393,-2.1096,-2.1784,-2.2484,-2.3051,-2.3468,-2.3421,-2.3072,-2.2543,-2.3196,-2.3429,-2.3452,-2.4166,-2.4415,-2.4465,0.0,0.0,0.0,0.0,0.0,0.0,0.0,0.0,0.0,0.0,0.0,0.0,0.0,-1.479,-1.4384,-1.396,-1.4347,-1.5198,-1.6576,-1.8075,-1.8913,-1.8998,-1.9155,-1.8643,-1.7392,-1.4392,-1.1866,-0.9942,-0.7519,-0.5908,-0.5093,-0.6724,-0.8756,-1.1211,-1.416,-1.5973,-1.6916,-1.9231,-2.0112,-2.0136,-2.169,-2.2398,-2.2563,-2.2643,-2.3045,-2.3548,-2.3787,-2.4118,-2.441,-2.4622,-2.4596,-2.4479,-2.4317,-2.382,-2.2829,-2.0281,-1.6948,-1.3521,-1.1205,-0.9307,-0.7876,-0.7475,-0.8022,-0.8982,-0.9929,-1.1312,-1.2714,-1.385,-1.4733,-1.5652,-1.6802,-1.845,-1.9728,-2.0043,-2.0732,-2.1213,-2.1213,-2.1354,-2.1462,-2.1462,-2.1705,-2.1853,-2.1853,-2.2106,-2.218,-2.1869,-2.1446,-2.1023,-2.0583,-2.0139,-1.9839,-1.9711,-1.969,-1.969,-1.969,-1.969,-1.969,-1.969,-1.969,-1.969,-1.969,-1.9944,-2.0662,-2.168,-2.15,-2.2219,-2.3455,-2.2662,-2.2434,-2.2586,-2.2388,-2.2586,-2.3041,-2.3637,-2.3879,-2.3948,0.0,0.0,0.0,0.0,0.0,0.0,0.0,0.0,0.0,0.0,0.0,0.0,0.0,0.0,-1.5926,-1.52,-1.5806,-1.6708,-1.7811,-1.9266,-2.025,-2.0617,-2.071,-2.0114,-1.8806,-1.5398,-1.2415,0.0,0.0,-0.5518,-0.4188,-0.6141,-0.813,-1.0211,-1.3445,-1.5579,-1.6932,-1.9186,-1.9957,-1.9812,-2.1681,-2.2537,-2.2721,-2.2895,-2.332,-2.3881,-2.4392,-2.4763,-2.5117,-2.564,-2.5617,-2.5381,-2.5366,-2.4798,-2.3654,-2.125,-1.8575,-1.586,-1.3544,-1.112,-0.9033,-0.8105,-0.7741,-0.7817,-0.8521,-0.9717,-1.0956,-1.188,-1.3127,-1.4378,-1.5295,-1.7154,-1.8641,-1.9022,-1.9889,-2.0534,-2.0534,-2.0781,-2.0991,-2.0991,-2.1244,-2.1399,-2.1399,-2.1675,-2.1735,-2.143,-2.1023,-2.0616,-2.0314,-1.9909,-1.969,-1.969,-1.969,-1.969,-1.969,-1.969,-1.969,-1.969,-1.969,-1.969,-1.969,-1.969,-2.0303,-2.1335,-2.0902,-2.1814,-2.3505,-2.2218,-2.1949,-2.2323,-2.2113,-2.2158,-2.2443,-2.3295,-2.3595,-2.3638,0.0,0.0,0.0,0.0,0.0,0.0,0.0,0.0,0.0,0.0,0.0,0.0,0.0,0.0,0.0,-1.6781,-1.7009,-1.7623,-1.8626,-2.0117,-2.1313,-2.2087,-2.2433,-2.2217,-2.1345,-1.7562,-1.4262,0.0,0.0,0.0,0.0,0.0,-0.7661,-0.8664,-1.2032,-1.4442,-1.6203,-1.8824,-1.9562,-1.9204,-2.1659,-2.2678,-2.278,-2.3316,-2.3717,-2.4154,-2.53,-2.5891,-2.6274,-2.7433,-2.7235,-2.6497,-2.6468,-2.5507,-2.4222,-2.3156,-2.1562,-1.9642,0.0,0.0,0.0,-1.0876,-0.9082,-0.7858,-0.8567,-0.8685,-0.903,-1.0346,-1.1733,-1.2918,-1.3564,-1.5105,-1.6663,-1.7854,-1.8873,-1.9549,-1.9549,-2.0351,-2.0926,-2.0926,-2.0959,-2.0959,-2.0959,-2.0991,-2.0991,-2.0959,-2.055,-2.028,-2.028,-1.9909,-1.969,-1.969,-1.969,-1.969,-1.969,-1.969,-1.969,-1.969,-1.969,-1.969,-1.969,-1.969,-2.0064,-2.0722,-2.0692,-2.1769,-2.3445,-2.2188,-2.168,-2.1754,-2.2383,-2.2248,-2.1844,-2.3116,-2.358,-2.3595,0.0,0.0,0.0,0.0,0.0,0.0,0.0,0.0,0.0,0.0,0.0,0.0,0.0,0.0,-1.9196,-1.9663,-1.9747,-2.0083,-2.0865,-2.2009,-2.2666,-2.2754,-2.3156,-2.2959,-2.2047,-1.926,-1.6153,0.0,0.0,0.0,0.0,0.0,0.0,-0.9182,-1.0431,-1.2329,-1.4745,-1.7269,-1.8576,-1.9155,-2.087,-2.2158,-2.3124,-2.3671,-2.4063,-2.4517,-2.5774,-2.6247,-2.6496,-2.7685,-2.7477,-2.6572,-2.5803,-2.5299,-2.4846,-2.4209,-2.285,-2.1241,-1.9797,0.0,0.0,0.0,0.0,0.0,-0.8745,-0.8353,-0.8365,-0.911,-1.0075,-1.1259,-1.2754,-1.346,-1.4323,-1.6022,-1.7518,-1.8507,-1.8507,-1.876,-1.9059,-1.9441,-1.9763,-2.0112,-2.0449,-2.0797,-2.0862,-2.0516,-2.0382,-2.0193,-1.9874,-1.9747,-1.969,-1.969,-1.969,-1.969,-1.969,-1.969,-1.969,-1.969,-1.969,-1.969,-1.969,-1.969,-2.0064,-2.0692,-2.0183,-2.0827,-2.2158,-2.1321,-2.1261,-2.1665,-2.138,-2.144,-2.1799,-2.2622,-2.3221,-2.3595,0.0,0.0,0.0,0.0,0.0,0.0,0.0,0.0,0.0,0.0,0.0,0.0,0.0,0.0,0.0,-2.1047,-2.1062,-2.148,-2.2451,-2.3012,-2.3433,-2.3737,-2.3804,-2.3617,-2.3135,-2.0905,-1.8228,0.0,0.0,0.0,0.0,0.0,0.0,0.0,-0.9632,-1.1195,-1.3459,-1.5074,-1.6823,-1.86,-2.0388,-2.1832,-2.3023,-2.3836,-2.4332,-2.4798,-2.6066,-2.654,-2.6727,-2.7828,-2.76,-2.6707,-2.569,-2.5379,-2.5317,-2.5012,-2.4197,-2.3193,-2.2256,-2.0372,-1.8286,-1.6632,0.0,0.0,-0.9794,-0.8772,-0.8009,-0.7481,-0.8479,-0.9813,-1.0889,-1.2015,-1.3148,-1.4275,-1.5692,-1.6957,-1.7653,-1.7947,-1.8224,-1.8535,-1.9014,-1.9419,-1.9671,-2.0193,-2.033,-2.007,-2.007,-1.9945,-1.9711,-1.969,-1.969,-1.969,-1.969,-1.969,-1.969,-1.969,-1.969,-1.969,-1.969,-1.969,-1.969,-1.969,-1.9899,-2.0258,-1.9854,-2.0288,-2.1231,-2.0557,-2.0677,-2.1276,-2.1171,-2.1365,-2.1769,-2.2428,-2.3071,-2.3595,0.0,0.0,0.0,0.0,0.0,0.0,0.0,0.0,0.0,0.0,0.0,0.0,0.0,0.0,0.0,0.0,-2.1564,-2.2175,-2.3593,-2.3547,0.0,-2.4752,-2.4315,-2.4155,-2.4358,-2.2465,-2.0341,-1.8022,0.0,0.0,0.0,0.0,0.0,0.0,0.0,-1.074,-1.2364,-1.2838,-1.4755,-1.7674,-1.9881,-2.1498,-2.2658,-2.3784,-2.4409,-2.4879,-2.62,-2.6707,-2.6885,-2.7768,-2.7578,-2.6836,-2.5898,-2.5605,-2.5605,-2.5547,-2.5393,-2.5118,-2.4451,-2.33,-2.1948,-2.0402,-1.7681,0.0,-1.1626,-0.9875,-0.8229,-0.6161,-0.7213,-0.856,-0.8685,-1.0755,-1.2522,-1.2764,-1.3737,-1.5118,-1.687,-1.7531,-1.7854,-1.7987,-1.8419,-1.8765,-1.8893,-1.9281,-1.9566,-1.969,-1.9639,-1.9632,-1.9722,-1.9722,-1.9758,-1.9794,-1.9794,-1.9765,-1.969,-1.969,-1.969,-1.969,-1.969,-1.969,-1.969,-1.969,-1.969,-1.969,-1.969,-2.0034,-2.0557,-1.9944,-2.0094,-2.0767,-2.1276,-2.1515,-2.1665,-2.2323,-2.2966,-2.3505,-1.1952,0.0,0.0,0.0,0.0,0.0,0.0,0.0,0.0,0.0,0.0,0.0,0.0,0.0,0.0,0.0,-2.2547,-2.3218,-2.4683,-2.4625,0.0,-2.4804,-2.454,-2.4508,-2.4708,-2.3658,-2.21,-2.0032,0.0,0.0,0.0,0.0,0.0,0.0,0.0,-1.0438,-1.194,-1.2342,-1.3912,-1.6255,-1.8023,-2.0127,-2.2275,-2.3159,-2.3765,-2.4353,-2.591,-2.6468,-2.6552,-2.6995,-2.7051,-2.6777,-2.5937,-2.5684,-2.5684,-2.5664,-2.5624,-2.5562,-2.5367,-2.4832,-2.4042,-2.2818,-2.0798,0.0,-1.4765,-1.2049,-0.97,-0.7623,-0.7242,-0.7549,-0.8514,-0.9622,-1.0906,-1.2522,-1.3014,-1.3799,-1.5652,-1.6015,-1.6434,-1.734,-1.7544,-1.7947,-1.8817,-1.8612,-1.8765,-1.9639,-1.9281,-1.929,-1.9827,-1.9856,-2.0064,-2.0475,-2.0513,-2.0243,-1.9726,-1.969,-1.969,-1.969,-1.969,-1.969,-1.969,-1.969,-1.969,-1.969,-1.969,-1.9765,-1.9869,-1.9735,-2.0094,-2.0677,-2.0243,-2.0423,-2.0991,-2.165,-2.2293,-2.2936,-1.2811,0.0,0.0,0.0,0.0,0.0,0.0,0.0,0.0,0.0,0.0,0.0,-1.8445,-1.9387,-2.0579,0.0,0.0,0.0,0.0,0.0,-2.47,-2.4804,-2.47,-2.4727,-2.4891,-2.4501,-2.3615,-2.2252,0.0,0.0,0.0,0.0,0.0,0.0,0.0,-1.0922,-1.2197,-1.2364,-1.3408,-1.5086,-1.7116,-1.9338,-2.1499,-2.2491,-2.3322,-2.4118,-2.5016,-2.5516,-2.5861,-2.6599,-2.6588,-2.6269,-2.6289,-2.6016,-2.5703,-2.5703,-2.5681,-2.5644,-2.5605,-2.5391,-2.4987,-2.4311,-2.2893,0.0,0.0,-1.5005,-1.246,-0.9831,-0.9047,-0.8851,-0.9148,-1.0084,-1.1023,-1.1697,-1.2414,-1.3188,-1.4089,-1.5234,-1.6341,-1.7217,-1.7809,-1.8235,-1.8522,-1.8521,-1.8623,-1.8869,-1.8896,-1.9063,-1.9373,-1.9711,-2.0128,-2.0669,-2.0401,-2.0194,-2.0198,-1.9854,-1.969,-1.969,-1.969,-1.969,-1.969,-1.969,-1.969,-1.969,-1.969,-1.969,-1.969,-1.969,-1.9884,-2.0168,-1.9824,-2.0109,-2.0797,-2.1455,-2.2113,-2.2813,-1.3461,0.0,0.0,0.0,0.0,0.0,0.0,0.0,0.0,0.0,0.0,-1.7183,-1.7722,-1.9261,-2.0739,-2.1971,-2.2999,0.0,-2.4752,-2.4607,-2.4591,-2.479,-2.476,-2.4814,-2.4962,-2.4986,-2.4707,-2.4073,0.0,0.0,0.0,0.0,0.0,0.0,-1.1611,-1.179,-1.2567,-1.2624,-1.3252,-1.4441,-1.6488,-1.8537,-2.0432,-2.1619,-2.2716,-2.3697,-2.4099,-2.4592,-2.5224,-2.6167,-2.6068,-2.5689,-2.6401,-2.6188,-2.566,-2.566,-2.5615,-2.559,-2.5582,-2.5505,-2.5369,-2.5206,-2.4317,-2.2812,0.0,0.0,0.0,-1.2555,-1.164,-1.1208,-1.0582,-1.1393,-1.1935,-1.1423,-1.2218,-1.289,-1.2976,-1.4814,-1.6385,-1.6941,-1.7898,-1.839,-1.8187,-1.8782,-1.8794,-1.7827,-1.8559,-1.9008,-1.8909,-1.9483,-2.0108,-2.0699,-2.0087,-2.0013,-2.0502,-1.9872,-1.9603,-1.969,-1.969,-1.969,-1.969,-1.969,-1.969,-1.969,-1.969,-1.969,-1.969,-1.969,-1.969,-1.969,-1.969,-2.0034,-2.0617,-2.141,-2.2024,-2.2592,-1.3506,-0.8481,0.0,0.0,0.0,0.0,0.0,0.0,0.0,-1.4729,-1.6291,-1.7361,-1.7679,-1.9361,-2.1085,-2.2575,-2.3201,-2.3894,-2.4747,-2.4607,-2.4591,-2.479,-2.4623,-2.4623,-2.4832,-2.4937,-2.4892,-2.47,0.0,0.0,0.0,0.0,0.0,-1.2154,-1.2685,-1.2766,-1.2554,-1.2997,-1.3838,-1.4879,-1.5618,-1.7128,-1.9058,-2.0384,-2.1483,-2.2461,-2.3617,-2.4454,-2.5027,-2.5224,-2.5341,-2.5453,-2.5609,-2.5609,-2.5511,-2.5511,-2.5513,-2.5517,-2.5504,-2.5505,-2.5457,-2.5379,-2.513,-2.4291,-2.2078,0.0,-1.835,-1.5878,0.0,-1.3761,-1.3379,0.0,0.0,-1.3289,-1.3012,-1.3024,-1.3616,-1.4652,-1.5398,-1.5519,-1.6221,-1.7032,-1.7859,-1.943,-1.9343,-1.6708,-1.8508,-1.9478,-1.8935,-1.9577,-2.0253,-2.0789,-2.0224,-1.9838,-1.9803,-1.9286,-1.9244,-1.969,-1.969,-1.969,-1.969,-1.969,-1.969,-1.969,-1.969,-1.969,-1.969,-1.969,-1.969,-1.969,-1.969,-1.9735,-1.9959,-2.1216,-2.1739,-2.1979,-1.3346,-0.7849,0.0,0.0,0.0,0.0,0.0,0.0,0.0,-1.5344,-1.6819,-1.8,-1.8614,-2.0436,-2.1947,-2.2776,-2.3715,-2.4412,-2.4785,-2.4716,-2.4716,-2.4804,-2.4795,-2.4795,-2.4804,-2.5049,-2.5096,0.0,-2.4066,0.0,0.0,0.0,0.0,-1.517,-1.4613,-1.4179,-1.3848,-1.4125,-1.4332,-1.4502,-1.5348,-1.6395,-1.7602,-1.9401,-2.091,-2.2255,-2.3533,-2.4172,-2.4548,-2.5346,-2.5367,-2.5141,-2.5686,-2.528,-2.4609,-2.4484,-2.4237,-2.3976,-2.3899,-2.4264,-2.4678,-2.4639,-2.4926,-2.491,-2.3717,-2.2393,-2.0953,-1.9303,0.0,0.0,0.0,0.0,0.0,0.0,-1.5476,-1.5421,-1.4204,-1.4717,-1.5367,-1.5786,-1.682,-1.7571,-1.7636,-1.8032,-1.7673,-1.6215,-1.7584,-1.8239,-1.7714,-1.8295,-1.8919,-1.9682,-1.906,-1.8932,-1.9332,-1.8728,-1.8688,-1.9244,-1.9244,-1.9406,-1.969,-1.9369,-1.9244,-1.9207,-1.8893,-1.8968,-1.9244,-1.9244,-1.9406,-1.969,-1.969,-1.953,-1.9449,-2.1094,-2.1251,-2.0882,-1.3769,-0.8283,-0.363,0.0,0.0,0.0,0.0,0.0,-1.4038,-1.6042,-1.782,-1.9183,-1.9857,-2.1608,-2.2868,-2.325,-2.4211,-2.4808,-2.4802,-2.4802,-2.4798,-2.4842,-2.4898,-2.4905,-2.479,-2.5065,-2.5152,0.0,0.0,0.0,0.0,0.0,0.0,0.0,-1.6166,-1.5238,-1.4777,-1.4712,-1.4496,-1.4361,-1.5139,-1.6041,-1.7138,-1.8907,-2.0621,-2.2201,-2.314,-2.3697,-2.4155,-2.5122,-2.5171,-2.491,-2.5536,-2.5037,-2.4203,-2.4043,-2.3751,-2.341,-2.3086,-2.3553,-2.411,-2.411,-2.4543,-2.4926,-2.4752,-2.3822,-2.2805,-2.2119,-2.0794,0.0,0.0,0.0,-1.8768,-1.7297,0.0,-1.7257,-1.5058,-1.5102,-1.5489,-1.576,-1.7125,-1.7838,-1.7342,-1.7401,-1.7049,-1.6166,-1.7092,-1.7318,-1.6461,-1.7037,-1.7664,-1.8226,-1.7701,-1.7772,-1.8515,-1.792,-1.7906,-1.843,-1.8598,-1.8893,-1.9244,-1.8855,-1.8688,-1.865,-1.8263,-1.8341,-1.8688,-1.8688,-1.8893,-1.9258,-1.9471,-1.9089,-1.8694,-2.0669,-2.0783,-2.0124,-1.5182,-1.0689,-0.6681,-0.5487,-0.3392,0.0,0.0,-1.0478,-1.3019,-1.6783,-1.9429,-2.1075,-2.1312,-2.2656,-2.375,-2.4199,-2.4591,-2.4802,-2.4794,-2.4813,-2.4839,-2.4898,-2.4839,-2.4797,-2.4797,-2.4936,-2.501,-2.501,0.0,0.0,0.0,0.0,0.0,0.0,-1.7,-1.5668,-1.4777,-1.4245,-1.4322,-1.4784,-1.4808,-1.6109,-1.8143,-1.9192,-2.0621,-2.2124,-2.2135,-2.2952,-2.4007,-2.4062,-2.4385,-2.4804,-2.4823,-2.4818,-2.4762,-2.4766,-2.4847,-2.4762,-2.3988,-2.3926,-2.411,-2.411,-2.4129,-2.4284,-2.4862,-2.4208,-2.3562,-2.3861,-2.274,-2.1844,-2.2358,-2.1479,-2.0489,-2.0055,-1.882,0.0,0.0,-1.5994,-1.5597,-1.4923,-1.6273,-1.7082,-1.6742,-1.8473,-1.8726,-1.6555,-1.7572,-1.739,-1.5458,-1.6321,-1.6769,-1.6469,-1.6324,-1.6543,-1.7038,-1.6638,-1.6705,-1.7261,-1.784,-1.8145,-1.8145,-1.8145,-1.8145,-1.8145,-1.8106,-1.8106,-1.8145,-1.8145,-1.8145,-1.824,-1.8863,-1.8413,-1.7609,-1.9907,-2.0401,-2.0081,-1.8592,-1.6337,-1.3451,-1.0366,-0.7203,-0.413,-0.1148,-0.0813,-0.3429,-1.0548,-1.3028,-1.6516,-2.2703,-2.4118,-2.4666,-2.4832,-2.5038,-2.521,-2.5251,-2.5264,-2.5269,-2.5302,-2.5279,-2.5202,-2.5067,-2.5231,-2.5244,-2.5063,-2.5061,0.0,0.0,0.0,0.0,0.0,-1.731,-1.5572,-1.4651,-1.3758,-1.3641,-1.4125,-1.5008,-1.6182,-1.7616,-1.9046,-2.015,-2.1006,-2.1824,-2.2373,-2.2825,-2.332,-2.3584,-2.3771,-2.4004,-2.3768,-2.3449,-2.3558,-2.339,-2.3101,-2.2868,-2.3343,-2.3934,-2.4072,-2.4505,-2.4957,-2.5156,-2.4423,-2.3879,-2.4535,-2.345,-2.2574,-2.3093,-2.2998,-2.2344,-2.0921,-2.0692,-2.0005,0.0,-1.6482,-1.4811,-1.3033,-1.39,-1.5096,-1.6056,-1.6321,-1.6127,-1.5479,-1.569,-1.5355,-1.4083,-1.4365,-1.4599,-1.4634,-1.4617,-1.4759,-1.5083,-1.5199,-1.554,-1.6102,-1.6273,-1.6793,-1.7477,-1.7122,-1.719,-1.7544,-1.7188,-1.7229,-1.7585,-1.7585,-1.7787,-1.812,-1.8367,-1.7963,-1.7485,-1.9073,-1.9057,-1.8493,-2.1099,-1.9978,-1.7718,-1.3778,-0.8837,-0.3519,0.2128,0.5119,0.2965,-0.7546,-0.999,-1.4128,-2.3042,-2.4639,-2.511,-2.5229,-2.5332,-2.5443,-2.5534,-2.553,-2.556,-2.5564,-2.5548,-2.5477,-2.5344,-2.5754,-2.5732,-2.5235,-2.5543,-2.5484,0.0,0.0,0.0,0.0,-1.7936,-1.5707,-1.4284,-1.3105,-1.2781,-1.3125,-1.4903,-1.622,-1.7297,-1.8375,-1.9277,-2.0122,-2.1097,-2.1736,-2.2163,-2.266,-2.2979,-2.3236,-2.3437,-2.3235,-2.2926,-2.3192,-2.3049,-2.2809,-2.2655,-2.3196,0.0,-2.3955,-2.4438,-2.4947,-2.5226,-2.452,-2.4038,-2.4839,-2.39,-2.3125,-2.3746,-2.3749,-2.3213,-2.1891,-2.1686,-2.0847,0.0,-1.5978,-1.3865,-1.235,-1.2947,-1.3861,-1.4789,-1.5076,-1.5106,-1.4826,-1.4877,-1.4187,-1.2683,-1.2952,-1.2972,-1.2615,-1.3058,-1.342,-1.3674,-1.3993,-1.4403,-1.4903,-1.5128,-1.5616,-1.6298,-1.5935,-1.6133,-1.6672,-1.6343,-1.6484,-1.7034,-1.7034,-1.7229,-1.7544,-1.7544,-1.7312,-1.7164,-1.8574,-1.8727,-1.8437,-2.268,-2.1385,-1.9023,-1.5067,-0.8049,-0.1741,0.1901,0.7231,0.598,-0.7564,-1.0064,-1.3826,-2.2324,-2.4296,-2.5115,-2.5475,-2.5446,-2.546,-2.56,-2.5601,-2.5628,-2.5703,-2.5644,-2.5605,-2.5605,-2.635,-2.634,-2.5493,-2.6265,-2.6208,0.0,0.0,0.0,0.0,-1.887,-1.6101,-1.368,-1.2468,-1.1879,-1.1914,-1.4495,-1.6219,-1.7218,-1.7258,-1.8148,-1.9366,-2.0048,-2.1038,-2.2023,-2.2068,-2.2539,-2.3117,-2.3165,-2.3165,-2.3236,-2.3566,-2.3826,-2.3879,-2.3392,-2.3526,-2.385,-2.3862,-2.4002,-2.4351,-2.5111,-2.4541,-2.4052,-2.4851,-2.4106,-2.3561,-2.44,-2.3824,-2.3165,-2.2948,-2.1857,-2.0075,-1.7419,-1.4749,-1.2981,-1.2887,-1.3293,-1.341,-1.3091,-1.4775,-1.5557,-1.4738,-1.4909,-1.3925,-1.1184,-1.2037,-1.1977,-1.0626,-1.163,-1.2365,-1.2694,-1.2948,-1.3233,-1.3674,-1.4226,-1.4503,-1.4549,-1.4606,-1.496,-1.5487,-1.5543,-1.5908,-1.6479,-1.6479,-1.6466,-1.6522,-1.6522,-1.6534,-1.6728,-1.8319,-1.9278,-1.9825,-2.4475,-2.0365,-1.4796,-0.8235,-0.3694,0.1579,0.9084,1.2431,0.965,-0.2724,-0.4618,-0.937,-2.1328,-2.3919,-2.4976,-2.5464,-2.5484,-2.5511,-2.5593,-2.5657,-2.5672,-2.5703,-2.5684,-2.5664,-2.5664,-2.5876,-2.5815,-2.5493,-2.571,-2.5561,-2.5077,0.0,0.0,0.0,-1.911,-1.6457,-1.4436,-1.2279,-1.148,-1.188,-1.4079,-1.5326,-1.6008,-1.6922,-1.7446,-1.7877,-1.9275,-2.02,-2.0863,-2.1519,-2.1845,-2.213,-2.2652,-2.2822,-2.288,-2.3212,-2.3548,-2.3769,-2.3786,-2.4053,-2.4377,-2.4632,-2.4729,-2.4862,0.0,0.0,-2.4255,-2.507,-2.4284,-2.3829,-2.5015,-2.4331,-2.349,-2.3238,-2.1955,-2.0251,-1.8118,-1.6861,-1.5543,-1.3824,-1.3159,-1.3084,-1.3774,-1.3368,-1.3325,-1.3827,-1.3672,-1.2587,-1.0347,-1.0879,-1.0665,-0.9167,-0.9509,-0.9925,-1.0301,-1.067,-1.1066,-1.1557,-1.1738,-1.2024,-1.2483,-1.3042,-1.3622,-1.4218,-1.4721,-1.5276,-1.582,-1.582,-1.6095,-1.6522,-1.6522,-1.6773,-1.7244,-1.7657,-1.8156,-1.8668,-2.509,-1.9666,-1.3094,-0.6841,-0.3161,0.1618,0.9582,1.1443,0.7945,-0.3155,-0.5228,-1.0032,-2.154,-2.4041,-2.5049,-2.5464,-2.5466,-2.5488,-2.5542,-2.5588,-2.5607,-2.5607,-2.5642,-2.5643,-2.5607,-2.6002,-2.5994,-2.5493,-2.6236,-2.6062,-2.5019,0.0,0.0,0.0,-1.9529,-1.688,-1.4512,-1.1664,-1.0914,-1.1709,-1.3528,-1.4755,0.0,-1.6557,-1.6915,-1.697,-1.7932,-1.8994,-2.0112,-2.0797,-2.0955,-2.1035,-2.1945,-2.2021,-2.1951,-2.2743,-2.3117,-2.3351,-2.3746,-2.4081,-2.4369,-2.4704,-2.4864,-2.4956,-2.513,-2.4828,-2.4647,-2.5178,-2.469,-2.4374,-2.5067,-2.4727,-2.4271,-2.4071,-2.2959,-2.1528,-1.9781,-1.8707,-1.7596,-1.614,-1.4915,-1.4573,-1.542,-1.3821,-1.2932,-1.3424,-1.3018,-1.1836,-0.9757,-0.9789,-0.9337,-0.8004,-0.8573,-0.9036,-0.9395,-0.9882,-1.0371,-1.0813,-1.0813,-1.1007,-1.1332,-1.1738,-1.2415,-1.3328,-1.3726,-1.4389,-1.5231,-1.5499,-1.582,-1.6139,-1.638,-1.6722,-1.7036,-1.7287,-1.7727,-1.8292,-2.4771,-1.9365,-1.3417,-0.8897,-0.533,-0.1055,0.4769,0.6051,0.2966,-0.6496,-0.9081,-1.3382,-2.2173,-2.4255,-2.5117,-2.539,-2.5367,-2.534,-2.5395,-2.542,-2.5414,-2.5414,-2.5489,-2.5523,-2.5454,-2.6285,-2.6376,-2.5657,-2.7074,-2.6941,0.0,0.0,0.0,-2.2467,-2.0152,-1.7329,-1.4101,-1.1125,-1.0367,-1.1377,-1.2966,-1.4356,-1.5543,-1.6077,-1.6344,-1.6402,-1.6401,-1.7651,-1.9346,-1.9924,-2.0017,-2.0109,-2.1171,-2.1154,-2.096,-2.2217,-2.2617,-2.2822,-2.3414,-2.3764,-2.4044,-2.4372,-2.4607,-2.4799,-2.4937,-2.4974,-2.501,-2.5192,-2.5065,-2.4936,-2.4922,-2.504,-2.5107,-2.5006,-2.4288,-2.3204,-2.1753,-2.0561,-1.9678,-1.9151,-1.7731,0.0,-1.7617,-1.5361,-1.3705,-1.3401,-1.286,-1.1612,-0.9432,-0.9049,-0.8283,-0.6982,-0.7974,-0.8737,-0.9099,-0.9618,-1.0074,-1.0517,-1.0517,-1.0517,-1.0517,-1.0618,-1.1349,-1.2522,-1.2628,-1.3396,-1.4652,-1.5231,-1.5588,-1.5776,-1.6293,-1.6522,-1.6572,-1.7087,-1.7576,-1.8091,-2.3305,-1.9759,-1.6027,-1.2052,-0.9248,-0.7125,-0.5832,-0.2482,-0.245,-0.9156,-1.1672,-1.5281,-2.1538,-2.3543,-2.4573,-2.4889,-2.4908,-2.4898,-2.4912,-2.4967,-2.5013,-2.5013,-2.5168,-2.5265,-2.5255,-2.5572,-2.5986,-2.6477,-2.6567,-2.6529,0.0,0.0,0.0,-2.3371,-2.1295,-1.7885,-1.3525,-1.1505,-1.0713,-1.1014,-1.2396,-1.3726,-1.488,-1.5061,-1.5396,-1.582,-1.5837,-1.6589,-1.7685,-1.8635,-1.9206,-1.9688,-2.0783,-2.1256,-2.1477,-2.1711,-2.2214,-2.2721,-2.2848,-2.3305,-2.3803,-2.4044,-2.4317,-2.4607,-2.4785,-2.4828,-2.4861,-2.4888,-2.4727,-2.4781,-2.5422,-2.5219,-2.4924,-2.4913,-2.4548,-2.3816,-2.2563,-2.2919,-2.2936,-2.1875,-2.0436,-1.9561,-1.9698,-1.7008,-1.4979,-1.4308,-1.3756,-1.2305,-0.9519,-0.9368,-0.8299,-0.5916,-0.5985,-0.6485,0.0,0.0,-0.8068,-0.9159,-0.9159,-0.9159,-0.9159,-0.971,-1.0415,-1.1157,-1.1756,-1.2735,-1.4003,-1.4606,-1.5421,-1.6337,-1.6479,-1.6522,-1.6522,-1.6635,-1.6735,-1.7024,-2.3919,-2.1456,-1.8685,-1.5139,-1.3402,-1.2301,-1.1776,-1.0864,-1.1085,-1.3494,-1.5454,-1.8289,-2.2699,-2.4108,-2.4734,-2.4798,-2.4632,-2.4603,-2.4799,-2.467,-2.4663,-2.4842,-2.494,-2.4979,-2.4985,-2.5087,-2.5532,-2.6333,-2.6626,-2.6785,0.0,0.0,-2.4944,-2.3594,-1.9888,-1.5983,-1.2113,-1.0812,-1.0195,-1.017,-1.163,-1.3233,-1.4721,-1.5063,-1.5247,-1.5281,-1.5299,-1.5531,-1.6048,-1.7398,-1.7796,-1.7982,-1.9655,-2.0051,-2.0138,-2.1278,-2.1861,-2.2214,-2.2591,-2.2947,-2.3259,-2.3516,-2.3846,-2.4136,-2.4351,-2.4522,-2.467,-2.4775,-2.4731,-2.4869,-2.5575,-2.5737,-2.5798,-2.5798,-2.5996,-2.5659,-2.4262,-2.4335,-2.4331,-2.3737,-2.2498,-2.1528,-2.1059,-1.9203,-1.7128,-1.4988,-1.3588,-1.1761,-0.9441,-0.9036,-0.7879,-0.5669,0.0,0.0,-0.6533,0.0,-0.7623,-0.8209,-0.8593,-0.8804,-0.8804,-0.951,-1.0167,-1.0864,-1.1516,-1.2365,-1.342,-1.434,-1.5242,-1.6051,-1.638,-1.6522,-1.6522,-1.6522,-1.6522,-1.6672,-2.5513,-2.3791,-2.1573,-1.8558,-1.7605,-1.7057,-1.6347,-1.7636,-1.8353,-1.7411,-1.891,-2.1023,-2.3618,-2.4347,-2.4573,-2.4323,-2.4166,-2.4189,-2.4433,-2.4206,-2.4225,-2.4535,-2.453,-2.4566,-2.4632,-2.4663,-2.5091,-2.5901,-2.6728,-2.7117,0.0,0.0,-2.5319,-2.3339,-1.8335,-1.4541,-1.183,0.0,-1.0081,-0.9921,-1.1193,-1.2936,-1.4732,-1.5115,-1.5115,-1.489,-1.4777,-1.4584,-1.4585,-1.5963,-1.636,-1.659,-1.8531,-1.8886,-1.8967,-2.0794,-2.1383,-2.1625,-2.2296,-2.2521,-2.2652,-2.3021,-2.3346,-2.3599,-2.3591,-2.3933,-2.4245,-2.4313,-2.4523,-2.4869,-2.5522,-2.587,0.0,-2.6319,-2.6869,-2.6778,-2.5366,-2.5196,-2.519,-2.4946,-2.4025,-2.3081,-2.2292,-2.1063,-1.8952,-1.5723,-1.3596,-1.1669,-0.9993,-0.8976,-0.7384,-0.5032,-0.5192,-0.5476,-0.5738,0.0,-0.7557,-0.7723,-0.8427,-0.8804,-0.8804,-0.9361,-1.0012,-1.0813,-1.1366,-1.2178,-1.3152,-1.4247,-1.505,-1.5676,-1.6238,-1.6522,-1.6522,-1.6522,-1.6522,-1.6584,-2.7791,-2.657,-2.5128,-2.2817,-2.1919,-2.1488,-2.1327,-2.0874,-2.0171,-1.9115,-2.0807,-2.2243,-2.2546,-2.2947,-2.3061,-2.275,-2.3074,-2.3333,-2.3356,-2.3333,-2.3446,-2.378,-2.3689,-2.3757,-2.4063,-2.4259,-2.4733,-2.5551,-2.6469,-2.7137,-2.7537,0.0,-2.5614,-2.2623,-1.8587,0.0,0.0,-1.2551,-1.1589,-1.1603,-1.1738,-1.2966,-1.4653,-1.4205,-1.4417,-1.484,-1.4337,-1.3808,-1.3411,-1.4013,-1.5357,-1.7001,-1.7917,-1.8714,-1.9465,-2.0198,-2.0715,-2.115,-2.1582,-2.1915,-2.2262,-2.2652,-2.2996,-2.3081,-2.2434,-2.283,-2.3222,-2.2874,-2.3582,-2.4505,-2.5295,-2.487,-2.4649,-2.5403,-2.5586,-2.5329,-2.4428,-2.5546,-2.6167,-2.5415,-2.471,-2.4102,-2.3673,-2.1535,-1.9236,-1.6907,-1.4988,-1.3396,-1.2174,-0.9952,-0.6949,-0.3066,-0.4397,-0.5061,-0.4895,-0.6094,-0.702,-0.7723,-0.8427,-0.8804,-0.8804,-0.8857,-0.9614,-1.0813,-1.0864,-1.1953,-1.3779,-1.4422,-1.505,-1.5676,-1.6238,-1.6522,-1.6522,-1.6522,-1.6522,-1.6522,-2.8191,-2.701,-2.5579,-2.3852,-2.3473,-2.3293,-2.2944,-2.2253,-2.1761,-2.1734,-2.2325,-2.2641,-2.2371,-2.2697,-2.2813,-2.252,-2.2339,-2.2505,-2.3171,-2.3021,-2.3045,-2.3392,-2.3338,-2.3388,-2.3516,-2.3608,-2.4034,-2.4853,-2.5896,-2.6757,-2.7414,0.0,0.0,0.0,0.0,-1.7718,-1.6291,-1.4304,-1.332,-1.3129,-1.3,-1.3846,-1.5207,-1.4998,-1.5097,-1.5341,-1.5155,-1.4689,-1.4198,-1.4072,-1.4496,-1.5385,-1.6996,-1.7724,-1.8335,-1.9854,-2.0449,-2.0682,-2.1118,-2.1352,-2.1532,-2.1931,-2.1949,-2.1873,-2.1808,-2.2171,-2.2495,-2.2325,-2.3151,-2.3987,-2.4335,-2.4677,-2.4869,-2.4704,-2.509,-2.5127,-2.43,-2.4759,-2.5034,-2.4722,-2.4266,-2.3726,-2.3145,-2.2022,-2.0413,-1.8218,-1.64,-1.339,-0.892,-0.6754,0.0,-0.2086,0.0,-0.3392,-0.4817,-0.5547,-0.6308,-0.7074,-0.7623,-0.8215,-0.8804,-0.9073,-0.9973,-1.1416,-1.1416,-1.212,-1.3334,-1.4294,-1.4835,-1.5152,-1.6107,-1.6522,-1.6522,-1.6522,-1.6522,-1.6522,-2.8128,-2.7124,-2.5902,-2.4436,-2.4314,-2.4326,-2.3945,-2.307,-2.2697,-2.3364,-2.3054,-2.2555,-2.2009,-2.2189,-2.2244,-2.2016,-2.1866,-2.2082,-2.2694,-2.2634,-2.266,-2.288,-2.2898,-2.2965,-2.3045,-2.3045,-2.3334,-2.3897,-2.5135,-2.6049,-2.6573,0.0,0.0,0.0,-2.0995,-1.9359,-1.8067,-1.6386,-1.5315,-1.4751,-1.4485,-1.4914,-1.5588,-1.5588,-1.5526,-1.548,-1.563,-1.5128,-1.4362,-1.416,-1.3919,-1.4032,-1.6062,-1.6766,-1.7271,-1.9281,-1.9884,-2.0024,-2.0616,-2.0781,-2.0894,-2.1306,-2.1317,-2.1147,-2.0977,-2.1579,-2.2177,-2.2254,-2.2972,-2.3544,-2.3544,-2.4208,-2.4572,-2.4008,-2.439,-2.4553,-2.399,-2.3917,-2.3917,-2.3917,-2.3692,-2.3351,-2.2835,-2.2452,-2.1365,-1.9254,-1.6825,-1.244,-0.5534,0.0,0.0,0.0,0.0,0.0,-0.3811,-0.5057,-0.5944,-0.6483,-0.7144,-0.7835,-0.8544,-0.9154,-1.0132,-1.1398,-1.1661,-1.2236,-1.2968,-1.4014,-1.4514,-1.4789,-1.5832,-1.6324,-1.6522,-1.6522,-1.6522,-1.6522,-2.777,-2.7351,-2.6771,-2.5094,-2.4798,-2.4781,-2.4797,-2.3545,-2.2832,-2.3514,-2.2793,-2.192,-2.1191,-2.1058,-2.0965,-2.0837,-2.1739,-2.2089,-2.1642,-2.2061,-2.226,-2.2124,-2.2243,-2.2409,-2.2695,-2.2721,-2.2721,-2.2738,-2.4195,-2.4919,-2.4942,0.0,-2.5403,-2.5628,-2.2682,-2.1046,-2.0357,-1.8883,-1.759,-1.6545,-1.6207,-1.5887,-1.5588,-1.5588,-1.5295,-1.4991,-1.5492,-1.4638,-1.3298,-1.3909,-1.3684,-1.349,-1.5191,-1.5973,-1.6639,-1.8393,-1.893,-1.9103,-2.0074,-2.0314,-2.0416,-2.0894,-2.1306,-2.1203,-1.9745,-2.0905,-2.2371,-2.2643,-2.2972,-2.3212,-2.3212,-2.323,-2.323,-2.3212,-2.323,-2.323,-2.3212,-2.3212,-2.3212,-2.3212,-2.3212,-2.3189,-2.3189,-2.2828,-2.1809,-1.9936,-1.5964,-1.0428,-0.3046,-0.097,0.0,0.4737,0.1674,0.0,-0.1528,-0.4638,-0.6191,-0.6242,-0.737,-0.7888,-0.7949,-0.8951,-0.9768,-1.0454,-1.1398,-1.2236,-1.2978,-1.3552,-1.4143,-1.4744,-1.5365,-1.5964,-1.6522,-1.6522,-1.6522,-1.6522,-2.6973,-2.6404,-2.5793,-2.5123,-2.5116,-2.5166,-2.5038,-2.3752,-2.3239,-2.4397,-2.2552,-2.1209,-2.1483,-2.1658,-2.1627,-2.1294,-2.116,-2.1218,-2.1595,-2.1477,-2.1399,-2.1336,-2.1399,-2.146,-2.1532,-2.1816,-2.1931,-2.1931,-2.3518,0.0,0.0,-2.616,-2.621,-2.591,-2.4949,-2.4007,-2.2991,-2.1507,-2.0312,-1.9275,-1.7932,-1.7139,-1.6676,-1.5944,-1.5566,-1.5454,-1.563,-1.5116,-1.4375,-1.4588,-1.4274,-1.3919,-1.4443,-1.5207,-1.6291,-1.8332,-1.8893,-1.9043,-1.9717,-1.9909,-2.0,-2.0416,-2.0238,-1.9988,-2.0107,-2.0872,-2.1712,-2.2296,-2.2652,-2.2873,-2.2873,-2.3045,-2.3189,-2.3189,-2.3189,-2.3189,-2.3189,-2.3189,-2.3189,-2.3189,-2.3189,-2.3189,-2.3189,-2.3082,-2.2401,-2.0931,-1.8832,-1.3816,-0.5051,0.0,0.0,0.0,0.2404,0.0,-0.317,-0.472,-0.5664,-0.6076,-0.6613,-0.7144,-0.7668,-0.8522,-0.9267,-0.9968,-1.069,-1.1519,-1.2479,-1.3078,-1.3623,-1.419,-1.5174,-1.572,-1.5964,-1.6337,-1.6522,-1.6522,-2.6185,-2.5757,-2.5365,-2.5227,-2.5071,-2.4988,-2.5078,-2.3534,-2.2838,-2.4213,-2.214,-2.0748,-2.1334,-2.1465,-2.1342,-2.0891,-2.0649,-2.0675,-2.1085,-2.1055,-2.0926,-2.0748,-2.0894,-2.0991,-2.0991,-2.1244,0.0,-2.1582,-2.2873,-2.4257,-2.5651,-2.5754,-2.5855,-2.5893,-2.5653,-2.5102,-2.4293,-2.3113,-2.1943,-2.0717,-1.9375,-1.8204,-1.7231,-1.6563,-1.5934,-1.5417,-1.5618,-1.5078,-1.4287,-1.4525,-1.4236,-1.3808,-1.4022,-1.471,-1.5731,-1.747,-1.8275,-1.8727,-1.9244,-1.9566,-1.9747,-2.0,-1.9851,-1.9793,-2.0534,-2.0825,-2.1155,-2.1881,-2.2309,-2.2563,-2.2563,-2.2704,-2.2857,-2.2857,-2.2857,-2.2857,-2.2857,-2.2857,-2.2857,-2.2857,-2.2965,-2.3069,-2.3189,-2.3305,-2.3005,-2.2041,-2.0269,-1.6218,-0.9368,0.0,0.1304,0.5001,0.2303,-0.0664,-0.355,-0.4671,-0.5541,-0.6176,-0.648,-0.6981,-0.7664,-0.8288,-0.9011,-0.9906,-1.0561,-1.1259,-1.2037,-1.2539,-1.3072,-1.3644,-1.463,-1.5289,-1.5676,-1.6281,-1.6522,-1.6522,-2.5456,-2.5395,-2.5348,-2.529,-2.4709,-2.4397,-2.4839,-2.2938,-2.1878,-2.3118,-2.1564,-2.0444,-2.0732,-2.0533,-2.0144,-1.9663,-2.013,-2.0404,-2.0239,-2.0667,-2.0731,-2.028,-2.0698,-2.0894,-2.0894,-2.0926,-2.115,-2.1582,-2.2307,-2.3425,-2.4838,-2.4306,-2.4635,-2.5651,-2.5102,-2.4707,-2.4407,-2.3777,-2.2562,-2.0996,-2.0366,-1.8987,-1.7274,-1.7167,-1.619,-1.4979,-1.5404,-1.4601,-1.3336,-1.3909,-1.3735,-1.3398,-1.3934,-1.4488,-1.5145,-1.6218,-1.7247,-1.8185,-1.8688,-1.9207,-1.9603,-1.9639,-1.9949,-2.0416,-2.0862,-2.0726,-2.073,-2.142,-2.1899,-2.2209,-2.2209,-2.2237,-2.2237,-2.2237,-2.2282,-2.231,-2.231,-2.231,-2.231,-2.231,-2.2527,0.0,-2.3141,-2.3459,-2.3508,-2.3129,-2.0567,-1.7894,0.0,0.0,-0.312,0.0756,0.1051,-0.0258,-0.3146,-0.4784,-0.5879,-0.6484,-0.692,-0.7398,-0.7968,-0.827,-0.8998,-1.0098,-1.084,-1.1295,-1.1587,-1.1963,-1.2448,-1.3068,-1.3751,-1.4612,-1.5584,-1.6188,-1.6441,-1.6522,-2.4966,-2.4946,-2.4743,-2.412,-2.438,-2.4295,-2.3206,-2.2312,-2.1868,-2.2068,-2.0717,-1.9626,-1.9395,-1.9072,-1.864,-1.7968,-1.9201,-1.9908,-1.9636,-1.9863,-1.9945,-1.9839,-1.9945,-2.0015,-2.0015,-2.0296,-2.0846,-2.1582,-2.2029,-2.2917,-2.4208,-2.4531,-2.4908,-2.5335,-2.5447,-2.4983,-2.4081,-2.3678,-2.2393,-2.0562,-1.9752,-1.8505,-1.7014,-1.5787,-1.5155,-1.4865,-1.4576,-1.4223,-1.3909,-1.4035,-1.4286,-1.4438,-1.4173,-1.4752,-1.5638,-1.6297,-1.697,-1.7626,-1.8145,-1.838,-1.8574,-1.9006,-1.9687,-2.0348,-2.0449,-2.0686,-2.094,-2.1118,-2.1229,-2.1323,-2.1323,-2.1568,-2.1764,-2.1764,-2.2077,-2.231,-2.231,-2.231,-2.231,-2.231,-2.2349,-2.2517,-2.2797,-2.3117,-2.3282,-2.3194,-2.2115,-2.0411,-1.7988,-1.6082,-1.0781,-0.1501,-0.3082,-0.4773,-0.618,-0.6371,-0.6716,-0.7171,-0.7921,-0.839,-0.8521,-0.9011,-0.9371,-0.9672,-1.0271,-1.0726,-1.1074,-1.1182,-1.1492,-1.2007,-1.2658,-1.3541,-1.4543,-1.5145,-1.5837,-1.6522,-2.4542,-2.4451,-2.4163,-2.3534,-2.3315,-2.2943,-2.2036,-2.1089,-2.0574,-2.0807,-1.956,-1.859,-1.8393,-1.7955,-1.7454,-1.6899,-1.8247,-1.9124,-1.9076,-1.925,-1.9332,-1.9332,-1.9332,-1.9332,-1.9332,-1.9788,-2.0364,-2.1007,-2.1411,-2.2116,-2.3148,-2.3484,-2.3869,-2.4277,-2.4463,-2.4208,-2.3605,-2.3285,-2.2123,-2.0454,-1.9824,-1.844,-1.6652,-1.5743,-1.5053,-1.45,-1.4186,-1.3921,-1.3672,-1.3672,-1.3873,-1.4074,-1.3772,-1.4438,-1.5396,-1.5685,-1.6506,-1.7353,-1.7666,-1.7907,-1.8185,-1.8458,-1.9089,-1.9671,-1.9671,-2.0196,-2.0682,-2.0682,-2.0862,-2.0991,-2.0991,-2.1181,-2.1337,-2.1337,-2.1554,-2.1721,-2.1721,-2.1721,-2.1781,-2.1974,-2.1974,-2.2169,-2.2643,-2.2855,-2.3093,-2.3414,-2.2982,0.0,-2.083,-1.9707,-1.5192,-0.66,-0.7762,-0.8327,-0.7897,-0.7501,-0.741,-0.7629,-0.8122,-0.8506,-0.8742,-0.9279,-0.9637,-0.9892,-1.0359,-1.0586,-1.0635,-1.083,-1.1055,-1.1407,-1.2478,-1.3417,-1.4232,-1.5283,-1.6033,-1.6522,-2.4081,-2.3823,-2.34,-2.2945,-2.1966,-2.1152,-2.086,-1.9631,-1.8892,-1.9354,-1.8327,-1.7535,-1.7489,-1.7019,-1.6554,-1.6148,-1.7195,-1.8002,-1.8291,-1.8579,-1.8711,-1.8674,-1.8722,-1.8779,-1.8779,-1.9281,-1.9788,-2.0196,-2.0649,-2.1243,-2.1955,-2.2068,-2.2434,-2.3028,-2.3141,-2.3165,-2.3093,-2.2658,-2.1623,-2.0233,-1.972,-1.821,-1.6261,-1.6094,-1.5273,-1.4198,-1.4123,-1.3697,-1.3198,-1.3198,-1.3248,-1.3323,-1.3323,-1.4061,-1.4928,-1.5016,-1.5993,-1.7083,-1.7162,-1.7585,-1.7987,-1.7987,-1.838,-1.8779,-1.8779,-1.9456,-2.0108,-2.0108,-2.0483,-2.0797,-2.0797,-2.0862,-2.0926,-2.1037,-2.1038,-2.1039,-2.1151,0.0,-2.115,-2.1552,-2.1582,-2.1861,-2.2582,-2.2686,-2.2972,-2.3566,-2.3414,-2.3264,-2.3262,-2.1243,-1.7882,-1.307,-1.2307,-1.1,-0.8941,-0.8477,-0.8219,-0.8101,-0.8243,-0.8552,-0.9032,-0.9428,-0.9856,-1.0303,-1.0654,-1.0615,-1.0312,-1.0674,-1.0811,-1.0982,-1.244,-1.3432,-1.4152,-1.5617,-1.6275,-1.6522,-2.3356,-2.2843,-2.2146,-2.1384,-2.0912,-2.0174,-1.881,-1.8528,-1.8252,-1.7679,-1.7216,-1.6834,-1.6565,-1.6448,-1.6077,-1.5359,-1.597,-1.6451,-1.6488,-1.7488,-1.7904,-1.7572,-1.7984,-1.8224,-1.8224,-1.8727,-1.9251,-1.9728,-2.0196,-2.0682,-2.1197,-2.1811,-2.2163,-2.23,-2.293,-2.3045,-2.272,-2.1764,-2.0525,-1.9131,-1.7803,-1.6822,-1.6027,-1.5256,-1.4868,-1.4727,-1.4249,-1.3697,-1.3198,-1.3198,-1.3546,-1.3959,-1.3959,-1.4387,-1.5004,-1.5429,-1.5762,-1.6043,-1.6511,-1.7034,-1.7435,-1.7435,-1.7827,-1.8224,-1.8224,-1.8688,-1.9103,-1.9103,-1.9536,-1.9909,-1.9909,-2.0193,-2.0603,-2.1144,-2.111,-2.1215,-2.1773,0.0,-2.115,-2.1552,-2.1582,-2.1807,-2.2304,-2.2563,-2.2873,-2.3236,-2.35,-2.3735,-2.4018,-2.2409,-2.0712,-1.9003,-1.5534,-1.2512,-0.9983,-0.9949,-0.9636,-0.9072,-0.9552,-0.9859,-0.997,-1.0041,-1.0183,-1.0283,-1.0352,-1.0342,-1.0283,-1.0352,-1.0381,-1.0459,-1.1044,-1.2224,-1.3588,-1.4216,-1.5329,-1.6522,-2.2263,-2.1559,-2.0788,-2.0188,-1.9529,-1.8717,-1.7569,-1.7461,-1.7402,-1.7027,-1.6502,-1.6099,-1.5948,-1.555,-1.5196,-1.4814,-1.5051,-1.5282,-1.5351,-1.6495,-1.7044,-1.6867,-1.7382,-1.7787,-1.8106,-1.8341,-1.8598,-1.8797,-1.9295,-1.9778,-2.0249,-2.0847,-2.1256,-2.1532,-2.1852,-2.172,-2.1211,-2.0721,-1.9581,-1.8045,-1.7164,-1.6361,-1.5571,-1.4612,-1.4352,-1.4387,-1.381,-1.3446,-1.3198,-1.3198,-1.3396,-1.3609,-1.3609,-1.4022,-1.4576,-1.513,-1.5668,-1.6195,-1.6446,-1.668,-1.6879,-1.6879,-1.7271,-1.7666,-1.7666,-1.8066,-1.8458,-1.8458,-1.865,-1.893,-1.9207,-1.9398,-1.9741,-2.0339,-2.0531,-2.0726,-2.1057,-2.1036,-2.115,-2.1552,-2.1582,-2.1794,-2.2237,-2.2051,-2.2271,-2.313,-2.2562,-2.2589,-2.351,-2.1987,-2.0889,-2.0421,-1.6275,-1.3069,-1.1035,-1.067,-1.0198,-0.958,-0.9845,-0.995,-0.9831,-1.0071,-1.0236,-1.023,-1.0291,-1.0283,-1.0283,-1.0283,-1.0283,-1.04,-1.1414,-1.2281,-1.309,-1.4469,-1.5429,-1.6051,-2.1114,-2.0381,-1.9617,-1.9127,-1.8212,-1.73,-1.6628,-1.6443,-1.6363,-1.6266,-1.5721,-1.533,-1.533,-1.4833,-1.447,-1.4374,-1.4374,-1.4438,-1.4559,-1.5421,-1.6061,-1.6284,-1.6846,-1.7312,-1.7706,-1.7867,-1.7907,-1.7907,-1.8458,-1.8902,-1.9244,-1.9869,-2.0333,-2.0667,-2.0894,-2.0638,-1.9965,-1.9714,-1.8786,-1.7319,-1.6578,-1.5898,-1.5223,-1.4305,-1.4011,-1.4035,-1.3584,-1.3311,-1.3198,-1.3198,-1.3198,-1.3198,-1.3198,-1.3609,-1.4198,-1.4739,-1.5655,-1.6522,-1.6522,-1.6522,-1.6522,-1.6522,-1.6795,-1.7118,-1.7118,-1.7544,-1.7907,-1.7907,-1.8027,-1.8224,-1.865,-1.8817,-1.9101,-1.9649,0.0,-2.0361,-2.0531,-2.0793,-2.115,-2.1552,-2.1582,-2.1794,-2.2237,-2.1634,-2.1764,-2.3088,-2.1777,-2.1473,-2.283,-2.1332,-2.022,-1.9718,-1.636,-1.3743,-1.203,-1.1344,-1.0764,-1.0243,-1.0086,-0.9907,-0.9745,-1.0037,-1.0231,-1.0347,-1.0308,-1.0339,-1.0467,-1.0361,-1.0283,-1.0439,-1.1691,-1.2403,-1.2922,-1.4678,-1.5557,-1.5864,-2.0241,-1.9515,-1.8792,-1.8134,-1.7145,-1.6262,-1.5762,-1.5433,-1.509,-1.4707,-1.4613,-1.4582,-1.4582,-1.4533,-1.4342,-1.4,-1.3934,-1.4018,-1.4156,-1.4234,-1.474,-1.5724,-1.6262,-1.6595,-1.6637,-1.7118,-1.7353,-1.7353,-1.7907,-1.8185,-1.8249,-1.9207,-1.9692,-1.9748,-2.0601,-2.0638,-1.9933,-1.8949,-1.8094,-1.7244,-1.5424,-1.4934,-1.5196,-1.4417,-1.4083,-1.4072,-1.4035,-1.3659,-1.3198,-1.3198,-1.3198,-1.3198,-1.3198,-1.3609,-1.4198,-1.4739,-1.5655,-1.6522,-1.6522,-1.6522,-1.6522,-1.6522,-1.6522,-1.6552,-1.6552,-1.6951,-1.7353,-1.7353,-1.7747,-1.8106,-1.8145,-1.8574,-1.9132,-1.9792,0.0,0.0,-2.1131,-2.1093,-2.115,-2.1552,-2.1582,-2.1794,-2.2237,-2.1634,-2.1764,-2.3088,-2.1777,-2.1411,-2.2562,-2.1096,-1.9345,-1.7409,-1.6606,-1.5141,-1.294,-1.2297,-1.1839,-1.1556,-1.076,-1.0379,-1.0423,-1.0132,-1.0307,-1.0805,-1.0393,-1.0474,-1.0905,-1.0467,-1.0283,-1.0361,-1.0823,-1.1984,-1.3422,-1.4016,-1.5171,-1.6423,-1.8884,-1.7972,-1.7219,-1.6957,-1.5954,-1.5251,-1.5407,-1.53,-1.5291,-1.5462,-1.5275,-1.5002,-1.4674,-1.4396,-1.4025,-1.3518,-1.3459,-1.3667,-1.4083,-1.4085,-1.4576,-1.5643,-1.622,-1.6522,-1.6522,-1.671,-1.6795,-1.6795,-1.7353,-1.7585,-1.7626,-1.8352,-1.8646,-1.8669,-1.8709,-1.8342,-1.7659,-1.6925,-1.6218,-1.5514,-1.452,-1.4433,-1.4825,-1.3906,-1.3783,-1.4035,-1.3672,-1.3408,-1.3248,-1.3622,-1.3471,-1.3204,-1.3627,-1.389,-1.4162,-1.4696,-1.5095,-1.5389,-1.5389,-1.5932,-1.6522,-1.6522,-1.6522,-1.6522,-1.6522,-1.668,-1.6795,-1.6795,-1.6951,-1.7188,-1.7544,-1.8027,-1.862,-1.9185,0.0,-2.081,-2.1079,-2.1516,-2.194,-2.2241,-2.2124,-2.2271,-2.2807,-2.1832,-2.1849,-2.3383,-2.1706,-2.0964,-2.1819,-2.017,-1.857,-1.714,-1.6937,-1.5814,-1.3691,-1.2842,-1.2173,-1.1685,-1.1199,-1.0773,-1.0444,-1.0343,-1.0499,-1.0837,-1.0708,-1.0759,-1.0981,-1.0802,-1.0572,-1.0332,-1.0792,-1.1743,-1.292,-1.3806,-1.4874,-1.6008,-1.7843,-1.6981,-1.6298,-1.6258,-1.5408,-1.4886,-1.5283,-1.5378,-1.5456,-1.5678,-1.5485,-1.5127,-1.4592,-1.4254,-1.3786,-1.3062,-1.2978,-1.3164,-1.3594,-1.3935,-1.4499,-1.5369,-1.6093,-1.6423,-1.6238,-1.6423,-1.6522,-1.6522,-1.6879,-1.7034,-1.7076,-1.7585,-1.7867,-1.784,-1.747,-1.6936,-1.6255,-1.5729,-1.5119,-1.447,-1.4052,-1.4106,-1.4353,-1.3509,-1.3471,-1.3783,-1.3336,-1.3198,-1.3261,-1.3517,-1.3361,-1.3144,-1.3469,-1.3745,-1.4081,-1.4592,-1.4753,-1.4698,-1.4698,-1.5287,-1.5976,-1.6151,-1.638,-1.6522,-1.6522,-1.6522,-1.6522,-1.6522,-1.6522,-1.6595,-1.6993,-1.7626,-1.8224,-1.8574,-1.9869,-2.0829,-2.0959,-2.1615,-2.2186,-2.2537,-2.2398,-2.247,-2.2883,-2.1885,-2.1799,-2.327,-2.1523,-2.0598,-2.1052,-1.9565,-1.8374,-1.769,-1.7208,-1.6254,-1.478,-1.3553,-1.2736,-1.2317,-1.1615,-1.1043,-1.0545,-1.0508,-1.0668,-1.1032,-1.0734,-1.0932,-1.1446,-1.111,-1.077,-1.0554,-1.1023,-1.1871,-1.2879,-1.376,-1.4881,-1.5952,-1.7213,-1.6675,-1.6255,-1.6123,-1.5645,-1.5331,-1.5467,-1.5485,-1.5348,-1.4954,-1.4877,-1.4676,-1.4148,-1.4085,-1.3678,-1.2591,-1.2496,-1.2504,-1.2596,-1.3527,-1.4284,-1.4766,-1.588,-1.6194,-1.5588,-1.6194,-1.6479,-1.6479,-1.6479,-1.6479,-1.6522,-1.7021,-1.7258,-1.7272,-1.7265,-1.6886,-1.6255,-1.5716,-1.5119,-1.4438,-1.4052,-1.3901,-1.3835,-1.3357,-1.3198,-1.3198,-1.3198,-1.3198,-1.3129,-1.2662,-1.278,-1.3003,-1.2541,-1.3092,-1.3983,-1.4563,-1.4709,-1.4709,-1.4709,-1.4698,-1.4835,-1.5454,-1.6051,-1.6466,-1.6522,-1.6522,-1.6522,-1.6522,-1.6522,-1.6522,-1.6522,-1.7394,-1.8106,-1.8106,-1.9353,-2.0449,-2.0926,-2.1337,-2.1764,-2.2237,-2.231,-2.231,-2.231,-2.1634,-2.1608,-2.2643,-2.1278,-2.0424,-2.0424,-1.9444,-1.891,-1.8894,-1.7495,-1.6567,-1.6219,-1.4541,-1.3705,-1.3668,-1.2059,-1.115,-1.0897,-1.0556,-1.0846,-1.155,-1.0456,-1.0939,-1.2425,-1.1353,-1.0949,-1.1061,-1.1533,-1.2403,-1.3463,-1.393,-1.5128,-1.6466,-1.6655,-1.5926,-1.5414,-1.576,-1.5376,-1.517,-1.5592,-1.5268,-1.5106,-1.5344,-1.5006,-1.4421,-1.3541,-1.3488,-1.3066,-1.208,-1.2011,-1.2139,-1.2443,-1.3384,-1.3839,-1.3575,-1.462,-1.5152,-1.4971,-1.5152,-1.5242,-1.5242,-1.5242,-1.5242,-1.5242,-1.5447,-1.5531,-1.5536,-1.5197,-1.493,-1.4712,-1.4141,-1.377,-1.3581,-1.3459,-1.3207,-1.2918,-1.2756,-1.2508,-1.221,-1.221,-1.221,-1.229,-1.2831,-1.2803,-1.2623,-1.3204,-1.3341,-1.335,-1.3911,-1.3789,-1.3515,-1.3967,-1.4376,-1.4835,-1.5454,-1.5732,-1.5964,-1.6423,-1.6522,-1.6522,-1.6522,-1.6522,-1.6522,-1.6522,-1.7394,-1.8106,-1.8106,-1.9353,-2.0348,-2.0483,-2.0894,-2.1413,-2.2091,-2.1953,-2.2108,-2.2857,-2.2339,-2.2251,-2.3003,-2.1917,-2.1152,-2.0977,-2.0145,-1.9435,-1.891,-1.8978,-1.8363,-1.6983,-1.4805,-1.3563,-1.3327,-1.2177,-1.1392,-1.0897,-1.0801,-1.0832,-1.0944,-1.0615,-1.1046,-1.1903,-1.1581,-1.1279,-1.1099,-1.2003,-1.2524,-1.2922,-1.4259,-1.5203,-1.5908,-1.5768,-1.5169,-1.4813,-1.5558,-1.5104,-1.4916,-1.5869,-1.532,-1.4986,-1.5516,-1.505,-1.4328,-1.3331,-1.3178,-1.2754,-1.156,-1.1454,-1.1633,-1.2057,-1.2803,-1.3135,-1.2965,-1.3642,-1.4107,-1.4329,-1.456,-1.4698,-1.4698,-1.4698,-1.4698,-1.4698,-1.4719,-1.4696,-1.4518,-1.3959,-1.3662,-1.347,-1.2902,-1.2756,-1.2908,-1.272,-1.2579,-1.2461,-1.2282,-1.2066,-1.1811,-1.1811,-1.1811,-1.1886,-1.2432,-1.2457,-1.2416,-1.3185,-1.3236,-1.3016,-1.3338,-1.307,-1.2799,-1.3595,-1.3911,-1.4305,-1.5351,-1.5776,-1.6008,-1.6107,-1.6324,-1.6522,-1.6522,-1.6522,-1.6522,-1.6522,-1.7188,-1.7787,-1.7787,-1.8722,-1.957,-1.9989,-2.0265,-2.0749,-2.1576,-2.1625,-2.1845,-2.2504,-2.2409,-2.2443,-2.2824,-2.2255,-2.1823,-2.1661,-2.0906,-2.0281,-1.9807,-1.9917,-1.9211,-1.755,-1.5829,-1.4653,-1.4015,-1.2788,-1.1884,-1.128,-1.1231,-1.1176,-1.1073,-1.1073,-1.1536,-1.2271,-1.2052,-1.1815,-1.1682,-1.2435,-1.2921,-1.3256,-1.4436,-1.5338,-1.5952,-1.472,-1.4384,-1.4407,-1.5386,-1.4775,-1.4637,-1.6101,-1.5398,-1.49,-1.5384,-1.4915,-1.416,-1.3231,-1.3087,-1.2484,-1.1105,-1.0964,-1.1152,-1.1571,-1.203,-1.2461,-1.2861,-1.2881,-1.3132,-1.3669,-1.4226,-1.4503,-1.4459,-1.4459,-1.4459,-1.4494,-1.4461,-1.425,-1.3891,-1.3342,-1.2849,-1.249,-1.2002,-1.2066,-1.2389,-1.1957,-1.2029,-1.2318,-1.1884,-1.17,-1.1664,-1.1664,-1.1664,-1.1667,-1.1633,-1.1883,-1.2295,-1.2656,-1.2793,-1.2812,-1.2773,-1.2528,-1.2441,-1.3543,-1.3538,-1.3629,-1.5236,-1.5996,-1.6281,-1.5776,-1.6095,-1.6522,-1.6522,-1.6522,-1.6522,-1.6522,-1.6951,-1.7312,-1.7312,-1.7747,-1.843,-1.939,-1.9549,-1.9904,-2.0829,-2.1275,-2.1491,-2.1521,-2.1974,-2.2237,-2.231,-2.231,-2.231,-2.231,-2.1651,-2.1271,-2.1204,-2.0499,-1.9432,-1.799,-1.7412,-1.6495,-1.5253,-1.3612,-1.2517,-1.1955,-1.1799,-1.1666,-1.1588,-1.1588,-1.219,-1.3085,-1.2584,-1.2451,-1.2531,-1.2941,-1.3466,-1.4038,-1.457,-1.5452,-1.6275,-1.4218,-1.4086,-1.4036,-1.441,-1.4577,-1.4755,-1.5048,-1.4505,-1.4105,-1.416,-1.3647,-1.3084,-1.2494,-1.2155,-1.1652,-1.0987,-1.1243,-1.1506,-1.1579,-1.233,-1.2783,-1.2881,-1.2881,-1.2811,-1.255,-1.302,-1.3125,-1.2725,-1.2725,-1.2725,-1.2751,-1.2466,-1.2467,-1.2669,-1.2285,-1.2069,-1.1968,-1.1856,-1.1847,-1.1957,-1.1847,-1.1616,-1.1308,-1.1196,-1.0943,-1.0621,-1.0621,-1.0621,-1.0691,-1.0964,-1.1581,-1.2141,-1.1934,-1.209,-1.2305,-1.1988,-1.2077,-1.2526,-1.3696,-1.4234,-1.4615,-1.5413,-1.572,-1.5864,-1.6238,-1.6423,-1.6522,-1.6522,-1.6522,-1.6522,-1.6522,-1.6951,-1.7312,-1.7312,-1.7747,-1.8327,-1.8954,-1.9066,-1.9383,-2.0348,-2.055,-2.0748,-2.1086,-2.1507,-2.1899,-2.2282,-2.231,-2.231,-2.231,-2.2158,-2.1803,-2.1221,-2.1228,-2.0439,-1.8699,-1.8805,-1.7541,-1.4875,-1.3686,-1.2915,-1.2499,-1.2126,-1.1806,-1.1588,-1.1588,-1.1964,-1.2547,-1.2467,-1.2451,-1.2603,-1.3496,-1.3424,-1.2997,-1.4819,-1.5356,-1.529,-1.327,-1.3354,-1.3491,-1.3654,-1.3822,-1.4116,-1.4642,-1.4015,-1.3559,-1.3752,-1.3286,-1.2715,-1.2229,-1.1826,-1.1325,-1.0665,-1.1003,-1.1277,-1.1251,-1.2072,-1.2425,-1.212,-1.2609,-1.2619,-1.2025,-1.2599,-1.2666,-1.218,-1.218,-1.218,-1.2217,-1.2013,-1.1812,-1.1632,-1.1445,-1.1267,-1.1067,-1.1067,-1.1207,-1.1394,-1.1169,-1.1067,-1.0981,-1.0764,-1.0505,-1.0283,-1.0283,-1.041,-1.0615,-1.084,-1.1357,-1.1865,-1.1675,-1.1719,-1.1904,-1.1885,-1.1939,-1.2335,-1.395,-1.4424,-1.467,-1.5413,-1.5588,-1.5676,-1.6008,-1.6051,-1.6139,-1.6423,-1.6522,-1.6522,-1.6522,-1.671,-1.6909,-1.6909,-1.7146,-1.7504,-1.8066,-1.8145,-1.8521,-1.9528,-1.9849,-2.023,-2.0926,-2.1181,-2.1507,-2.1928,-2.1974,-2.2061,-2.2282,-2.2106,-2.179,-2.1389,-2.1341,-2.0603,-1.9152,-1.9295,-1.8188,-1.5784,-1.466,-1.3785,-1.3163,-1.2654,-1.229,-1.1989,-1.2266,-1.2529,-1.2772,-1.2772,-1.2799,-1.2887,-1.3411,-1.3457,-1.34,-1.4744,-1.5217,-1.5286,-1.2031,-1.2383,-1.2781,-1.2741,-1.29,-1.327,-1.4135,-1.3566,-1.3163,-1.3575,-1.319,-1.2686,-1.2176,-1.1717,-1.11,-1.0342,-1.0727,-1.1022,-1.1003,-1.1705,-1.1872,-1.1246,-1.2176,-1.2365,-1.1715,-1.2396,-1.2588,-1.218,-1.218,-1.2141,-1.2109,-1.2041,-1.1611,-1.0908,-1.084,-1.0605,-1.0283,-1.0283,-1.0505,-1.0829,-1.0467,-1.0534,-1.0829,-1.0467,-1.0283,-1.0283,-1.0283,-1.0508,-1.0801,-1.0801,-1.1084,-1.1479,-1.141,-1.1489,-1.1665,-1.1914,-1.1876,-1.2115,-1.3924,-1.4239,-1.4279,-1.5192,-1.5365,-1.5309,-1.541,-1.5543,-1.5732,-1.6238,-1.6423,-1.6522,-1.6522,-1.6522,-1.6522,-1.6522,-1.6522,-1.668,-1.7229,-1.7312,-1.7666,-1.865,-1.92,-1.9834,-2.0682,-2.0829,-2.1055,-2.146,-2.1491,-2.1675,-2.2049,-2.1705,-2.1491,-2.1491,-2.1086,-2.0462,-1.9557,-1.9491,-1.8627,-1.7061,-1.5984,-1.4913,-1.3847,-1.3332,-1.2891,-1.258,-1.2998,-1.3198,-1.3198,-1.3198,-1.3198,-1.3201,-1.3155,-1.3533,-1.4186,-1.4756,-1.5246,-1.5676,-1.0547,-1.1269,-1.1752,-1.1079,-1.2093,-1.291,-1.2609,-1.2787,-1.2991,-1.3006,-1.2978,-1.2638,-1.1948,-1.1202,-1.0561,-1.0166,-1.0952,-1.1522,-1.1525,-1.1699,-1.1649,-1.1237,-1.1664,-1.1759,-1.1271,-1.1968,-1.2239,-1.218,-1.218,-1.2031,-1.1685,-1.127,-1.1025,-1.0889,-1.0527,-1.0332,-1.0283,-1.0283,-1.0361,-1.04,-1.0322,-1.0361,-1.04,-1.0322,-1.0283,-1.0283,-1.0283,-1.0312,-1.0371,-1.0371,-1.0645,-1.0937,-1.0576,-1.0998,-1.1547,-1.1182,-1.1596,-1.237,-1.3112,-1.3619,-1.4082,-1.4665,-1.4422,-1.4179,-1.4698,-1.5231,-1.5632,-1.572,-1.6139,-1.6522,-1.6522,-1.6522,-1.6522,-1.6522,-1.6522,-1.668,-1.7229,-1.7312,-1.7544,-1.8145,-1.8688,-1.92,-1.9728,-2.0162,-2.0583,-2.1055,-2.1086,-2.1118,-2.1166,-2.1134,-2.1086,-2.1086,-2.0649,-2.0335,-2.019,-1.9843,-1.9019,-1.7741,-1.7247,-1.6135,-1.4557,-1.413,-1.3642,-1.3098,-1.3173,-1.3198,-1.3198,-1.3198,-1.3198,-1.321,-1.3204,-1.3563,-1.4223,-1.5212,-1.5587,-1.5676,-0.9992,-1.062,-1.1011,-1.0251,-1.1044,-1.1842,-1.1966,-1.2196,-1.2455,-1.2852,-1.2881,-1.2608,-1.1864,-1.1277,-1.0606,-0.9845,-1.0391,-1.0668,-1.0422,-1.0419,-1.0241,-0.9823,-1.0567,-1.0827,-1.0433,-1.1083,-1.158,-1.1966,-1.2147,-1.2002,-1.1596,-1.141,-1.1016,-1.0547,-1.0371,-1.0283,-1.0283,-1.0283,-1.0283,-1.0283,-1.0283,-1.0283,-1.0283,-1.0283,-1.0283,-1.0283,-1.0283,-1.0283,-1.0283,-1.0283,-1.041,-1.0566,-1.0615,-1.0889,-1.125,-1.1562,-1.1911,-1.2418,-1.3247,-1.3648,-1.3885,-1.4136,-1.4003,-1.3779,-1.3705,-1.4143,-1.4767,-1.5454,-1.6095,-1.6522,-1.6522,-1.6522,-1.6522,-1.6522,-1.6522,-1.6595,-1.6837,-1.6837,-1.7034,-1.7585,-1.8145,-1.8636,-1.9163,-1.9383,-1.9814,-2.055,-2.0616,-2.0715,-2.1007,-2.0764,-2.0616,-2.0616,-1.9884,-1.9528,-1.9528,-1.9029,-1.8394,-1.755,-1.7394,-1.638,-1.4691,-1.429,-1.3783,-1.3198,-1.3198,-1.3198,-1.3198,-1.3198,-1.3198,-1.3223,-1.3571,-1.4249,-1.5067,-1.5517,-1.5684,-1.5632]}]]